<?xml version="1.0" encoding="UTF-8" standalone="no" ?>
<gpx xmlns="http://www.topografix.com/GPX/1/1" xmlns:xsi="http://www.w3.org/2001/XMLSchema-instance" xsi:schemaLocation="http://www.topografix.com/GPX/1/1 http://www.topografix.com/GPX/1/1/gpx.xsd" version="1.1" creator="VisuGPX - https://www.visugpx.com">
  <metadata>
    <name>Lac Noir</name>
  </metadata>
  <trk>
    <name><![CDATA[Lac Noir_1]]></name>
    <extensions>
      <line xmlns="http://www.topografix.com/GPX/gpx_style/0/2">
        <color>0000FF</color>
        <width>4</width>
      </line>
    </extensions>
    <trkseg>
      <trkpt lat="46.69274" lon="7.29731">
        <ele>986.76</ele>
        <time>2020-06-12T08:00:00.000Z</time>
      </trkpt>
      <trkpt lat="46.69264" lon="7.29732">
        <ele>986.94</ele>
        <time>2020-06-12T08:00:11.599Z</time>
      </trkpt>
      <trkpt lat="46.69257" lon="7.29733">
        <ele>986.04</ele>
        <time>2020-06-12T08:00:13.124Z</time>
      </trkpt>
      <trkpt lat="46.69251" lon="7.29734">
        <ele>985.13</ele>
        <time>2020-06-12T08:00:14.434Z</time>
      </trkpt>
      <trkpt lat="46.69246" lon="7.29735">
        <ele>984.55</ele>
        <time>2020-06-12T08:00:15.529Z</time>
      </trkpt>
      <trkpt lat="46.69243" lon="7.29737">
        <ele>984.22</ele>
        <time>2020-06-12T08:00:16.244Z</time>
      </trkpt>
      <trkpt lat="46.69238" lon="7.29734">
        <ele>983.9</ele>
        <time>2020-06-12T08:00:17.383Z</time>
      </trkpt>
      <trkpt lat="46.69234" lon="7.29732">
        <ele>983.53</ele>
        <time>2020-06-12T08:00:18.301Z</time>
      </trkpt>
      <trkpt lat="46.6923" lon="7.29731">
        <ele>983.44</ele>
        <time>2020-06-12T08:00:19.517Z</time>
      </trkpt>
      <trkpt lat="46.69229" lon="7.29731">
        <ele>983.44</ele>
        <time>2020-06-12T08:00:20.484Z</time>
      </trkpt>
      <trkpt lat="46.69209" lon="7.29724">
        <ele>983.34</ele>
        <time>2020-06-12T08:00:38.991Z</time>
      </trkpt>
      <trkpt lat="46.69204" lon="7.29722">
        <ele>983.61</ele>
        <time>2020-06-12T08:00:47.877Z</time>
      </trkpt>
      <trkpt lat="46.69198" lon="7.29721">
        <ele>984.28</ele>
        <time>2020-06-12T08:01:04.873Z</time>
      </trkpt>
      <trkpt lat="46.69194" lon="7.2972">
        <ele>984.28</ele>
        <time>2020-06-12T08:01:08.797Z</time>
      </trkpt>
      <trkpt lat="46.69185" lon="7.29718">
        <ele>984.15</ele>
        <time>2020-06-12T08:01:11.797Z</time>
      </trkpt>
      <trkpt lat="46.69176" lon="7.29717">
        <ele>984.98</ele>
        <time>2020-06-12T08:01:32.841Z</time>
      </trkpt>
      <trkpt lat="46.69172" lon="7.29718">
        <ele>985.07</ele>
        <time>2020-06-12T08:01:37.765Z</time>
      </trkpt>
      <trkpt lat="46.69169" lon="7.29719">
        <ele>984.84</ele>
        <time>2020-06-12T08:01:38.432Z</time>
      </trkpt>
      <trkpt lat="46.69166" lon="7.29721">
        <ele>984.14</ele>
        <time>2020-06-12T08:01:39.148Z</time>
      </trkpt>
      <trkpt lat="46.69163" lon="7.29722">
        <ele>984.83</ele>
        <time>2020-06-12T08:01:50.624Z</time>
      </trkpt>
      <trkpt lat="46.69151" lon="7.29724">
        <ele>985.54</ele>
        <time>2020-06-12T08:02:12.289Z</time>
      </trkpt>
      <trkpt lat="46.69135" lon="7.29726">
        <ele>986.09</ele>
        <time>2020-06-12T08:02:34.912Z</time>
      </trkpt>
      <trkpt lat="46.69127" lon="7.29726">
        <ele>986.31</ele>
        <time>2020-06-12T08:02:45.251Z</time>
      </trkpt>
      <trkpt lat="46.69117" lon="7.29726">
        <ele>986.8</ele>
        <time>2020-06-12T08:03:02.046Z</time>
      </trkpt>
      <trkpt lat="46.69105" lon="7.29725">
        <ele>986.77</ele>
        <time>2020-06-12T08:03:13.238Z</time>
      </trkpt>
      <trkpt lat="46.69096" lon="7.29723">
        <ele>987.7</ele>
        <time>2020-06-12T08:03:36.618Z</time>
      </trkpt>
      <trkpt lat="46.69084" lon="7.29718">
        <ele>988.62</ele>
        <time>2020-06-12T08:04:01.598Z</time>
      </trkpt>
      <trkpt lat="46.69075" lon="7.29714">
        <ele>990.35</ele>
        <time>2020-06-12T08:04:36.685Z</time>
      </trkpt>
      <trkpt lat="46.69074" lon="7.29714">
        <ele>990.35</ele>
        <time>2020-06-12T08:04:37.652Z</time>
      </trkpt>
      <trkpt lat="46.69069" lon="7.29711">
        <ele>992.09</ele>
        <time>2020-06-12T08:04:57.815Z</time>
      </trkpt>
      <trkpt lat="46.69059" lon="7.29705">
        <ele>992.81</ele>
        <time>2020-06-12T08:05:18.324Z</time>
      </trkpt>
      <trkpt lat="46.69047" lon="7.29696">
        <ele>994.98</ele>
        <time>2020-06-12T08:06:08.648Z</time>
      </trkpt>
      <trkpt lat="46.69042" lon="7.29692">
        <ele>995.98</ele>
        <time>2020-06-12T08:06:29.917Z</time>
      </trkpt>
      <trkpt lat="46.69031" lon="7.29687">
        <ele>997.32</ele>
        <time>2020-06-12T08:07:04.355Z</time>
      </trkpt>
      <trkpt lat="46.69021" lon="7.29683">
        <ele>998.36</ele>
        <time>2020-06-12T08:07:30.500Z</time>
      </trkpt>
      <trkpt lat="46.69019" lon="7.29682">
        <ele>998.47</ele>
        <time>2020-06-12T08:07:34.123Z</time>
      </trkpt>
      <trkpt lat="46.69018" lon="7.29681">
        <ele>998.63</ele>
        <time>2020-06-12T08:07:38.549Z</time>
      </trkpt>
      <trkpt lat="46.69014" lon="7.29677">
        <ele>1000.32</ele>
        <time>2020-06-12T08:07:56.638Z</time>
      </trkpt>
      <trkpt lat="46.69012" lon="7.29676">
        <ele>1000.39</ele>
        <time>2020-06-12T08:07:59.572Z</time>
      </trkpt>
      <trkpt lat="46.69009" lon="7.29675">
        <ele>1000.73</ele>
        <time>2020-06-12T08:08:08.189Z</time>
      </trkpt>
      <trkpt lat="46.69006" lon="7.29675">
        <ele>1000.8</ele>
        <time>2020-06-12T08:08:11.878Z</time>
      </trkpt>
      <trkpt lat="46.68999" lon="7.29675">
        <ele>1000.38</ele>
        <time>2020-06-12T08:08:13.343Z</time>
      </trkpt>
      <trkpt lat="46.68993" lon="7.29676">
        <ele>1000.42</ele>
        <time>2020-06-12T08:08:19.559Z</time>
      </trkpt>
      <trkpt lat="46.68982" lon="7.29677">
        <ele>1000.93</ele>
        <time>2020-06-12T08:08:37.747Z</time>
      </trkpt>
      <trkpt lat="46.68969" lon="7.29676">
        <ele>1000.36</ele>
        <time>2020-06-12T08:08:40.876Z</time>
      </trkpt>
      <trkpt lat="46.68959" lon="7.29676">
        <ele>1000.12</ele>
        <time>2020-06-12T08:08:43.813Z</time>
      </trkpt>
      <trkpt lat="46.6895" lon="7.29676">
        <ele>1000.12</ele>
        <time>2020-06-12T08:08:52.514Z</time>
      </trkpt>
      <trkpt lat="46.68944" lon="7.29675">
        <ele>1000.12</ele>
        <time>2020-06-12T08:08:58.353Z</time>
      </trkpt>
      <trkpt lat="46.68936" lon="7.29673">
        <ele>1000.36</ele>
        <time>2020-06-12T08:09:09.115Z</time>
      </trkpt>
      <trkpt lat="46.68928" lon="7.29675">
        <ele>1000.12</ele>
        <time>2020-06-12T08:09:11.359Z</time>
      </trkpt>
      <trkpt lat="46.68919" lon="7.29683">
        <ele>1000.45</ele>
        <time>2020-06-12T08:09:25.648Z</time>
      </trkpt>
      <trkpt lat="46.68907" lon="7.29685">
        <ele>1001.69</ele>
        <time>2020-06-12T08:09:56.824Z</time>
      </trkpt>
      <trkpt lat="46.68904" lon="7.29684">
        <ele>1001.68</ele>
        <time>2020-06-12T08:09:59.658Z</time>
      </trkpt>
      <trkpt lat="46.68902" lon="7.29684">
        <ele>1001.88</ele>
        <time>2020-06-12T08:10:04.686Z</time>
      </trkpt>
      <trkpt lat="46.68899" lon="7.29681">
        <ele>1002.64</ele>
        <time>2020-06-12T08:10:18.253Z</time>
      </trkpt>
      <trkpt lat="46.68894" lon="7.29677">
        <ele>1002.96</ele>
        <time>2020-06-12T08:10:28.296Z</time>
      </trkpt>
      <trkpt lat="46.68878" lon="7.2966">
        <ele>1005.56</ele>
        <time>2020-06-12T08:11:39.941Z</time>
      </trkpt>
      <trkpt lat="46.68875" lon="7.2966">
        <ele>1005.68</ele>
        <time>2020-06-12T08:11:44.519Z</time>
      </trkpt>
      <trkpt lat="46.6887" lon="7.2966">
        <ele>1005.87</ele>
        <time>2020-06-12T08:11:51.934Z</time>
      </trkpt>
      <trkpt lat="46.68852" lon="7.29663">
        <ele>1006.13</ele>
        <time>2020-06-12T08:12:12.101Z</time>
      </trkpt>
      <trkpt lat="46.68842" lon="7.29664">
        <ele>1006.25</ele>
        <time>2020-06-12T08:12:22.985Z</time>
      </trkpt>
      <trkpt lat="46.68833" lon="7.29665">
        <ele>1006.34</ele>
        <time>2020-06-12T08:12:32.589Z</time>
      </trkpt>
      <trkpt lat="46.68833" lon="7.29657">
        <ele>1006.52</ele>
        <time>2020-06-12T08:12:40.173Z</time>
      </trkpt>
      <trkpt lat="46.6881" lon="7.29651">
        <ele>1006.69</ele>
        <time>2020-06-12T08:13:04.376Z</time>
      </trkpt>
      <trkpt lat="46.68802" lon="7.29649">
        <ele>1006.72</ele>
        <time>2020-06-12T08:13:12.498Z</time>
      </trkpt>
      <trkpt lat="46.68784" lon="7.29645">
        <ele>1007.06</ele>
        <time>2020-06-12T08:13:33.734Z</time>
      </trkpt>
      <trkpt lat="46.68778" lon="7.29644">
        <ele>1007.18</ele>
        <time>2020-06-12T08:13:40.872Z</time>
      </trkpt>
      <trkpt lat="46.68773" lon="7.29643">
        <ele>1007.23</ele>
        <time>2020-06-12T08:13:46.238Z</time>
      </trkpt>
      <trkpt lat="46.68769" lon="7.29641">
        <ele>1007.4</ele>
        <time>2020-06-12T08:13:52.710Z</time>
      </trkpt>
      <trkpt lat="46.68759" lon="7.29638">
        <ele>1007.25</ele>
        <time>2020-06-12T08:13:56.057Z</time>
      </trkpt>
      <trkpt lat="46.68745" lon="7.29632">
        <ele>1007.07</ele>
        <time>2020-06-12T08:14:00.987Z</time>
      </trkpt>
      <trkpt lat="46.68737" lon="7.2963">
        <ele>1006.77</ele>
        <time>2020-06-12T08:14:03.068Z</time>
      </trkpt>
      <trkpt lat="46.68733" lon="7.2963">
        <ele>1006.71</ele>
        <time>2020-06-12T08:14:04.375Z</time>
      </trkpt>
      <trkpt lat="46.6873" lon="7.29631">
        <ele>1006.87</ele>
        <time>2020-06-12T08:14:09.646Z</time>
      </trkpt>
      <trkpt lat="46.68728" lon="7.29632">
        <ele>1007.37</ele>
        <time>2020-06-12T08:14:17.531Z</time>
      </trkpt>
      <trkpt lat="46.68721" lon="7.29637">
        <ele>1007.94</ele>
        <time>2020-06-12T08:14:33.062Z</time>
      </trkpt>
      <trkpt lat="46.68718" lon="7.29639">
        <ele>1008.06</ele>
        <time>2020-06-12T08:14:37.845Z</time>
      </trkpt>
      <trkpt lat="46.68718" lon="7.29639">
        <ele>1008.06</ele>
        <time>2020-06-12T08:14:37.845Z</time>
      </trkpt>
      <trkpt lat="46.68716" lon="7.2964">
        <ele>1008.18</ele>
        <time>2020-06-12T08:14:41.585Z</time>
      </trkpt>
      <trkpt lat="46.6871" lon="7.29643">
        <ele>1008.36</ele>
        <time>2020-06-12T08:14:49.871Z</time>
      </trkpt>
      <trkpt lat="46.68707" lon="7.29642">
        <ele>1008.27</ele>
        <time>2020-06-12T08:14:50.725Z</time>
      </trkpt>
      <trkpt lat="46.68702" lon="7.2964">
        <ele>1008.47</ele>
        <time>2020-06-12T08:14:58.476Z</time>
      </trkpt>
      <trkpt lat="46.68695" lon="7.29638">
        <ele>1008.47</ele>
        <time>2020-06-12T08:15:05.373Z</time>
      </trkpt>
      <trkpt lat="46.6869" lon="7.29636">
        <ele>1008.17</ele>
        <time>2020-06-12T08:15:06.477Z</time>
      </trkpt>
      <trkpt lat="46.68685" lon="7.29633">
        <ele>1008.14</ele>
        <time>2020-06-12T08:15:11.295Z</time>
      </trkpt>
      <trkpt lat="46.68684" lon="7.29631">
        <ele>1008.11</ele>
        <time>2020-06-12T08:15:11.831Z</time>
      </trkpt>
      <trkpt lat="46.6868" lon="7.29626">
        <ele>1008.31</ele>
        <time>2020-06-12T08:15:19.641Z</time>
      </trkpt>
      <trkpt lat="46.68666" lon="7.2961">
        <ele>1009</ele>
        <time>2020-06-12T08:15:46.317Z</time>
      </trkpt>
      <trkpt lat="46.6866" lon="7.29604">
        <ele>1009.31</ele>
        <time>2020-06-12T08:15:57.854Z</time>
      </trkpt>
      <trkpt lat="46.6865" lon="7.29595">
        <ele>1009.43</ele>
        <time>2020-06-12T08:16:10.389Z</time>
      </trkpt>
      <trkpt lat="46.6864" lon="7.29588">
        <ele>1009.86</ele>
        <time>2020-06-12T08:16:27.018Z</time>
      </trkpt>
      <trkpt lat="46.68636" lon="7.29587">
        <ele>1009.83</ele>
        <time>2020-06-12T08:16:28.483Z</time>
      </trkpt>
      <trkpt lat="46.68631" lon="7.29587">
        <ele>1009.97</ele>
        <time>2020-06-12T08:16:34.984Z</time>
      </trkpt>
      <trkpt lat="46.68614" lon="7.29588">
        <ele>1010.52</ele>
        <time>2020-06-12T08:16:58.353Z</time>
      </trkpt>
      <trkpt lat="46.68599" lon="7.29588">
        <ele>1010.93</ele>
        <time>2020-06-12T08:17:17.698Z</time>
      </trkpt>
      <trkpt lat="46.6858" lon="7.29588">
        <ele>1011.24</ele>
        <time>2020-06-12T08:17:39.296Z</time>
      </trkpt>
      <trkpt lat="46.68567" lon="7.29589">
        <ele>1011.4</ele>
        <time>2020-06-12T08:17:53.478Z</time>
      </trkpt>
      <trkpt lat="46.68555" lon="7.2959">
        <ele>1011.52</ele>
        <time>2020-06-12T08:18:06.268Z</time>
      </trkpt>
      <trkpt lat="46.68555" lon="7.2959">
        <ele>1011.52</ele>
        <time>2020-06-12T08:18:06.268Z</time>
      </trkpt>
      <trkpt lat="46.68544" lon="7.2959">
        <ele>1011.64</ele>
        <time>2020-06-12T08:18:18.084Z</time>
      </trkpt>
      <trkpt lat="46.68535" lon="7.2959">
        <ele>1011.88</ele>
        <time>2020-06-12T08:18:29.598Z</time>
      </trkpt>
      <trkpt lat="46.68528" lon="7.29578">
        <ele>1012.2</ele>
        <time>2020-06-12T08:18:43.934Z</time>
      </trkpt>
      <trkpt lat="46.68527" lon="7.29575">
        <ele>1012.28</ele>
        <time>2020-06-12T08:18:47.188Z</time>
      </trkpt>
      <trkpt lat="46.68518" lon="7.2956">
        <ele>1012.59</ele>
        <time>2020-06-12T08:19:03.870Z</time>
      </trkpt>
      <trkpt lat="46.68517" lon="7.29556">
        <ele>1012.74</ele>
        <time>2020-06-12T08:19:08.851Z</time>
      </trkpt>
      <trkpt lat="46.68517" lon="7.29553">
        <ele>1012.89</ele>
        <time>2020-06-12T08:19:12.944Z</time>
      </trkpt>
      <trkpt lat="46.68514" lon="7.29533">
        <ele>1012.89</ele>
        <time>2020-06-12T08:19:26.522Z</time>
      </trkpt>
      <trkpt lat="46.68512" lon="7.29526">
        <ele>1012.47</ele>
        <time>2020-06-12T08:19:27.651Z</time>
      </trkpt>
      <trkpt lat="46.6851" lon="7.29525">
        <ele>1012.44</ele>
        <time>2020-06-12T08:19:28.348Z</time>
      </trkpt>
      <trkpt lat="46.68505" lon="7.29524">
        <ele>1012.57</ele>
        <time>2020-06-12T08:19:34.735Z</time>
      </trkpt>
      <trkpt lat="46.68494" lon="7.29521">
        <ele>1013.07</ele>
        <time>2020-06-12T08:19:53.016Z</time>
      </trkpt>
      <trkpt lat="46.68485" lon="7.29519">
        <ele>1013.43</ele>
        <time>2020-06-12T08:20:06.816Z</time>
      </trkpt>
      <trkpt lat="46.6848" lon="7.29516">
        <ele>1013.49</ele>
        <time>2020-06-12T08:20:12.635Z</time>
      </trkpt>
      <trkpt lat="46.68479" lon="7.29516">
        <ele>1013.66</ele>
        <time>2020-06-12T08:20:16.364Z</time>
      </trkpt>
      <trkpt lat="46.68473" lon="7.29511">
        <ele>1013.77</ele>
        <time>2020-06-12T08:20:24.186Z</time>
      </trkpt>
      <trkpt lat="46.68464" lon="7.29505">
        <ele>1014.26</ele>
        <time>2020-06-12T08:20:40.863Z</time>
      </trkpt>
      <trkpt lat="46.6846" lon="7.29501">
        <ele>1014.43</ele>
        <time>2020-06-12T08:20:47.770Z</time>
      </trkpt>
      <trkpt lat="46.68454" lon="7.29494">
        <ele>1014.69</ele>
        <time>2020-06-12T08:20:58.537Z</time>
      </trkpt>
      <trkpt lat="46.68445" lon="7.29481">
        <ele>1014.8</ele>
        <time>2020-06-12T08:21:11.845Z</time>
      </trkpt>
      <trkpt lat="46.68441" lon="7.29476">
        <ele>1014.69</ele>
        <time>2020-06-12T08:21:13.448Z</time>
      </trkpt>
      <trkpt lat="46.68435" lon="7.29469">
        <ele>1014.79</ele>
        <time>2020-06-12T08:21:21.884Z</time>
      </trkpt>
      <trkpt lat="46.68431" lon="7.29464">
        <ele>1014.98</ele>
        <time>2020-06-12T08:21:29.491Z</time>
      </trkpt>
      <trkpt lat="46.68423" lon="7.29458">
        <ele>1015.51</ele>
        <time>2020-06-12T08:21:45.643Z</time>
      </trkpt>
      <trkpt lat="46.68418" lon="7.29455">
        <ele>1015.84</ele>
        <time>2020-06-12T08:21:55.496Z</time>
      </trkpt>
      <trkpt lat="46.68411" lon="7.29451">
        <ele>1015.98</ele>
        <time>2020-06-12T08:22:04.260Z</time>
      </trkpt>
      <trkpt lat="46.68403" lon="7.29448">
        <ele>1016.21</ele>
        <time>2020-06-12T08:22:14.980Z</time>
      </trkpt>
      <trkpt lat="46.68396" lon="7.29445">
        <ele>1016.25</ele>
        <time>2020-06-12T08:22:22.407Z</time>
      </trkpt>
      <trkpt lat="46.68392" lon="7.29443">
        <ele>1016.59</ele>
        <time>2020-06-12T08:22:31.334Z</time>
      </trkpt>
      <trkpt lat="46.68388" lon="7.2944">
        <ele>1016.78</ele>
        <time>2020-06-12T08:22:38.428Z</time>
      </trkpt>
      <trkpt lat="46.68382" lon="7.29434">
        <ele>1017.43</ele>
        <time>2020-06-12T08:22:54.999Z</time>
      </trkpt>
      <trkpt lat="46.68377" lon="7.29429">
        <ele>1017.71</ele>
        <time>2020-06-12T08:23:04.999Z</time>
      </trkpt>
      <trkpt lat="46.68372" lon="7.29424">
        <ele>1018</ele>
        <time>2020-06-12T08:23:15.105Z</time>
      </trkpt>
      <trkpt lat="46.68366" lon="7.29419">
        <ele>1018.72</ele>
        <time>2020-06-12T08:23:33.219Z</time>
      </trkpt>
      <trkpt lat="46.6836" lon="7.29415">
        <ele>1019.31</ele>
        <time>2020-06-12T08:23:48.257Z</time>
      </trkpt>
      <trkpt lat="46.6835" lon="7.29409">
        <ele>1019.85</ele>
        <time>2020-06-12T08:24:06.531Z</time>
      </trkpt>
      <trkpt lat="46.68348" lon="7.29407">
        <ele>1019.94</ele>
        <time>2020-06-12T08:24:10.083Z</time>
      </trkpt>
      <trkpt lat="46.68346" lon="7.29404">
        <ele>1019.87</ele>
        <time>2020-06-12T08:24:10.922Z</time>
      </trkpt>
      <trkpt lat="46.68344" lon="7.29401">
        <ele>1019.98</ele>
        <time>2020-06-12T08:24:15.198Z</time>
      </trkpt>
      <trkpt lat="46.68342" lon="7.29395">
        <ele>1020.03</ele>
        <time>2020-06-12T08:24:20.114Z</time>
      </trkpt>
      <trkpt lat="46.68337" lon="7.29387">
        <ele>1020.2</ele>
        <time>2020-06-12T08:24:29.197Z</time>
      </trkpt>
      <trkpt lat="46.68332" lon="7.2938">
        <ele>1020.07</ele>
        <time>2020-06-12T08:24:31.360Z</time>
      </trkpt>
      <trkpt lat="46.68326" lon="7.29374">
        <ele>1020.47</ele>
        <time>2020-06-12T08:24:44.075Z</time>
      </trkpt>
      <trkpt lat="46.68322" lon="7.29369">
        <ele>1020.8</ele>
        <time>2020-06-12T08:24:53.787Z</time>
      </trkpt>
      <trkpt lat="46.6832" lon="7.29368">
        <ele>1021</ele>
        <time>2020-06-12T08:24:58.836Z</time>
      </trkpt>
      <trkpt lat="46.68317" lon="7.29366">
        <ele>1021.31</ele>
        <time>2020-06-12T08:25:06.670Z</time>
      </trkpt>
      <trkpt lat="46.68313" lon="7.29362">
        <ele>1021.74</ele>
        <time>2020-06-12T08:25:17.651Z</time>
      </trkpt>
      <trkpt lat="46.68309" lon="7.29358">
        <ele>1022.17</ele>
        <time>2020-06-12T08:25:28.632Z</time>
      </trkpt>
      <trkpt lat="46.68305" lon="7.29352">
        <ele>1022.26</ele>
        <time>2020-06-12T08:25:35.112Z</time>
      </trkpt>
      <trkpt lat="46.68301" lon="7.29346">
        <ele>1022.46</ele>
        <time>2020-06-12T08:25:43.262Z</time>
      </trkpt>
      <trkpt lat="46.68299" lon="7.29344">
        <ele>1022.51</ele>
        <time>2020-06-12T08:25:46.153Z</time>
      </trkpt>
      <trkpt lat="46.68295" lon="7.29339">
        <ele>1022.59</ele>
        <time>2020-06-12T08:25:52.070Z</time>
      </trkpt>
      <trkpt lat="46.68291" lon="7.29337">
        <ele>1022.75</ele>
        <time>2020-06-12T08:25:58.327Z</time>
      </trkpt>
      <trkpt lat="46.68285" lon="7.29334">
        <ele>1022.92</ele>
        <time>2020-06-12T08:26:06.455Z</time>
      </trkpt>
      <trkpt lat="46.68275" lon="7.29329">
        <ele>1023.27</ele>
        <time>2020-06-12T08:26:21.125Z</time>
      </trkpt>
      <trkpt lat="46.68269" lon="7.29326">
        <ele>1023.43</ele>
        <time>2020-06-12T08:26:29.100Z</time>
      </trkpt>
      <trkpt lat="46.68266" lon="7.29323">
        <ele>1023.47</ele>
        <time>2020-06-12T08:26:33.011Z</time>
      </trkpt>
      <trkpt lat="46.6826" lon="7.29316">
        <ele>1023.55</ele>
        <time>2020-06-12T08:26:41.225Z</time>
      </trkpt>
      <trkpt lat="46.68252" lon="7.29308">
        <ele>1023.89</ele>
        <time>2020-06-12T08:26:55.039Z</time>
      </trkpt>
      <trkpt lat="46.68247" lon="7.29304">
        <ele>1023.9</ele>
        <time>2020-06-12T08:27:00.643Z</time>
      </trkpt>
      <trkpt lat="46.68241" lon="7.29301">
        <ele>1023.88</ele>
        <time>2020-06-12T08:27:06.493Z</time>
      </trkpt>
      <trkpt lat="46.68238" lon="7.293">
        <ele>1023.46</ele>
        <time>2020-06-12T08:27:07.160Z</time>
      </trkpt>
      <trkpt lat="46.68236" lon="7.293">
        <ele>1023.51</ele>
        <time>2020-06-12T08:27:09.668Z</time>
      </trkpt>
      <trkpt lat="46.6823" lon="7.29301">
        <ele>1023.07</ele>
        <time>2020-06-12T08:27:10.978Z</time>
      </trkpt>
      <trkpt lat="46.68228" lon="7.29301">
        <ele>1022.84</ele>
        <time>2020-06-12T08:27:11.412Z</time>
      </trkpt>
      <trkpt lat="46.68217" lon="7.29299">
        <ele>1022.78</ele>
        <time>2020-06-12T08:27:21.309Z</time>
      </trkpt>
      <trkpt lat="46.68216" lon="7.29299">
        <ele>1022.59</ele>
        <time>2020-06-12T08:27:21.526Z</time>
      </trkpt>
      <trkpt lat="46.68213" lon="7.29299">
        <ele>1022.46</ele>
        <time>2020-06-12T08:27:22.250Z</time>
      </trkpt>
      <trkpt lat="46.68205" lon="7.29299">
        <ele>1022.56</ele>
        <time>2020-06-12T08:27:30.984Z</time>
      </trkpt>
      <trkpt lat="46.68201" lon="7.29299">
        <ele>1022.71</ele>
        <time>2020-06-12T08:27:36.875Z</time>
      </trkpt>
      <trkpt lat="46.68198" lon="7.29298">
        <ele>1022.93</ele>
        <time>2020-06-12T08:27:42.930Z</time>
      </trkpt>
      <trkpt lat="46.68196" lon="7.29296">
        <ele>1023.27</ele>
        <time>2020-06-12T08:27:51.975Z</time>
      </trkpt>
      <trkpt lat="46.68194" lon="7.29294">
        <ele>1023.41</ele>
        <time>2020-06-12T08:27:56.293Z</time>
      </trkpt>
      <trkpt lat="46.68193" lon="7.29294">
        <ele>1023.48</ele>
        <time>2020-06-12T08:27:58.239Z</time>
      </trkpt>
      <trkpt lat="46.68182" lon="7.29275">
        <ele>1024.34</ele>
        <time>2020-06-12T08:28:27.152Z</time>
      </trkpt>
      <trkpt lat="46.6818" lon="7.29272">
        <ele>1024.61</ele>
        <time>2020-06-12T08:28:33.974Z</time>
      </trkpt>
      <trkpt lat="46.68177" lon="7.2927">
        <ele>1024.34</ele>
        <time>2020-06-12T08:28:34.690Z</time>
      </trkpt>
      <trkpt lat="46.68175" lon="7.29268">
        <ele>1024.18</ele>
        <time>2020-06-12T08:28:35.174Z</time>
      </trkpt>
      <trkpt lat="46.68171" lon="7.29266">
        <ele>1023.49</ele>
        <time>2020-06-12T08:28:36.092Z</time>
      </trkpt>
      <trkpt lat="46.68168" lon="7.29264">
        <ele>1023.8</ele>
        <time>2020-06-12T08:28:43.925Z</time>
      </trkpt>
      <trkpt lat="46.68166" lon="7.29262">
        <ele>1023.9</ele>
        <time>2020-06-12T08:28:47.693Z</time>
      </trkpt>
      <trkpt lat="46.68164" lon="7.2926">
        <ele>1024.16</ele>
        <time>2020-06-12T08:28:54.251Z</time>
      </trkpt>
      <trkpt lat="46.68162" lon="7.29257">
        <ele>1023.95</ele>
        <time>2020-06-12T08:28:54.874Z</time>
      </trkpt>
      <trkpt lat="46.68159" lon="7.29254">
        <ele>1023.98</ele>
        <time>2020-06-12T08:28:58.678Z</time>
      </trkpt>
      <trkpt lat="46.68155" lon="7.29252">
        <ele>1023.78</ele>
        <time>2020-06-12T08:28:59.663Z</time>
      </trkpt>
      <trkpt lat="46.68149" lon="7.2925">
        <ele>1023.52</ele>
        <time>2020-06-12T08:29:01.164Z</time>
      </trkpt>
      <trkpt lat="46.68142" lon="7.29246">
        <ele>1023.85</ele>
        <time>2020-06-12T08:29:13.321Z</time>
      </trkpt>
      <trkpt lat="46.68139" lon="7.29245">
        <ele>1023.64</ele>
        <time>2020-06-12T08:29:13.988Z</time>
      </trkpt>
      <trkpt lat="46.68132" lon="7.29245">
        <ele>1023.59</ele>
        <time>2020-06-12T08:29:20.088Z</time>
      </trkpt>
      <trkpt lat="46.68127" lon="7.29244">
        <ele>1023.54</ele>
        <time>2020-06-12T08:29:21.848Z</time>
      </trkpt>
      <trkpt lat="46.68123" lon="7.29242">
        <ele>1023.29</ele>
        <time>2020-06-12T08:29:22.740Z</time>
      </trkpt>
      <trkpt lat="46.68116" lon="7.29239">
        <ele>1023.4</ele>
        <time>2020-06-12T08:29:30.924Z</time>
      </trkpt>
      <trkpt lat="46.6811" lon="7.29236">
        <ele>1023.61</ele>
        <time>2020-06-12T08:29:39.726Z</time>
      </trkpt>
      <trkpt lat="46.68103" lon="7.29234">
        <ele>1023.7</ele>
        <time>2020-06-12T08:29:47.523Z</time>
      </trkpt>
      <trkpt lat="46.68098" lon="7.29232">
        <ele>1023.79</ele>
        <time>2020-06-12T08:29:53.484Z</time>
      </trkpt>
      <trkpt lat="46.68095" lon="7.29229">
        <ele>1023.73</ele>
        <time>2020-06-12T08:29:54.650Z</time>
      </trkpt>
      <trkpt lat="46.68092" lon="7.29226">
        <ele>1023.84</ele>
        <time>2020-06-12T08:29:59.515Z</time>
      </trkpt>
      <trkpt lat="46.68084" lon="7.29216">
        <ele>1024.63</ele>
        <time>2020-06-12T08:30:20.815Z</time>
      </trkpt>
      <trkpt lat="46.68081" lon="7.29225">
        <ele>1024.87</ele>
        <time>2020-06-12T08:30:30.578Z</time>
      </trkpt>
      <trkpt lat="46.68076" lon="7.29242">
        <ele>1024.89</ele>
        <time>2020-06-12T08:30:43.026Z</time>
      </trkpt>
      <trkpt lat="46.68074" lon="7.29248">
        <ele>1024.88</ele>
        <time>2020-06-12T08:30:47.308Z</time>
      </trkpt>
      <trkpt lat="46.68073" lon="7.29257">
        <ele>1024.78</ele>
        <time>2020-06-12T08:30:49.326Z</time>
      </trkpt>
      <trkpt lat="46.68072" lon="7.29266">
        <ele>1024.52</ele>
        <time>2020-06-12T08:30:50.861Z</time>
      </trkpt>
      <trkpt lat="46.68071" lon="7.29276">
        <ele>1024.53</ele>
        <time>2020-06-12T08:30:57.654Z</time>
      </trkpt>
      <trkpt lat="46.68071" lon="7.29285">
        <ele>1024.3</ele>
        <time>2020-06-12T08:30:59.233Z</time>
      </trkpt>
      <trkpt lat="46.6807" lon="7.29295">
        <ele>1024.08</ele>
        <time>2020-06-12T08:31:01.106Z</time>
      </trkpt>
      <trkpt lat="46.68072" lon="7.2931">
        <ele>1023.94</ele>
        <time>2020-06-12T08:31:04.602Z</time>
      </trkpt>
      <trkpt lat="46.68074" lon="7.29328">
        <ele>1023.94</ele>
        <time>2020-06-12T08:31:16.697Z</time>
      </trkpt>
      <trkpt lat="46.68078" lon="7.29362">
        <ele>1024.54</ele>
        <time>2020-06-12T08:31:46.499Z</time>
      </trkpt>
      <trkpt lat="46.68079" lon="7.29375">
        <ele>1025.09</ele>
        <time>2020-06-12T08:32:02.882Z</time>
      </trkpt>
      <trkpt lat="46.68079" lon="7.2938">
        <ele>1025.29</ele>
        <time>2020-06-12T08:32:09.014Z</time>
      </trkpt>
      <trkpt lat="46.68067" lon="7.29377">
        <ele>1025.47</ele>
        <time>2020-06-12T08:32:22.629Z</time>
      </trkpt>
      <trkpt lat="46.68054" lon="7.29375">
        <ele>1025.67</ele>
        <time>2020-06-12T08:32:37.327Z</time>
      </trkpt>
      <trkpt lat="46.68042" lon="7.29374">
        <ele>1025.67</ele>
        <time>2020-06-12T08:32:48.948Z</time>
      </trkpt>
      <trkpt lat="46.68029" lon="7.29374">
        <ele>1025.61</ele>
        <time>2020-06-12T08:33:00.686Z</time>
      </trkpt>
      <trkpt lat="46.68023" lon="7.29374">
        <ele>1025.41</ele>
        <time>2020-06-12T08:33:02.282Z</time>
      </trkpt>
      <trkpt lat="46.68023" lon="7.29374">
        <ele>1025.41</ele>
        <time>2020-06-12T08:33:02.282Z</time>
      </trkpt>
      <trkpt lat="46.68029" lon="7.29374">
        <ele>1025.61</ele>
        <time>2020-06-12T08:33:10.632Z</time>
      </trkpt>
      <trkpt lat="46.67949" lon="7.2938">
        <ele>1025.22</ele>
        <time>2020-06-12T08:34:22.703Z</time>
      </trkpt>
      <trkpt lat="46.67942" lon="7.2938">
        <ele>1025.23</ele>
        <time>2020-06-12T08:34:29.561Z</time>
      </trkpt>
      <trkpt lat="46.67937" lon="7.2938">
        <ele>1025.29</ele>
        <time>2020-06-12T08:34:34.992Z</time>
      </trkpt>
      <trkpt lat="46.67937" lon="7.2938">
        <ele>1025.3</ele>
        <time>2020-06-12T08:34:34.992Z</time>
      </trkpt>
      <trkpt lat="46.67912" lon="7.29383">
        <ele>1025.33</ele>
        <time>2020-06-12T08:34:59.512Z</time>
      </trkpt>
      <trkpt lat="46.67842" lon="7.29389">
        <ele>1025.51</ele>
        <time>2020-06-12T08:36:08.938Z</time>
      </trkpt>
      <trkpt lat="46.67808" lon="7.29392">
        <ele>1025.47</ele>
        <time>2020-06-12T08:36:41.288Z</time>
      </trkpt>
      <trkpt lat="46.6779" lon="7.29393">
        <ele>1025.71</ele>
        <time>2020-06-12T08:37:01.124Z</time>
      </trkpt>
      <trkpt lat="46.67783" lon="7.29393">
        <ele>1025.81</ele>
        <time>2020-06-12T08:37:08.911Z</time>
      </trkpt>
      <trkpt lat="46.67779" lon="7.29393">
        <ele>1025.77</ele>
        <time>2020-06-12T08:37:10.304Z</time>
      </trkpt>
      <trkpt lat="46.67772" lon="7.29387">
        <ele>1025.89</ele>
        <time>2020-06-12T08:37:19.384Z</time>
      </trkpt>
      <trkpt lat="46.67768" lon="7.29378">
        <ele>1025.97</ele>
        <time>2020-06-12T08:37:27.284Z</time>
      </trkpt>
      <trkpt lat="46.67755" lon="7.29333">
        <ele>1025.96</ele>
        <time>2020-06-12T08:37:59.525Z</time>
      </trkpt>
      <trkpt lat="46.6775" lon="7.29315">
        <ele>1025.72</ele>
        <time>2020-06-12T08:38:03.719Z</time>
      </trkpt>
      <trkpt lat="46.67746" lon="7.29305">
        <ele>1025.62</ele>
        <time>2020-06-12T08:38:06.393Z</time>
      </trkpt>
      <trkpt lat="46.67739" lon="7.29293">
        <ele>1025.64</ele>
        <time>2020-06-12T08:38:17.021Z</time>
      </trkpt>
      <trkpt lat="46.67728" lon="7.29274">
        <ele>1025.93</ele>
        <time>2020-06-12T08:38:36.554Z</time>
      </trkpt>
      <trkpt lat="46.67723" lon="7.29266">
        <ele>1026.03</ele>
        <time>2020-06-12T08:38:44.743Z</time>
      </trkpt>
      <trkpt lat="46.67718" lon="7.29264">
        <ele>1026.08</ele>
        <time>2020-06-12T08:38:50.241Z</time>
      </trkpt>
      <trkpt lat="46.67708" lon="7.29262">
        <ele>1026.56</ele>
        <time>2020-06-12T08:39:07.036Z</time>
      </trkpt>
      <trkpt lat="46.67701" lon="7.29263">
        <ele>1026.56</ele>
        <time>2020-06-12T08:39:13.836Z</time>
      </trkpt>
      <trkpt lat="46.67696" lon="7.29266">
        <ele>1026.75</ele>
        <time>2020-06-12T08:39:21.544Z</time>
      </trkpt>
      <trkpt lat="46.67692" lon="7.29271">
        <ele>1026.95</ele>
        <time>2020-06-12T08:39:29.354Z</time>
      </trkpt>
      <trkpt lat="46.67689" lon="7.29279">
        <ele>1027.17</ele>
        <time>2020-06-12T08:39:38.276Z</time>
      </trkpt>
      <trkpt lat="46.67687" lon="7.29292">
        <ele>1027.29</ele>
        <time>2020-06-12T08:39:48.321Z</time>
      </trkpt>
      <trkpt lat="46.67685" lon="7.29301">
        <ele>1027.43</ele>
        <time>2020-06-12T08:39:56.142Z</time>
      </trkpt>
      <trkpt lat="46.67685" lon="7.29307">
        <ele>1027.43</ele>
        <time>2020-06-12T08:40:00.122Z</time>
      </trkpt>
      <trkpt lat="46.67684" lon="7.2931">
        <ele>1027.55</ele>
        <time>2020-06-12T08:40:04.053Z</time>
      </trkpt>
      <trkpt lat="46.67682" lon="7.29312">
        <ele>1027.68</ele>
        <time>2020-06-12T08:40:08.253Z</time>
      </trkpt>
      <trkpt lat="46.6768" lon="7.29313">
        <ele>1027.68</ele>
        <time>2020-06-12T08:40:10.297Z</time>
      </trkpt>
      <trkpt lat="46.67676" lon="7.29313">
        <ele>1027.86</ele>
        <time>2020-06-12T08:40:16.844Z</time>
      </trkpt>
      <trkpt lat="46.67668" lon="7.29312">
        <ele>1027.85</ele>
        <time>2020-06-12T08:40:24.462Z</time>
      </trkpt>
      <trkpt lat="46.67648" lon="7.29303">
        <ele>1028.1</ele>
        <time>2020-06-12T08:40:47.185Z</time>
      </trkpt>
      <trkpt lat="46.67644" lon="7.293">
        <ele>1028.22</ele>
        <time>2020-06-12T08:40:52.940Z</time>
      </trkpt>
      <trkpt lat="46.6764" lon="7.29297">
        <ele>1028.34</ele>
        <time>2020-06-12T08:40:58.696Z</time>
      </trkpt>
      <trkpt lat="46.67639" lon="7.29295">
        <ele>1028.34</ele>
        <time>2020-06-12T08:41:00.337Z</time>
      </trkpt>
      <trkpt lat="46.67638" lon="7.29292">
        <ele>1028.34</ele>
        <time>2020-06-12T08:41:02.550Z</time>
      </trkpt>
      <trkpt lat="46.67637" lon="7.29286">
        <ele>1028.34</ele>
        <time>2020-06-12T08:41:06.646Z</time>
      </trkpt>
      <trkpt lat="46.67637" lon="7.29279">
        <ele>1028.67</ele>
        <time>2020-06-12T08:41:15.899Z</time>
      </trkpt>
      <trkpt lat="46.67636" lon="7.2926">
        <ele>1028.22</ele>
        <time>2020-06-12T08:41:19.338Z</time>
      </trkpt>
      <trkpt lat="46.67636" lon="7.29257">
        <ele>1027.91</ele>
        <time>2020-06-12T08:41:19.784Z</time>
      </trkpt>
      <trkpt lat="46.67634" lon="7.29257">
        <ele>1027.91</ele>
        <time>2020-06-12T08:41:21.718Z</time>
      </trkpt>
      <trkpt lat="46.67631" lon="7.29256">
        <ele>1027.75</ele>
        <time>2020-06-12T08:41:22.406Z</time>
      </trkpt>
      <trkpt lat="46.67626" lon="7.29253">
        <ele>1027.59</ele>
        <time>2020-06-12T08:41:23.900Z</time>
      </trkpt>
      <trkpt lat="46.67619" lon="7.29247">
        <ele>1027.5</ele>
        <time>2020-06-12T08:41:26.689Z</time>
      </trkpt>
      <trkpt lat="46.67614" lon="7.29242">
        <ele>1028.11</ele>
        <time>2020-06-12T08:41:42.024Z</time>
      </trkpt>
      <trkpt lat="46.67609" lon="7.29236">
        <ele>1028.22</ele>
        <time>2020-06-12T08:41:49.439Z</time>
      </trkpt>
      <trkpt lat="46.67603" lon="7.29228">
        <ele>1028.21</ele>
        <time>2020-06-12T08:41:57.156Z</time>
      </trkpt>
      <trkpt lat="46.67596" lon="7.29218">
        <ele>1028.25</ele>
        <time>2020-06-12T08:42:07.000Z</time>
      </trkpt>
      <trkpt lat="46.67586" lon="7.29207">
        <ele>1028.39</ele>
        <time>2020-06-12T08:42:20.494Z</time>
      </trkpt>
      <trkpt lat="46.67581" lon="7.29201">
        <ele>1028.36</ele>
        <time>2020-06-12T08:42:26.341Z</time>
      </trkpt>
      <trkpt lat="46.6758" lon="7.29201">
        <ele>1028.36</ele>
        <time>2020-06-12T08:42:27.308Z</time>
      </trkpt>
      <trkpt lat="46.67578" lon="7.29198">
        <ele>1028.34</ele>
        <time>2020-06-12T08:42:29.815Z</time>
      </trkpt>
      <trkpt lat="46.67572" lon="7.2919">
        <ele>1028.67</ele>
        <time>2020-06-12T08:42:42.328Z</time>
      </trkpt>
      <trkpt lat="46.67567" lon="7.29183">
        <ele>1028.82</ele>
        <time>2020-06-12T08:42:50.688Z</time>
      </trkpt>
      <trkpt lat="46.67562" lon="7.2918">
        <ele>1028.53</ele>
        <time>2020-06-12T08:42:51.880Z</time>
      </trkpt>
      <trkpt lat="46.67557" lon="7.29178">
        <ele>1028.98</ele>
        <time>2020-06-12T08:43:03.429Z</time>
      </trkpt>
      <trkpt lat="46.6755" lon="7.29176">
        <ele>1029.31</ele>
        <time>2020-06-12T08:43:15.200Z</time>
      </trkpt>
      <trkpt lat="46.67548" lon="7.29176">
        <ele>1029.41</ele>
        <time>2020-06-12T08:43:18.581Z</time>
      </trkpt>
      <trkpt lat="46.67545" lon="7.29178">
        <ele>1029.42</ele>
        <time>2020-06-12T08:43:21.861Z</time>
      </trkpt>
      <trkpt lat="46.6754" lon="7.29175">
        <ele>1029.36</ele>
        <time>2020-06-12T08:43:23.718Z</time>
      </trkpt>
      <trkpt lat="46.67533" lon="7.29169">
        <ele>1029.48</ele>
        <time>2020-06-12T08:43:32.798Z</time>
      </trkpt>
      <trkpt lat="46.67524" lon="7.29164">
        <ele>1029.9</ele>
        <time>2020-06-12T08:43:48.303Z</time>
      </trkpt>
      <trkpt lat="46.67517" lon="7.29161">
        <ele>1030.28</ele>
        <time>2020-06-12T08:44:00.808Z</time>
      </trkpt>
      <trkpt lat="46.67512" lon="7.2916">
        <ele>1030.61</ele>
        <time>2020-06-12T08:44:10.297Z</time>
      </trkpt>
      <trkpt lat="46.67509" lon="7.29159">
        <ele>1031.07</ele>
        <time>2020-06-12T08:44:21.773Z</time>
      </trkpt>
      <trkpt lat="46.67502" lon="7.29153">
        <ele>1031.84</ele>
        <time>2020-06-12T08:44:41.209Z</time>
      </trkpt>
      <trkpt lat="46.67483" lon="7.29135">
        <ele>1033.6</ele>
        <time>2020-06-12T08:45:28.000Z</time>
      </trkpt>
      <trkpt lat="46.67473" lon="7.29129">
        <ele>1034.56</ele>
        <time>2020-06-12T08:45:52.507Z</time>
      </trkpt>
      <trkpt lat="46.67463" lon="7.29125">
        <ele>1035.6</ele>
        <time>2020-06-12T08:46:18.653Z</time>
      </trkpt>
      <trkpt lat="46.67451" lon="7.29124">
        <ele>1036.76</ele>
        <time>2020-06-12T08:46:47.879Z</time>
      </trkpt>
      <trkpt lat="46.67441" lon="7.29122">
        <ele>1037.71</ele>
        <time>2020-06-12T08:47:11.880Z</time>
      </trkpt>
      <trkpt lat="46.67434" lon="7.29118">
        <ele>1038.3</ele>
        <time>2020-06-12T08:47:27.506Z</time>
      </trkpt>
      <trkpt lat="46.67421" lon="7.2911">
        <ele>1039.46</ele>
        <time>2020-06-12T08:47:57.741Z</time>
      </trkpt>
      <trkpt lat="46.674" lon="7.29102">
        <ele>1041.19</ele>
        <time>2020-06-12T08:48:43.302Z</time>
      </trkpt>
      <trkpt lat="46.67382" lon="7.29096">
        <ele>1043.35</ele>
        <time>2020-06-12T08:49:38.929Z</time>
      </trkpt>
      <trkpt lat="46.67377" lon="7.29092">
        <ele>1043.62</ele>
        <time>2020-06-12T08:49:48.406Z</time>
      </trkpt>
      <trkpt lat="46.67363" lon="7.29085">
        <ele>1043.84</ele>
        <time>2020-06-12T08:50:04.971Z</time>
      </trkpt>
      <trkpt lat="46.6734" lon="7.29082">
        <ele>1045.55</ele>
        <time>2020-06-12T08:50:51.312Z</time>
      </trkpt>
      <trkpt lat="46.67325" lon="7.2908">
        <ele>1046.17</ele>
        <time>2020-06-12T08:51:14.688Z</time>
      </trkpt>
      <trkpt lat="46.67321" lon="7.29079">
        <ele>1046.23</ele>
        <time>2020-06-12T08:51:19.226Z</time>
      </trkpt>
      <trkpt lat="46.6732" lon="7.29079">
        <ele>1046.23</ele>
        <time>2020-06-12T08:51:20.193Z</time>
      </trkpt>
      <trkpt lat="46.67318" lon="7.29079">
        <ele>1046.29</ele>
        <time>2020-06-12T08:51:22.859Z</time>
      </trkpt>
      <trkpt lat="46.67307" lon="7.2908">
        <ele>1046.18</ele>
        <time>2020-06-12T08:51:26.699Z</time>
      </trkpt>
      <trkpt lat="46.67298" lon="7.2908">
        <ele>1045.88</ele>
        <time>2020-06-12T08:51:29.092Z</time>
      </trkpt>
      <trkpt lat="46.67293" lon="7.29074">
        <ele>1046.01</ele>
        <time>2020-06-12T08:51:36.765Z</time>
      </trkpt>
      <trkpt lat="46.67291" lon="7.29066">
        <ele>1046.24</ele>
        <time>2020-06-12T08:51:45.599Z</time>
      </trkpt>
      <trkpt lat="46.67288" lon="7.29053">
        <ele>1046.46</ele>
        <time>2020-06-12T08:51:57.176Z</time>
      </trkpt>
      <trkpt lat="46.67282" lon="7.2904">
        <ele>1046.37</ele>
        <time>2020-06-12T08:52:01.004Z</time>
      </trkpt>
      <trkpt lat="46.67276" lon="7.2903">
        <ele>1046.26</ele>
        <time>2020-06-12T08:52:04.094Z</time>
      </trkpt>
      <trkpt lat="46.67269" lon="7.29024">
        <ele>1045.94</ele>
        <time>2020-06-12T08:52:06.128Z</time>
      </trkpt>
      <trkpt lat="46.67256" lon="7.29021">
        <ele>1045.7</ele>
        <time>2020-06-12T08:52:10.260Z</time>
      </trkpt>
      <trkpt lat="46.6724" lon="7.29021">
        <ele>1045.3</ele>
        <time>2020-06-12T08:52:14.907Z</time>
      </trkpt>
      <trkpt lat="46.67231" lon="7.29021">
        <ele>1045.15</ele>
        <time>2020-06-12T08:52:17.787Z</time>
      </trkpt>
      <trkpt lat="46.67224" lon="7.29021">
        <ele>1045</ele>
        <time>2020-06-12T08:52:19.903Z</time>
      </trkpt>
      <trkpt lat="46.67218" lon="7.2902">
        <ele>1044.8</ele>
        <time>2020-06-12T08:52:21.513Z</time>
      </trkpt>
      <trkpt lat="46.67213" lon="7.29018">
        <ele>1044.87</ele>
        <time>2020-06-12T08:52:27.233Z</time>
      </trkpt>
      <trkpt lat="46.67211" lon="7.29017">
        <ele>1044.82</ele>
        <time>2020-06-12T08:52:27.856Z</time>
      </trkpt>
      <trkpt lat="46.67209" lon="7.29015">
        <ele>1044.73</ele>
        <time>2020-06-12T08:52:28.477Z</time>
      </trkpt>
      <trkpt lat="46.67207" lon="7.29014">
        <ele>1044.73</ele>
        <time>2020-06-12T08:52:30.522Z</time>
      </trkpt>
      <trkpt lat="46.67205" lon="7.29011">
        <ele>1044.74</ele>
        <time>2020-06-12T08:52:33.388Z</time>
      </trkpt>
      <trkpt lat="46.67202" lon="7.29006">
        <ele>1044.71</ele>
        <time>2020-06-12T08:52:37.391Z</time>
      </trkpt>
      <trkpt lat="46.672" lon="7.29002">
        <ele>1044.67</ele>
        <time>2020-06-12T08:52:38.546Z</time>
      </trkpt>
      <trkpt lat="46.67199" lon="7.28999">
        <ele>1044.65</ele>
        <time>2020-06-12T08:52:39.357Z</time>
      </trkpt>
      <trkpt lat="46.67195" lon="7.28991">
        <ele>1044.65</ele>
        <time>2020-06-12T08:52:45.924Z</time>
      </trkpt>
      <trkpt lat="46.67192" lon="7.28983">
        <ele>1044.81</ele>
        <time>2020-06-12T08:52:53.822Z</time>
      </trkpt>
      <trkpt lat="46.6719" lon="7.28975">
        <ele>1044.47</ele>
        <time>2020-06-12T08:52:55.063Z</time>
      </trkpt>
      <trkpt lat="46.6719" lon="7.2897">
        <ele>1044.2</ele>
        <time>2020-06-12T08:52:55.807Z</time>
      </trkpt>
      <trkpt lat="46.67189" lon="7.28961">
        <ele>1043.98</ele>
        <time>2020-06-12T08:52:57.440Z</time>
      </trkpt>
      <trkpt lat="46.67188" lon="7.28952">
        <ele>1044.55</ele>
        <time>2020-06-12T08:53:11.915Z</time>
      </trkpt>
      <trkpt lat="46.67188" lon="7.28946">
        <ele>1044.58</ele>
        <time>2020-06-12T08:53:16.180Z</time>
      </trkpt>
      <trkpt lat="46.67189" lon="7.28932">
        <ele>1044.34</ele>
        <time>2020-06-12T08:53:18.990Z</time>
      </trkpt>
      <trkpt lat="46.67188" lon="7.28926">
        <ele>1044.33</ele>
        <time>2020-06-12T08:53:22.943Z</time>
      </trkpt>
      <trkpt lat="46.67186" lon="7.28917">
        <ele>1044.52</ele>
        <time>2020-06-12T08:53:31.518Z</time>
      </trkpt>
      <trkpt lat="46.67184" lon="7.28911">
        <ele>1044.5</ele>
        <time>2020-06-12T08:53:35.666Z</time>
      </trkpt>
      <trkpt lat="46.67182" lon="7.28903">
        <ele>1044.57</ele>
        <time>2020-06-12T08:53:42.010Z</time>
      </trkpt>
      <trkpt lat="46.67181" lon="7.28901">
        <ele>1044.52</ele>
        <time>2020-06-12T08:53:42.480Z</time>
      </trkpt>
      <trkpt lat="46.6718" lon="7.28897">
        <ele>1044.43</ele>
        <time>2020-06-12T08:53:43.278Z</time>
      </trkpt>
      <trkpt lat="46.67178" lon="7.28895">
        <ele>1044.3</ele>
        <time>2020-06-12T08:53:43.813Z</time>
      </trkpt>
      <trkpt lat="46.67177" lon="7.28894">
        <ele>1044.27</ele>
        <time>2020-06-12T08:53:44.166Z</time>
      </trkpt>
      <trkpt lat="46.67175" lon="7.28893">
        <ele>1043.96</ele>
        <time>2020-06-12T08:53:44.624Z</time>
      </trkpt>
      <trkpt lat="46.67174" lon="7.28893">
        <ele>1043.78</ele>
        <time>2020-06-12T08:53:44.841Z</time>
      </trkpt>
      <trkpt lat="46.67169" lon="7.28893">
        <ele>1043.65</ele>
        <time>2020-06-12T08:53:46.278Z</time>
      </trkpt>
      <trkpt lat="46.67165" lon="7.28895">
        <ele>1043.7</ele>
        <time>2020-06-12T08:53:50.863Z</time>
      </trkpt>
      <trkpt lat="46.67161" lon="7.28897">
        <ele>1043.71</ele>
        <time>2020-06-12T08:53:55.042Z</time>
      </trkpt>
      <trkpt lat="46.67156" lon="7.28898">
        <ele>1043.78</ele>
        <time>2020-06-12T08:54:00.631Z</time>
      </trkpt>
      <trkpt lat="46.67154" lon="7.28898">
        <ele>1043.79</ele>
        <time>2020-06-12T08:54:02.658Z</time>
      </trkpt>
      <trkpt lat="46.67153" lon="7.28895">
        <ele>1043.89</ele>
        <time>2020-06-12T08:54:06.347Z</time>
      </trkpt>
      <trkpt lat="46.67153" lon="7.28893">
        <ele>1043.96</ele>
        <time>2020-06-12T08:54:08.682Z</time>
      </trkpt>
      <trkpt lat="46.67153" lon="7.2889">
        <ele>1044.06</ele>
        <time>2020-06-12T08:54:12.130Z</time>
      </trkpt>
      <trkpt lat="46.67152" lon="7.28879">
        <ele>1044.06</ele>
        <time>2020-06-12T08:54:19.491Z</time>
      </trkpt>
      <trkpt lat="46.67152" lon="7.28866">
        <ele>1044.14</ele>
        <time>2020-06-12T08:54:28.887Z</time>
      </trkpt>
      <trkpt lat="46.67152" lon="7.28858">
        <ele>1044.05</ele>
        <time>2020-06-12T08:54:30.650Z</time>
      </trkpt>
      <trkpt lat="46.67152" lon="7.28849">
        <ele>1044.27</ele>
        <time>2020-06-12T08:54:39.512Z</time>
      </trkpt>
      <trkpt lat="46.67154" lon="7.28827">
        <ele>1044.51</ele>
        <time>2020-06-12T08:54:56.719Z</time>
      </trkpt>
      <trkpt lat="46.67153" lon="7.28819">
        <ele>1044.71</ele>
        <time>2020-06-12T08:55:04.750Z</time>
      </trkpt>
      <trkpt lat="46.67152" lon="7.28812">
        <ele>1044.98</ele>
        <time>2020-06-12T08:55:13.327Z</time>
      </trkpt>
      <trkpt lat="46.6715" lon="7.288">
        <ele>1045.33</ele>
        <time>2020-06-12T08:55:26.505Z</time>
      </trkpt>
      <trkpt lat="46.67147" lon="7.2879">
        <ele>1045.65</ele>
        <time>2020-06-12T08:55:38.402Z</time>
      </trkpt>
      <trkpt lat="46.67142" lon="7.28784">
        <ele>1045.51</ele>
        <time>2020-06-12T08:55:40.356Z</time>
      </trkpt>
      <trkpt lat="46.67138" lon="7.2878">
        <ele>1045.69</ele>
        <time>2020-06-12T08:55:47.461Z</time>
      </trkpt>
      <trkpt lat="46.6712" lon="7.28769">
        <ele>1045.72</ele>
        <time>2020-06-12T08:56:06.601Z</time>
      </trkpt>
      <trkpt lat="46.67117" lon="7.28767">
        <ele>1045.76</ele>
        <time>2020-06-12T08:56:10.189Z</time>
      </trkpt>
      <trkpt lat="46.67109" lon="7.28763">
        <ele>1045.83</ele>
        <time>2020-06-12T08:56:19.037Z</time>
      </trkpt>
      <trkpt lat="46.67085" lon="7.28753">
        <ele>1046.25</ele>
        <time>2020-06-12T08:56:47.567Z</time>
      </trkpt>
      <trkpt lat="46.67082" lon="7.2875">
        <ele>1046.31</ele>
        <time>2020-06-12T08:56:51.711Z</time>
      </trkpt>
      <trkpt lat="46.67079" lon="7.28747">
        <ele>1046.38</ele>
        <time>2020-06-12T08:56:55.981Z</time>
      </trkpt>
      <trkpt lat="46.67075" lon="7.28744">
        <ele>1046.53</ele>
        <time>2020-06-12T08:57:02.243Z</time>
      </trkpt>
      <trkpt lat="46.67068" lon="7.28739">
        <ele>1046.52</ele>
        <time>2020-06-12T08:57:09.634Z</time>
      </trkpt>
      <trkpt lat="46.67061" lon="7.28733">
        <ele>1046.36</ele>
        <time>2020-06-12T08:57:12.140Z</time>
      </trkpt>
      <trkpt lat="46.67054" lon="7.28727">
        <ele>1046.25</ele>
        <time>2020-06-12T08:57:14.842Z</time>
      </trkpt>
      <trkpt lat="46.67047" lon="7.28724">
        <ele>1046.33</ele>
        <time>2020-06-12T08:57:22.683Z</time>
      </trkpt>
      <trkpt lat="46.67047" lon="7.28708">
        <ele>1046.26</ele>
        <time>2020-06-12T08:57:32.353Z</time>
      </trkpt>
      <trkpt lat="46.67047" lon="7.28695">
        <ele>1046.23</ele>
        <time>2020-06-12T08:57:40.555Z</time>
      </trkpt>
      <trkpt lat="46.67048" lon="7.28679">
        <ele>1046.37</ele>
        <time>2020-06-12T08:57:52.617Z</time>
      </trkpt>
      <trkpt lat="46.67048" lon="7.28674">
        <ele>1046.37</ele>
        <time>2020-06-12T08:57:55.934Z</time>
      </trkpt>
      <trkpt lat="46.67049" lon="7.28661">
        <ele>1046.45</ele>
        <time>2020-06-12T08:58:05.384Z</time>
      </trkpt>
      <trkpt lat="46.67051" lon="7.28647">
        <ele>1046.43</ele>
        <time>2020-06-12T08:58:14.583Z</time>
      </trkpt>
      <trkpt lat="46.67052" lon="7.28634">
        <ele>1046.48</ele>
        <time>2020-06-12T08:58:23.729Z</time>
      </trkpt>
      <trkpt lat="46.67055" lon="7.28617">
        <ele>1046.45</ele>
        <time>2020-06-12T08:58:34.946Z</time>
      </trkpt>
      <trkpt lat="46.67059" lon="7.2859">
        <ele>1046.57</ele>
        <time>2020-06-12T08:58:54.399Z</time>
      </trkpt>
      <trkpt lat="46.67061" lon="7.2858">
        <ele>1046.63</ele>
        <time>2020-06-12T08:59:01.884Z</time>
      </trkpt>
      <trkpt lat="46.67061" lon="7.2858">
        <ele>1046.63</ele>
        <time>2020-06-12T08:59:01.884Z</time>
      </trkpt>
      <trkpt lat="46.67069" lon="7.28539">
        <ele>1046.68</ele>
        <time>2020-06-12T08:59:30.613Z</time>
      </trkpt>
      <trkpt lat="46.6707" lon="7.28532">
        <ele>1046.65</ele>
        <time>2020-06-12T08:59:34.950Z</time>
      </trkpt>
      <trkpt lat="46.67073" lon="7.28513">
        <ele>1046.54</ele>
        <time>2020-06-12T08:59:39.722Z</time>
      </trkpt>
      <trkpt lat="46.67074" lon="7.28496">
        <ele>1046.47</ele>
        <time>2020-06-12T08:59:50.092Z</time>
      </trkpt>
      <trkpt lat="46.67075" lon="7.28483">
        <ele>1046.69</ele>
        <time>2020-06-12T09:00:01.283Z</time>
      </trkpt>
      <trkpt lat="46.67076" lon="7.28471">
        <ele>1046.69</ele>
        <time>2020-06-12T09:00:09.302Z</time>
      </trkpt>
      <trkpt lat="46.67076" lon="7.28467">
        <ele>1046.58</ele>
        <time>2020-06-12T09:00:09.985Z</time>
      </trkpt>
      <trkpt lat="46.67076" lon="7.28459">
        <ele>1046.69</ele>
        <time>2020-06-12T09:00:16.486Z</time>
      </trkpt>
      <trkpt lat="46.67076" lon="7.28452">
        <ele>1046.78</ele>
        <time>2020-06-12T09:00:22.092Z</time>
      </trkpt>
      <trkpt lat="46.67075" lon="7.28436">
        <ele>1046.77</ele>
        <time>2020-06-12T09:00:32.604Z</time>
      </trkpt>
      <trkpt lat="46.67073" lon="7.28416">
        <ele>1046.92</ele>
        <time>2020-06-12T09:00:47.487Z</time>
      </trkpt>
      <trkpt lat="46.67073" lon="7.28413">
        <ele>1046.95</ele>
        <time>2020-06-12T09:00:49.784Z</time>
      </trkpt>
      <trkpt lat="46.6707" lon="7.28395">
        <ele>1046.95</ele>
        <time>2020-06-12T09:01:02.072Z</time>
      </trkpt>
      <trkpt lat="46.67069" lon="7.28389">
        <ele>1046.91</ele>
        <time>2020-06-12T09:01:03.559Z</time>
      </trkpt>
      <trkpt lat="46.67067" lon="7.28376">
        <ele>1046.96</ele>
        <time>2020-06-12T09:01:12.864Z</time>
      </trkpt>
      <trkpt lat="46.67066" lon="7.28374">
        <ele>1046.97</ele>
        <time>2020-06-12T09:01:14.599Z</time>
      </trkpt>
      <trkpt lat="46.67062" lon="7.28359">
        <ele>1046.95</ele>
        <time>2020-06-12T09:01:24.987Z</time>
      </trkpt>
      <trkpt lat="46.67059" lon="7.28348">
        <ele>1047</ele>
        <time>2020-06-12T09:01:33.309Z</time>
      </trkpt>
      <trkpt lat="46.67057" lon="7.28343">
        <ele>1047.02</ele>
        <time>2020-06-12T09:01:37.335Z</time>
      </trkpt>
      <trkpt lat="46.67055" lon="7.28337">
        <ele>1047.03</ele>
        <time>2020-06-12T09:01:41.850Z</time>
      </trkpt>
      <trkpt lat="46.67053" lon="7.28331">
        <ele>1047.03</ele>
        <time>2020-06-12T09:01:46.276Z</time>
      </trkpt>
      <trkpt lat="46.67046" lon="7.28316">
        <ele>1046.82</ele>
        <time>2020-06-12T09:01:50.249Z</time>
      </trkpt>
      <trkpt lat="46.67041" lon="7.28305">
        <ele>1046.79</ele>
        <time>2020-06-12T09:01:58.579Z</time>
      </trkpt>
      <trkpt lat="46.6704" lon="7.28304">
        <ele>1046.8</ele>
        <time>2020-06-12T09:01:59.847Z</time>
      </trkpt>
      <trkpt lat="46.67037" lon="7.28297">
        <ele>1046.86</ele>
        <time>2020-06-12T09:02:05.911Z</time>
      </trkpt>
      <trkpt lat="46.67036" lon="7.28296">
        <ele>1046.87</ele>
        <time>2020-06-12T09:02:07.179Z</time>
      </trkpt>
      <trkpt lat="46.67034" lon="7.28292">
        <ele>1046.91</ele>
        <time>2020-06-12T09:02:10.860Z</time>
      </trkpt>
      <trkpt lat="46.6703" lon="7.28285">
        <ele>1046.94</ele>
        <time>2020-06-12T09:02:17.181Z</time>
      </trkpt>
      <trkpt lat="46.67029" lon="7.28284">
        <ele>1046.94</ele>
        <time>2020-06-12T09:02:18.354Z</time>
      </trkpt>
      <trkpt lat="46.67025" lon="7.28278">
        <ele>1046.97</ele>
        <time>2020-06-12T09:02:24.183Z</time>
      </trkpt>
      <trkpt lat="46.67021" lon="7.28272">
        <ele>1047.04</ele>
        <time>2020-06-12T09:02:30.430Z</time>
      </trkpt>
      <trkpt lat="46.67021" lon="7.28271">
        <ele>1047.04</ele>
        <time>2020-06-12T09:02:31.094Z</time>
      </trkpt>
      <trkpt lat="46.67018" lon="7.28267">
        <ele>1047.09</ele>
        <time>2020-06-12T09:02:35.524Z</time>
      </trkpt>
      <trkpt lat="46.6701" lon="7.28256">
        <ele>1047.14</ele>
        <time>2020-06-12T09:02:46.620Z</time>
      </trkpt>
      <trkpt lat="46.67" lon="7.28243">
        <ele>1047.33</ele>
        <time>2020-06-12T09:03:01.509Z</time>
      </trkpt>
      <trkpt lat="46.66985" lon="7.28224">
        <ele>1047.7</ele>
        <time>2020-06-12T09:03:24.674Z</time>
      </trkpt>
      <trkpt lat="46.66972" lon="7.28209">
        <ele>1048.08</ele>
        <time>2020-06-12T09:03:44.964Z</time>
      </trkpt>
      <trkpt lat="46.66966" lon="7.28201">
        <ele>1048.63</ele>
        <time>2020-06-12T09:04:00.508Z</time>
      </trkpt>
      <trkpt lat="46.6696" lon="7.2821">
        <ele>1047.99</ele>
        <time>2020-06-12T09:04:02.376Z</time>
      </trkpt>
      <trkpt lat="46.66948" lon="7.28224">
        <ele>1046.89</ele>
        <time>2020-06-12T09:04:05.710Z</time>
      </trkpt>
      <trkpt lat="46.66938" lon="7.28234">
        <ele>1046.36</ele>
        <time>2020-06-12T09:04:08.628Z</time>
      </trkpt>
      <trkpt lat="46.66934" lon="7.28236">
        <ele>1046.22</ele>
        <time>2020-06-12T09:04:09.755Z</time>
      </trkpt>
      <trkpt lat="46.66926" lon="7.28239">
        <ele>1045.89</ele>
        <time>2020-06-12T09:04:11.813Z</time>
      </trkpt>
      <trkpt lat="46.66918" lon="7.2824">
        <ele>1045.76</ele>
        <time>2020-06-12T09:04:14.397Z</time>
      </trkpt>
      <trkpt lat="46.66913" lon="7.28237">
        <ele>1045.67</ele>
        <time>2020-06-12T09:04:16.128Z</time>
      </trkpt>
      <trkpt lat="46.66908" lon="7.28233">
        <ele>1045.61</ele>
        <time>2020-06-12T09:04:18.101Z</time>
      </trkpt>
      <trkpt lat="46.66905" lon="7.28231">
        <ele>1045.58</ele>
        <time>2020-06-12T09:04:19.264Z</time>
      </trkpt>
      <trkpt lat="46.66895" lon="7.28218">
        <ele>1045.59</ele>
        <time>2020-06-12T09:04:32.309Z</time>
      </trkpt>
      <trkpt lat="46.66893" lon="7.28214">
        <ele>1045.62</ele>
        <time>2020-06-12T09:04:35.882Z</time>
      </trkpt>
      <trkpt lat="46.6689" lon="7.2821">
        <ele>1045.65</ele>
        <time>2020-06-12T09:04:40.098Z</time>
      </trkpt>
      <trkpt lat="46.66882" lon="7.2819">
        <ele>1045.81</ele>
        <time>2020-06-12T09:04:57.017Z</time>
      </trkpt>
      <trkpt lat="46.66874" lon="7.28171">
        <ele>1045.71</ele>
        <time>2020-06-12T09:05:10.460Z</time>
      </trkpt>
      <trkpt lat="46.66865" lon="7.28154">
        <ele>1045.68</ele>
        <time>2020-06-12T09:05:24.274Z</time>
      </trkpt>
      <trkpt lat="46.66852" lon="7.28131">
        <ele>1045.74</ele>
        <time>2020-06-12T09:05:44.589Z</time>
      </trkpt>
      <trkpt lat="46.6685" lon="7.28128">
        <ele>1045.78</ele>
        <time>2020-06-12T09:05:47.770Z</time>
      </trkpt>
      <trkpt lat="46.66844" lon="7.28115">
        <ele>1045.95</ele>
        <time>2020-06-12T09:05:59.924Z</time>
      </trkpt>
      <trkpt lat="46.66836" lon="7.28102">
        <ele>1046.03</ele>
        <time>2020-06-12T09:06:12.264Z</time>
      </trkpt>
      <trkpt lat="46.66821" lon="7.28081">
        <ele>1046.08</ele>
        <time>2020-06-12T09:06:32.827Z</time>
      </trkpt>
      <trkpt lat="46.66809" lon="7.28062">
        <ele>1045.91</ele>
        <time>2020-06-12T09:06:39.033Z</time>
      </trkpt>
      <trkpt lat="46.66805" lon="7.28054">
        <ele>1045.82</ele>
        <time>2020-06-12T09:06:41.301Z</time>
      </trkpt>
      <trkpt lat="46.668" lon="7.28045">
        <ele>1045.73</ele>
        <time>2020-06-12T09:06:44.020Z</time>
      </trkpt>
      <trkpt lat="46.66793" lon="7.28028">
        <ele>1045.61</ele>
        <time>2020-06-12T09:06:48.835Z</time>
      </trkpt>
      <trkpt lat="46.66791" lon="7.28023">
        <ele>1045.57</ele>
        <time>2020-06-12T09:06:50.217Z</time>
      </trkpt>
      <trkpt lat="46.66785" lon="7.28005">
        <ele>1045.68</ele>
        <time>2020-06-12T09:07:04.544Z</time>
      </trkpt>
      <trkpt lat="46.66784" lon="7.28005">
        <ele>1045.68</ele>
        <time>2020-06-12T09:07:05.511Z</time>
      </trkpt>
      <trkpt lat="46.66782" lon="7.27999">
        <ele>1045.8</ele>
        <time>2020-06-12T09:07:11.335Z</time>
      </trkpt>
      <trkpt lat="46.66778" lon="7.27986">
        <ele>1045.9</ele>
        <time>2020-06-12T09:07:21.764Z</time>
      </trkpt>
      <trkpt lat="46.66773" lon="7.27973">
        <ele>1046</ele>
        <time>2020-06-12T09:07:32.624Z</time>
      </trkpt>
      <trkpt lat="46.66769" lon="7.27961">
        <ele>1046.18</ele>
        <time>2020-06-12T09:07:43.419Z</time>
      </trkpt>
      <trkpt lat="46.66767" lon="7.27956">
        <ele>1046.26</ele>
        <time>2020-06-12T09:07:48.128Z</time>
      </trkpt>
      <trkpt lat="46.66764" lon="7.27948">
        <ele>1046.2</ele>
        <time>2020-06-12T09:07:50.319Z</time>
      </trkpt>
      <trkpt lat="46.66763" lon="7.27948">
        <ele>1046.19</ele>
        <time>2020-06-12T09:07:50.667Z</time>
      </trkpt>
      <trkpt lat="46.66763" lon="7.27945">
        <ele>1046.26</ele>
        <time>2020-06-12T09:07:53.558Z</time>
      </trkpt>
      <trkpt lat="46.66762" lon="7.27938">
        <ele>1046.41</ele>
        <time>2020-06-12T09:08:00.147Z</time>
      </trkpt>
      <trkpt lat="46.66762" lon="7.27923">
        <ele>1046.88</ele>
        <time>2020-06-12T09:08:17.067Z</time>
      </trkpt>
      <trkpt lat="46.66761" lon="7.27916">
        <ele>1046.9</ele>
        <time>2020-06-12T09:08:21.994Z</time>
      </trkpt>
      <trkpt lat="46.66759" lon="7.2791">
        <ele>1046.98</ele>
        <time>2020-06-12T09:08:27.263Z</time>
      </trkpt>
      <trkpt lat="46.66756" lon="7.27905">
        <ele>1047</ele>
        <time>2020-06-12T09:08:31.854Z</time>
      </trkpt>
      <trkpt lat="46.66752" lon="7.27901">
        <ele>1047.03</ele>
        <time>2020-06-12T09:08:36.826Z</time>
      </trkpt>
      <trkpt lat="46.6675" lon="7.27898">
        <ele>1047.05</ele>
        <time>2020-06-12T09:08:39.790Z</time>
      </trkpt>
      <trkpt lat="46.66746" lon="7.27893">
        <ele>1047.01</ele>
        <time>2020-06-12T09:08:41.687Z</time>
      </trkpt>
      <trkpt lat="46.66743" lon="7.27887">
        <ele>1046.96</ele>
        <time>2020-06-12T09:08:43.466Z</time>
      </trkpt>
      <trkpt lat="46.66741" lon="7.27882">
        <ele>1046.98</ele>
        <time>2020-06-12T09:08:47.491Z</time>
      </trkpt>
      <trkpt lat="46.66739" lon="7.27876">
        <ele>1046.98</ele>
        <time>2020-06-12T09:08:51.917Z</time>
      </trkpt>
      <trkpt lat="46.66738" lon="7.2787">
        <ele>1046.98</ele>
        <time>2020-06-12T09:08:56.013Z</time>
      </trkpt>
      <trkpt lat="46.66735" lon="7.27852">
        <ele>1047.19</ele>
        <time>2020-06-12T09:09:10.494Z</time>
      </trkpt>
      <trkpt lat="46.66732" lon="7.27839">
        <ele>1047.57</ele>
        <time>2020-06-12T09:09:24.933Z</time>
      </trkpt>
      <trkpt lat="46.66729" lon="7.27823">
        <ele>1047.71</ele>
        <time>2020-06-12T09:09:37.335Z</time>
      </trkpt>
      <trkpt lat="46.66725" lon="7.27816">
        <ele>1047.71</ele>
        <time>2020-06-12T09:09:43.378Z</time>
      </trkpt>
      <trkpt lat="46.66718" lon="7.2781">
        <ele>1047.32</ele>
        <time>2020-06-12T09:09:45.258Z</time>
      </trkpt>
      <trkpt lat="46.66717" lon="7.2781">
        <ele>1047.26</ele>
        <time>2020-06-12T09:09:45.467Z</time>
      </trkpt>
      <trkpt lat="46.66712" lon="7.27806">
        <ele>1046.85</ele>
        <time>2020-06-12T09:09:46.704Z</time>
      </trkpt>
      <trkpt lat="46.66703" lon="7.27803">
        <ele>1046.4</ele>
        <time>2020-06-12T09:09:48.827Z</time>
      </trkpt>
      <trkpt lat="46.66698" lon="7.278">
        <ele>1046.27</ele>
        <time>2020-06-12T09:09:50.415Z</time>
      </trkpt>
      <trkpt lat="46.66697" lon="7.27799">
        <ele>1046.22</ele>
        <time>2020-06-12T09:09:50.713Z</time>
      </trkpt>
      <trkpt lat="46.66694" lon="7.27795">
        <ele>1046.17</ele>
        <time>2020-06-12T09:09:52.088Z</time>
      </trkpt>
      <trkpt lat="46.66691" lon="7.27791">
        <ele>1046.12</ele>
        <time>2020-06-12T09:09:53.462Z</time>
      </trkpt>
      <trkpt lat="46.66687" lon="7.27782">
        <ele>1045.97</ele>
        <time>2020-06-12T09:09:55.714Z</time>
      </trkpt>
      <trkpt lat="46.66683" lon="7.27773">
        <ele>1045.86</ele>
        <time>2020-06-12T09:09:58.119Z</time>
      </trkpt>
      <trkpt lat="46.66682" lon="7.27769">
        <ele>1045.84</ele>
        <time>2020-06-12T09:10:00.675Z</time>
      </trkpt>
      <trkpt lat="46.66681" lon="7.27765">
        <ele>1045.82</ele>
        <time>2020-06-12T09:10:03.232Z</time>
      </trkpt>
      <trkpt lat="46.66679" lon="7.27757">
        <ele>1045.77</ele>
        <time>2020-06-12T09:10:05.307Z</time>
      </trkpt>
      <trkpt lat="46.66677" lon="7.2775">
        <ele>1045.72</ele>
        <time>2020-06-12T09:10:07.129Z</time>
      </trkpt>
      <trkpt lat="46.66676" lon="7.27746">
        <ele>1045.81</ele>
        <time>2020-06-12T09:10:11.063Z</time>
      </trkpt>
      <trkpt lat="46.66675" lon="7.27741">
        <ele>1045.92</ele>
        <time>2020-06-12T09:10:15.875Z</time>
      </trkpt>
      <trkpt lat="46.66672" lon="7.27735">
        <ele>1045.88</ele>
        <time>2020-06-12T09:10:17.702Z</time>
      </trkpt>
      <trkpt lat="46.66666" lon="7.27724">
        <ele>1045.75</ele>
        <time>2020-06-12T09:10:20.912Z</time>
      </trkpt>
      <trkpt lat="46.66663" lon="7.27719">
        <ele>1045.76</ele>
        <time>2020-06-12T09:10:25.409Z</time>
      </trkpt>
      <trkpt lat="46.66662" lon="7.27717">
        <ele>1045.77</ele>
        <time>2020-06-12T09:10:27.144Z</time>
      </trkpt>
      <trkpt lat="46.66662" lon="7.27715">
        <ele>1045.74</ele>
        <time>2020-06-12T09:10:27.557Z</time>
      </trkpt>
      <trkpt lat="46.6666" lon="7.27712">
        <ele>1045.69</ele>
        <time>2020-06-12T09:10:28.467Z</time>
      </trkpt>
      <trkpt lat="46.6666" lon="7.2771">
        <ele>1045.71</ele>
        <time>2020-06-12T09:10:29.999Z</time>
      </trkpt>
      <trkpt lat="46.66659" lon="7.27705">
        <ele>1045.78</ele>
        <time>2020-06-12T09:10:34.209Z</time>
      </trkpt>
      <trkpt lat="46.66657" lon="7.27692">
        <ele>1045.98</ele>
        <time>2020-06-12T09:10:45.264Z</time>
      </trkpt>
      <trkpt lat="46.66656" lon="7.27686">
        <ele>1046.12</ele>
        <time>2020-06-12T09:10:51.138Z</time>
      </trkpt>
      <trkpt lat="46.66656" lon="7.27685">
        <ele>1046.14</ele>
        <time>2020-06-12T09:10:52.043Z</time>
      </trkpt>
      <trkpt lat="46.66653" lon="7.27675">
        <ele>1046.1</ele>
        <time>2020-06-12T09:10:58.736Z</time>
      </trkpt>
      <trkpt lat="46.66649" lon="7.27667">
        <ele>1045.97</ele>
        <time>2020-06-12T09:11:00.846Z</time>
      </trkpt>
      <trkpt lat="46.66643" lon="7.27659">
        <ele>1045.73</ele>
        <time>2020-06-12T09:11:03.096Z</time>
      </trkpt>
      <trkpt lat="46.66641" lon="7.27658">
        <ele>1045.71</ele>
        <time>2020-06-12T09:11:03.838Z</time>
      </trkpt>
      <trkpt lat="46.6664" lon="7.27657">
        <ele>1045.7</ele>
        <time>2020-06-12T09:11:04.270Z</time>
      </trkpt>
      <trkpt lat="46.66633" lon="7.27656">
        <ele>1045.72</ele>
        <time>2020-06-12T09:11:11.252Z</time>
      </trkpt>
      <trkpt lat="46.66629" lon="7.27655">
        <ele>1045.72</ele>
        <time>2020-06-12T09:11:15.176Z</time>
      </trkpt>
      <trkpt lat="46.66622" lon="7.27653">
        <ele>1045.66</ele>
        <time>2020-06-12T09:11:17.714Z</time>
      </trkpt>
      <trkpt lat="46.66611" lon="7.27652">
        <ele>1045.69</ele>
        <time>2020-06-12T09:11:28.642Z</time>
      </trkpt>
      <trkpt lat="46.66599" lon="7.27652">
        <ele>1045.73</ele>
        <time>2020-06-12T09:11:40.609Z</time>
      </trkpt>
      <trkpt lat="46.66594" lon="7.27651">
        <ele>1045.64</ele>
        <time>2020-06-12T09:11:42.201Z</time>
      </trkpt>
      <trkpt lat="46.66593" lon="7.27651">
        <ele>1045.62</ele>
        <time>2020-06-12T09:11:42.509Z</time>
      </trkpt>
      <trkpt lat="46.66574" lon="7.27643">
        <ele>1045.81</ele>
        <time>2020-06-12T09:12:03.475Z</time>
      </trkpt>
      <trkpt lat="46.66564" lon="7.27639">
        <ele>1045.77</ele>
        <time>2020-06-12T09:12:12.941Z</time>
      </trkpt>
      <trkpt lat="46.66556" lon="7.27636">
        <ele>1045.7</ele>
        <time>2020-06-12T09:12:15.878Z</time>
      </trkpt>
      <trkpt lat="46.66553" lon="7.27632">
        <ele>1045.81</ele>
        <time>2020-06-12T09:12:21.104Z</time>
      </trkpt>
      <trkpt lat="46.66551" lon="7.27628">
        <ele>1045.91</ele>
        <time>2020-06-12T09:12:25.600Z</time>
      </trkpt>
      <trkpt lat="46.6655" lon="7.27626">
        <ele>1045.93</ele>
        <time>2020-06-12T09:12:27.441Z</time>
      </trkpt>
      <trkpt lat="46.6655" lon="7.27624">
        <ele>1045.96</ele>
        <time>2020-06-12T09:12:29.100Z</time>
      </trkpt>
      <trkpt lat="46.66549" lon="7.27622">
        <ele>1046</ele>
        <time>2020-06-12T09:12:31.193Z</time>
      </trkpt>
      <trkpt lat="46.66549" lon="7.27615">
        <ele>1046.02</ele>
        <time>2020-06-12T09:12:36.022Z</time>
      </trkpt>
      <trkpt lat="46.66551" lon="7.27606">
        <ele>1046.09</ele>
        <time>2020-06-12T09:12:42.986Z</time>
      </trkpt>
      <trkpt lat="46.66556" lon="7.27588">
        <ele>1046.55</ele>
        <time>2020-06-12T09:13:01.827Z</time>
      </trkpt>
      <trkpt lat="46.66563" lon="7.27559">
        <ele>1047.84</ele>
        <time>2020-06-12T09:13:40.302Z</time>
      </trkpt>
      <trkpt lat="46.66566" lon="7.27545">
        <ele>1048.66</ele>
        <time>2020-06-12T09:14:01.737Z</time>
      </trkpt>
      <trkpt lat="46.66568" lon="7.27537">
        <ele>1049.3</ele>
        <time>2020-06-12T09:14:17.931Z</time>
      </trkpt>
      <trkpt lat="46.66568" lon="7.27534">
        <ele>1049.58</ele>
        <time>2020-06-12T09:14:25.609Z</time>
      </trkpt>
      <trkpt lat="46.66568" lon="7.27528">
        <ele>1050.06</ele>
        <time>2020-06-12T09:14:37.955Z</time>
      </trkpt>
      <trkpt lat="46.66566" lon="7.27516">
        <ele>1051.06</ele>
        <time>2020-06-12T09:15:03.794Z</time>
      </trkpt>
      <trkpt lat="46.66565" lon="7.27515">
        <ele>1051.14</ele>
        <time>2020-06-12T09:15:06.084Z</time>
      </trkpt>
      <trkpt lat="46.66564" lon="7.27504">
        <ele>1051.88</ele>
        <time>2020-06-12T09:15:24.717Z</time>
      </trkpt>
      <trkpt lat="46.66564" lon="7.275">
        <ele>1052.13</ele>
        <time>2020-06-12T09:15:31.066Z</time>
      </trkpt>
      <trkpt lat="46.66564" lon="7.27497">
        <ele>1052.3</ele>
        <time>2020-06-12T09:15:35.491Z</time>
      </trkpt>
      <trkpt lat="46.66563" lon="7.27492">
        <ele>1052.59</ele>
        <time>2020-06-12T09:15:43.081Z</time>
      </trkpt>
      <trkpt lat="46.66566" lon="7.27472">
        <ele>1053.37</ele>
        <time>2020-06-12T09:16:07.723Z</time>
      </trkpt>
      <trkpt lat="46.66552" lon="7.27463">
        <ele>1053.58</ele>
        <time>2020-06-12T09:16:24.644Z</time>
      </trkpt>
      <trkpt lat="46.66545" lon="7.27457">
        <ele>1053.81</ele>
        <time>2020-06-12T09:16:35.246Z</time>
      </trkpt>
      <trkpt lat="46.66539" lon="7.27452">
        <ele>1054.04</ele>
        <time>2020-06-12T09:16:44.858Z</time>
      </trkpt>
      <trkpt lat="46.66535" lon="7.27448">
        <ele>1054.18</ele>
        <time>2020-06-12T09:16:51.234Z</time>
      </trkpt>
      <trkpt lat="46.66523" lon="7.27438">
        <ele>1054.5</ele>
        <time>2020-06-12T09:17:08.195Z</time>
      </trkpt>
      <trkpt lat="46.66502" lon="7.2742">
        <ele>1054.61</ele>
        <time>2020-06-12T09:17:32.766Z</time>
      </trkpt>
      <trkpt lat="46.66479" lon="7.274">
        <ele>1054.75</ele>
        <time>2020-06-12T09:17:59.963Z</time>
      </trkpt>
      <trkpt lat="46.66424" lon="7.27352">
        <ele>1055.16</ele>
        <time>2020-06-12T09:19:05.803Z</time>
      </trkpt>
      <trkpt lat="46.66399" lon="7.27331">
        <ele>1055.59</ele>
        <time>2020-06-12T09:19:38.111Z</time>
      </trkpt>
      <trkpt lat="46.66391" lon="7.27324">
        <ele>1055.73</ele>
        <time>2020-06-12T09:19:48.570Z</time>
      </trkpt>
      <trkpt lat="46.66409" lon="7.2731">
        <ele>1056.27</ele>
        <time>2020-06-12T09:20:14.609Z</time>
      </trkpt>
      <trkpt lat="46.66418" lon="7.27305">
        <ele>1057.47</ele>
        <time>2020-06-12T09:20:46.455Z</time>
      </trkpt>
      <trkpt lat="46.66458" lon="7.27288">
        <ele>1063.54</ele>
        <time>2020-06-12T09:23:21.835Z</time>
      </trkpt>
      <trkpt lat="46.6647" lon="7.27283">
        <ele>1065.59</ele>
        <time>2020-06-12T09:24:08.378Z</time>
      </trkpt>
      <trkpt lat="46.6649" lon="7.27275">
        <ele>1069.21</ele>
        <time>2020-06-12T09:25:25.720Z</time>
      </trkpt>
      <trkpt lat="46.66516" lon="7.27263">
        <ele>1074.53</ele>
        <time>2020-06-12T09:27:07.424Z</time>
      </trkpt>
      <trkpt lat="46.6652" lon="7.27261">
        <ele>1076.45</ele>
        <time>2020-06-12T09:27:23.194Z</time>
      </trkpt>
      <trkpt lat="46.6652" lon="7.27262">
        <ele>1076.45</ele>
        <time>2020-06-12T09:27:23.858Z</time>
      </trkpt>
      <trkpt lat="46.66534" lon="7.27255">
        <ele>1078.38</ele>
        <time>2020-06-12T09:28:16.731Z</time>
      </trkpt>
      <trkpt lat="46.66554" lon="7.27247">
        <ele>1082.97</ele>
        <time>2020-06-12T09:29:34.072Z</time>
      </trkpt>
      <trkpt lat="46.66554" lon="7.27244">
        <ele>1083.05</ele>
        <time>2020-06-12T09:29:37.163Z</time>
      </trkpt>
      <trkpt lat="46.66554" lon="7.27242">
        <ele>1083.39</ele>
        <time>2020-06-12T09:29:42.281Z</time>
      </trkpt>
      <trkpt lat="46.66555" lon="7.27241">
        <ele>1083.93</ele>
        <time>2020-06-12T09:29:46.804Z</time>
      </trkpt>
      <trkpt lat="46.66558" lon="7.2724">
        <ele>1084.66</ele>
        <time>2020-06-12T09:29:58.280Z</time>
      </trkpt>
      <trkpt lat="46.6656" lon="7.27237">
        <ele>1085.17</ele>
        <time>2020-06-12T09:30:08.984Z</time>
      </trkpt>
      <trkpt lat="46.66562" lon="7.27235">
        <ele>1085.95</ele>
        <time>2020-06-12T09:30:18.029Z</time>
      </trkpt>
      <trkpt lat="46.66565" lon="7.27234">
        <ele>1086.5</ele>
        <time>2020-06-12T09:30:29.505Z</time>
      </trkpt>
      <trkpt lat="46.66567" lon="7.27233">
        <ele>1086.93</ele>
        <time>2020-06-12T09:30:37.391Z</time>
      </trkpt>
      <trkpt lat="46.6657" lon="7.2723">
        <ele>1087.99</ele>
        <time>2020-06-12T09:30:50.959Z</time>
      </trkpt>
      <trkpt lat="46.66575" lon="7.27227">
        <ele>1089.45</ele>
        <time>2020-06-12T09:31:11.123Z</time>
      </trkpt>
      <trkpt lat="46.6658" lon="7.27224">
        <ele>1091.06</ele>
        <time>2020-06-12T09:31:31.288Z</time>
      </trkpt>
      <trkpt lat="46.6658" lon="7.27224">
        <ele>1091.38</ele>
        <time>2020-06-12T09:31:31.288Z</time>
      </trkpt>
      <trkpt lat="46.66581" lon="7.27223">
        <ele>1091.76</ele>
        <time>2020-06-12T09:31:35.810Z</time>
      </trkpt>
      <trkpt lat="46.66586" lon="7.27217">
        <ele>1094.57</ele>
        <time>2020-06-12T09:31:59.965Z</time>
      </trkpt>
      <trkpt lat="46.66589" lon="7.27214">
        <ele>1095.73</ele>
        <time>2020-06-12T09:32:13.533Z</time>
      </trkpt>
      <trkpt lat="46.66592" lon="7.27214">
        <ele>1096.6</ele>
        <time>2020-06-12T09:32:24.720Z</time>
      </trkpt>
      <trkpt lat="46.66595" lon="7.27213">
        <ele>1097.39</ele>
        <time>2020-06-12T09:32:36.197Z</time>
      </trkpt>
      <trkpt lat="46.66602" lon="7.27208">
        <ele>1099.78</ele>
        <time>2020-06-12T09:33:05.268Z</time>
      </trkpt>
      <trkpt lat="46.66606" lon="7.27204">
        <ele>1101.84</ele>
        <time>2020-06-12T09:33:23.359Z</time>
      </trkpt>
      <trkpt lat="46.66615" lon="7.27196">
        <ele>1105.6</ele>
        <time>2020-06-12T09:34:02.672Z</time>
      </trkpt>
      <trkpt lat="46.66621" lon="7.27189">
        <ele>1108.46</ele>
        <time>2020-06-12T09:34:31.335Z</time>
      </trkpt>
      <trkpt lat="46.66625" lon="7.27185">
        <ele>1110.25</ele>
        <time>2020-06-12T09:34:49.426Z</time>
      </trkpt>
      <trkpt lat="46.6663" lon="7.27183">
        <ele>1111.96</ele>
        <time>2020-06-12T09:35:08.761Z</time>
      </trkpt>
      <trkpt lat="46.66634" lon="7.27182">
        <ele>1113.57</ele>
        <time>2020-06-12T09:35:23.896Z</time>
      </trkpt>
      <trkpt lat="46.6664" lon="7.27176">
        <ele>1116.23</ele>
        <time>2020-06-12T09:35:51.032Z</time>
      </trkpt>
      <trkpt lat="46.66644" lon="7.27161">
        <ele>1118.73</ele>
        <time>2020-06-12T09:36:32.215Z</time>
      </trkpt>
      <trkpt lat="46.66644" lon="7.27155">
        <ele>1120.53</ele>
        <time>2020-06-12T09:36:47.569Z</time>
      </trkpt>
      <trkpt lat="46.66645" lon="7.27149">
        <ele>1121.96</ele>
        <time>2020-06-12T09:37:03.370Z</time>
      </trkpt>
      <trkpt lat="46.66647" lon="7.27145">
        <ele>1123.22</ele>
        <time>2020-06-12T09:37:16.035Z</time>
      </trkpt>
      <trkpt lat="46.66653" lon="7.27141">
        <ele>1124.56</ele>
        <time>2020-06-12T09:37:40.641Z</time>
      </trkpt>
      <trkpt lat="46.66659" lon="7.27142">
        <ele>1126.03</ele>
        <time>2020-06-12T09:38:03.161Z</time>
      </trkpt>
      <trkpt lat="46.66671" lon="7.27149">
        <ele>1128.66</ele>
        <time>2020-06-12T09:38:51.363Z</time>
      </trkpt>
      <trkpt lat="46.66676" lon="7.2715">
        <ele>1129.44</ele>
        <time>2020-06-12T09:39:10.183Z</time>
      </trkpt>
      <trkpt lat="46.66684" lon="7.27155">
        <ele>1130.67</ele>
        <time>2020-06-12T09:39:42.645Z</time>
      </trkpt>
      <trkpt lat="46.66687" lon="7.27159">
        <ele>1130.97</ele>
        <time>2020-06-12T09:39:50.787Z</time>
      </trkpt>
      <trkpt lat="46.66692" lon="7.27167">
        <ele>1132.19</ele>
        <time>2020-06-12T09:40:18.478Z</time>
      </trkpt>
      <trkpt lat="46.66697" lon="7.27176">
        <ele>1134.23</ele>
        <time>2020-06-12T09:40:48.111Z</time>
      </trkpt>
      <trkpt lat="46.66699" lon="7.27187">
        <ele>1134.92</ele>
        <time>2020-06-12T09:41:05.744Z</time>
      </trkpt>
      <trkpt lat="46.66703" lon="7.27191">
        <ele>1135.1</ele>
        <time>2020-06-12T09:41:12.849Z</time>
      </trkpt>
      <trkpt lat="46.66707" lon="7.2719">
        <ele>1136.12</ele>
        <time>2020-06-12T09:41:27.984Z</time>
      </trkpt>
      <trkpt lat="46.66708" lon="7.27188">
        <ele>1137.11</ele>
        <time>2020-06-12T09:41:34.316Z</time>
      </trkpt>
      <trkpt lat="46.66708" lon="7.27179">
        <ele>1138.78</ele>
        <time>2020-06-12T09:41:57.348Z</time>
      </trkpt>
      <trkpt lat="46.66709" lon="7.27174">
        <ele>1139.96</ele>
        <time>2020-06-12T09:42:10.675Z</time>
      </trkpt>
      <trkpt lat="46.6671" lon="7.27171">
        <ele>1140.81</ele>
        <time>2020-06-12T09:42:19.210Z</time>
      </trkpt>
      <trkpt lat="46.66713" lon="7.27171">
        <ele>1141.98</ele>
        <time>2020-06-12T09:42:30.398Z</time>
      </trkpt>
      <trkpt lat="46.66715" lon="7.27169">
        <ele>1142.95</ele>
        <time>2020-06-12T09:42:39.443Z</time>
      </trkpt>
      <trkpt lat="46.66719" lon="7.27165">
        <ele>1145.12</ele>
        <time>2020-06-12T09:42:57.534Z</time>
      </trkpt>
      <trkpt lat="46.6672" lon="7.27166">
        <ele>1145.43</ele>
        <time>2020-06-12T09:43:02.057Z</time>
      </trkpt>
      <trkpt lat="46.66722" lon="7.27168">
        <ele>1145.8</ele>
        <time>2020-06-12T09:43:11.102Z</time>
      </trkpt>
      <trkpt lat="46.66728" lon="7.27168">
        <ele>1148.04</ele>
        <time>2020-06-12T09:43:33.477Z</time>
      </trkpt>
      <trkpt lat="46.66731" lon="7.27168">
        <ele>1149.06</ele>
        <time>2020-06-12T09:43:44.665Z</time>
      </trkpt>
      <trkpt lat="46.66735" lon="7.27169">
        <ele>1149.63</ele>
        <time>2020-06-12T09:43:59.799Z</time>
      </trkpt>
      <trkpt lat="46.66739" lon="7.27168">
        <ele>1150.85</ele>
        <time>2020-06-12T09:44:14.933Z</time>
      </trkpt>
      <trkpt lat="46.6674" lon="7.27167">
        <ele>1150.94</ele>
        <time>2020-06-12T09:44:17.370Z</time>
      </trkpt>
      <trkpt lat="46.66735" lon="7.27159">
        <ele>1151.1</ele>
        <time>2020-06-12T09:44:26.315Z</time>
      </trkpt>
      <trkpt lat="46.66733" lon="7.27152">
        <ele>1150.95</ele>
        <time>2020-06-12T09:44:27.764Z</time>
      </trkpt>
      <trkpt lat="46.6673" lon="7.27144">
        <ele>1152.04</ele>
        <time>2020-06-12T09:44:51.094Z</time>
      </trkpt>
      <trkpt lat="46.66728" lon="7.27135">
        <ele>1152.43</ele>
        <time>2020-06-12T09:45:02.844Z</time>
      </trkpt>
      <trkpt lat="46.66726" lon="7.27118">
        <ele>1157.11</ele>
        <time>2020-06-12T09:45:46.983Z</time>
      </trkpt>
      <trkpt lat="46.66726" lon="7.27109">
        <ele>1158.94</ele>
        <time>2020-06-12T09:46:10.014Z</time>
      </trkpt>
      <trkpt lat="46.66728" lon="7.27101">
        <ele>1162.34</ele>
        <time>2020-06-12T09:46:31.803Z</time>
      </trkpt>
      <trkpt lat="46.66728" lon="7.271">
        <ele>1162.78</ele>
        <time>2020-06-12T09:46:34.362Z</time>
      </trkpt>
      <trkpt lat="46.6673" lon="7.27096">
        <ele>1164.99</ele>
        <time>2020-06-12T09:46:47.027Z</time>
      </trkpt>
      <trkpt lat="46.66737" lon="7.27092">
        <ele>1168.61</ele>
        <time>2020-06-12T09:47:15.066Z</time>
      </trkpt>
      <trkpt lat="46.66742" lon="7.27087">
        <ele>1171.68</ele>
        <time>2020-06-12T09:47:37.680Z</time>
      </trkpt>
      <trkpt lat="46.66743" lon="7.27086">
        <ele>1172.07</ele>
        <time>2020-06-12T09:47:42.203Z</time>
      </trkpt>
      <trkpt lat="46.66743" lon="7.27083">
        <ele>1172.88</ele>
        <time>2020-06-12T09:47:49.880Z</time>
      </trkpt>
      <trkpt lat="46.66742" lon="7.2708">
        <ele>1173.67</ele>
        <time>2020-06-12T09:47:58.415Z</time>
      </trkpt>
      <trkpt lat="46.66741" lon="7.27078">
        <ele>1174.08</ele>
        <time>2020-06-12T09:48:04.747Z</time>
      </trkpt>
      <trkpt lat="46.66738" lon="7.27073">
        <ele>1174.07</ele>
        <time>2020-06-12T09:48:09.010Z</time>
      </trkpt>
      <trkpt lat="46.66736" lon="7.27068">
        <ele>1174.63</ele>
        <time>2020-06-12T09:48:23.821Z</time>
      </trkpt>
      <trkpt lat="46.66736" lon="7.27065">
        <ele>1175.41</ele>
        <time>2020-06-12T09:48:31.498Z</time>
      </trkpt>
      <trkpt lat="46.66732" lon="7.27056">
        <ele>1177.75</ele>
        <time>2020-06-12T09:48:58.938Z</time>
      </trkpt>
      <trkpt lat="46.66732" lon="7.27053">
        <ele>1178.1</ele>
        <time>2020-06-12T09:49:06.615Z</time>
      </trkpt>
      <trkpt lat="46.66731" lon="7.27051">
        <ele>1178.44</ele>
        <time>2020-06-12T09:49:12.947Z</time>
      </trkpt>
      <trkpt lat="46.66731" lon="7.27045">
        <ele>1180.36</ele>
        <time>2020-06-12T09:49:28.302Z</time>
      </trkpt>
      <trkpt lat="46.66733" lon="7.27043">
        <ele>1180.77</ele>
        <time>2020-06-12T09:49:37.347Z</time>
      </trkpt>
      <trkpt lat="46.66734" lon="7.2704">
        <ele>1181.41</ele>
        <time>2020-06-12T09:49:45.882Z</time>
      </trkpt>
      <trkpt lat="46.66735" lon="7.27039">
        <ele>1181.95</ele>
        <time>2020-06-12T09:49:50.405Z</time>
      </trkpt>
      <trkpt lat="46.66739" lon="7.27035">
        <ele>1182.84</ele>
        <time>2020-06-12T09:50:08.496Z</time>
      </trkpt>
      <trkpt lat="46.6674" lon="7.27035">
        <ele>1183.16</ele>
        <time>2020-06-12T09:50:12.225Z</time>
      </trkpt>
      <trkpt lat="46.66743" lon="7.2703">
        <ele>1184.29</ele>
        <time>2020-06-12T09:50:29.221Z</time>
      </trkpt>
      <trkpt lat="46.66743" lon="7.27027">
        <ele>1184.99</ele>
        <time>2020-06-12T09:50:36.898Z</time>
      </trkpt>
      <trkpt lat="46.66743" lon="7.27025">
        <ele>1185.46</ele>
        <time>2020-06-12T09:50:42.016Z</time>
      </trkpt>
      <trkpt lat="46.6674" lon="7.27017">
        <ele>1186.43</ele>
        <time>2020-06-12T09:51:05.346Z</time>
      </trkpt>
      <trkpt lat="46.66739" lon="7.27013">
        <ele>1186.26</ele>
        <time>2020-06-12T09:51:05.966Z</time>
      </trkpt>
      <trkpt lat="46.66739" lon="7.27011">
        <ele>1186.42</ele>
        <time>2020-06-12T09:51:10.082Z</time>
      </trkpt>
      <trkpt lat="46.66739" lon="7.27011">
        <ele>1186.55</ele>
        <time>2020-06-12T09:51:10.082Z</time>
      </trkpt>
      <trkpt lat="46.66739" lon="7.27006">
        <ele>1187.89</ele>
        <time>2020-06-12T09:51:22.877Z</time>
      </trkpt>
      <trkpt lat="46.66739" lon="7.27005">
        <ele>1188.15</ele>
        <time>2020-06-12T09:51:25.436Z</time>
      </trkpt>
      <trkpt lat="46.66741" lon="7.27004">
        <ele>1189.3</ele>
        <time>2020-06-12T09:51:33.321Z</time>
      </trkpt>
      <trkpt lat="46.66742" lon="7.27003">
        <ele>1189.88</ele>
        <time>2020-06-12T09:51:37.844Z</time>
      </trkpt>
      <trkpt lat="46.66748" lon="7.26998">
        <ele>1192.84</ele>
        <time>2020-06-12T09:52:03.619Z</time>
      </trkpt>
      <trkpt lat="46.66749" lon="7.26992">
        <ele>1195.29</ele>
        <time>2020-06-12T09:52:19.420Z</time>
      </trkpt>
      <trkpt lat="46.66748" lon="7.26985">
        <ele>1197.19</ele>
        <time>2020-06-12T09:52:37.717Z</time>
      </trkpt>
      <trkpt lat="46.66748" lon="7.26983">
        <ele>1197.11</ele>
        <time>2020-06-12T09:52:38.008Z</time>
      </trkpt>
      <trkpt lat="46.66747" lon="7.26982">
        <ele>1197.48</ele>
        <time>2020-06-12T09:52:42.531Z</time>
      </trkpt>
      <trkpt lat="46.66747" lon="7.26975">
        <ele>1198.31</ele>
        <time>2020-06-12T09:53:00.444Z</time>
      </trkpt>
      <trkpt lat="46.66747" lon="7.26968">
        <ele>1199.61</ele>
        <time>2020-06-12T09:53:18.357Z</time>
      </trkpt>
      <trkpt lat="46.66746" lon="7.2695">
        <ele>1203.8</ele>
        <time>2020-06-12T09:54:04.571Z</time>
      </trkpt>
      <trkpt lat="46.66746" lon="7.26948">
        <ele>1205.8</ele>
        <time>2020-06-12T09:54:09.689Z</time>
      </trkpt>
      <trkpt lat="46.66746" lon="7.26946">
        <ele>1205.17</ele>
        <time>2020-06-12T09:54:09.987Z</time>
      </trkpt>
      <trkpt lat="46.66747" lon="7.26937">
        <ele>1208.61</ele>
        <time>2020-06-12T09:54:33.318Z</time>
      </trkpt>
      <trkpt lat="46.66747" lon="7.26936">
        <ele>1208.67</ele>
        <time>2020-06-12T09:54:34.855Z</time>
      </trkpt>
      <trkpt lat="46.66747" lon="7.2693">
        <ele>1210.88</ele>
        <time>2020-06-12T09:54:50.209Z</time>
      </trkpt>
      <trkpt lat="46.66747" lon="7.26921">
        <ele>1213.32</ele>
        <time>2020-06-12T09:55:13.241Z</time>
      </trkpt>
      <trkpt lat="46.66748" lon="7.26911">
        <ele>1215.66</ele>
        <time>2020-06-12T09:55:39.101Z</time>
      </trkpt>
      <trkpt lat="46.66748" lon="7.2691">
        <ele>1215.77</ele>
        <time>2020-06-12T09:55:41.660Z</time>
      </trkpt>
      <trkpt lat="46.66738" lon="7.269">
        <ele>1217.75</ele>
        <time>2020-06-12T09:56:26.888Z</time>
      </trkpt>
      <trkpt lat="46.66733" lon="7.26893">
        <ele>1218.73</ele>
        <time>2020-06-12T09:56:52.744Z</time>
      </trkpt>
      <trkpt lat="46.6673" lon="7.26887">
        <ele>1219.26</ele>
        <time>2020-06-12T09:57:06.077Z</time>
      </trkpt>
      <trkpt lat="46.66725" lon="7.26875">
        <ele>1220.23</ele>
        <time>2020-06-12T09:57:30.461Z</time>
      </trkpt>
      <trkpt lat="46.66717" lon="7.26862">
        <ele>1222.52</ele>
        <time>2020-06-12T09:58:15.146Z</time>
      </trkpt>
      <trkpt lat="46.66715" lon="7.26857">
        <ele>1223.74</ele>
        <time>2020-06-12T09:58:29.956Z</time>
      </trkpt>
      <trkpt lat="46.66715" lon="7.26851">
        <ele>1225.08</ele>
        <time>2020-06-12T09:58:45.311Z</time>
      </trkpt>
      <trkpt lat="46.66716" lon="7.26848">
        <ele>1225.78</ele>
        <time>2020-06-12T09:58:53.846Z</time>
      </trkpt>
      <trkpt lat="46.66718" lon="7.26845">
        <ele>1226.53</ele>
        <time>2020-06-12T09:59:04.549Z</time>
      </trkpt>
      <trkpt lat="46.66721" lon="7.26843">
        <ele>1227.23</ele>
        <time>2020-06-12T09:59:16.852Z</time>
      </trkpt>
      <trkpt lat="46.66726" lon="7.26839">
        <ele>1229.07</ele>
        <time>2020-06-12T09:59:38.122Z</time>
      </trkpt>
      <trkpt lat="46.66729" lon="7.26838">
        <ele>1230.1</ele>
        <time>2020-06-12T09:59:49.598Z</time>
      </trkpt>
      <trkpt lat="46.66735" lon="7.26838">
        <ele>1231.42</ele>
        <time>2020-06-12T10:00:11.973Z</time>
      </trkpt>
      <trkpt lat="46.66739" lon="7.26837">
        <ele>1232.11</ele>
        <time>2020-06-12T10:00:27.108Z</time>
      </trkpt>
      <trkpt lat="46.6674" lon="7.26835">
        <ele>1232.81</ele>
        <time>2020-06-12T10:00:33.440Z</time>
      </trkpt>
      <trkpt lat="46.6674" lon="7.26831">
        <ele>1233.49</ele>
        <time>2020-06-12T10:00:43.676Z</time>
      </trkpt>
      <trkpt lat="46.66735" lon="7.26823">
        <ele>1235.52</ele>
        <time>2020-06-12T10:01:11.367Z</time>
      </trkpt>
      <trkpt lat="46.66733" lon="7.26819">
        <ele>1236.18</ele>
        <time>2020-06-12T10:01:24.032Z</time>
      </trkpt>
      <trkpt lat="46.6673" lon="7.26811">
        <ele>1237.95</ele>
        <time>2020-06-12T10:01:47.362Z</time>
      </trkpt>
      <trkpt lat="46.66727" lon="7.26798">
        <ele>1240.99</ele>
        <time>2020-06-12T10:02:22.460Z</time>
      </trkpt>
      <trkpt lat="46.66723" lon="7.26784">
        <ele>1243.84</ele>
        <time>2020-06-12T10:03:01.268Z</time>
      </trkpt>
      <trkpt lat="46.66713" lon="7.26746">
        <ele>1253.44</ele>
        <time>2020-06-12T10:04:45.417Z</time>
      </trkpt>
      <trkpt lat="46.66711" lon="7.26741">
        <ele>1254.45</ele>
        <time>2020-06-12T10:05:00.228Z</time>
      </trkpt>
      <trkpt lat="46.6671" lon="7.26739">
        <ele>1255.2</ele>
        <time>2020-06-12T10:05:06.560Z</time>
      </trkpt>
      <trkpt lat="46.66705" lon="7.26734">
        <ele>1256.47</ele>
        <time>2020-06-12T10:05:29.174Z</time>
      </trkpt>
      <trkpt lat="46.66691" lon="7.26731">
        <ele>1259.82</ele>
        <time>2020-06-12T10:06:21.943Z</time>
      </trkpt>
      <trkpt lat="46.66687" lon="7.26727">
        <ele>1261.7</ele>
        <time>2020-06-12T10:06:40.034Z</time>
      </trkpt>
      <trkpt lat="46.66684" lon="7.26722">
        <ele>1263.11</ele>
        <time>2020-06-12T10:06:57.031Z</time>
      </trkpt>
      <trkpt lat="46.66681" lon="7.26715">
        <ele>1264.66</ele>
        <time>2020-06-12T10:07:18.150Z</time>
      </trkpt>
      <trkpt lat="46.66679" lon="7.26707">
        <ele>1265.65</ele>
        <time>2020-06-12T10:07:39.939Z</time>
      </trkpt>
      <trkpt lat="46.66678" lon="7.26702">
        <ele>1265.97</ele>
        <time>2020-06-12T10:07:48.093Z</time>
      </trkpt>
      <trkpt lat="46.66678" lon="7.26684">
        <ele>1265.66</ele>
        <time>2020-06-12T10:07:51.677Z</time>
      </trkpt>
      <trkpt lat="46.66678" lon="7.26684">
        <ele>1265.66</ele>
        <time>2020-06-12T10:07:51.677Z</time>
      </trkpt>
      <trkpt lat="46.66678" lon="7.26682">
        <ele>1265.36</ele>
        <time>2020-06-12T10:07:51.975Z</time>
      </trkpt>
      <trkpt lat="46.66677" lon="7.26675">
        <ele>1265.4</ele>
        <time>2020-06-12T10:07:57.101Z</time>
      </trkpt>
      <trkpt lat="46.66677" lon="7.26664">
        <ele>1266.1</ele>
        <time>2020-06-12T10:08:14.825Z</time>
      </trkpt>
      <trkpt lat="46.66676" lon="7.26658">
        <ele>1267.07</ele>
        <time>2020-06-12T10:08:30.626Z</time>
      </trkpt>
      <trkpt lat="46.66675" lon="7.26652">
        <ele>1267.18</ele>
        <time>2020-06-12T10:08:36.000Z</time>
      </trkpt>
      <trkpt lat="46.66676" lon="7.26647">
        <ele>1267.35</ele>
        <time>2020-06-12T10:08:41.947Z</time>
      </trkpt>
      <trkpt lat="46.66677" lon="7.26641">
        <ele>1267.45</ele>
        <time>2020-06-12T10:08:47.174Z</time>
      </trkpt>
      <trkpt lat="46.66678" lon="7.26633">
        <ele>1267.94</ele>
        <time>2020-06-12T10:08:59.714Z</time>
      </trkpt>
      <trkpt lat="46.66679" lon="7.26627">
        <ele>1268.38</ele>
        <time>2020-06-12T10:09:10.781Z</time>
      </trkpt>
      <trkpt lat="46.66678" lon="7.2662">
        <ele>1268.65</ele>
        <time>2020-06-12T10:09:19.359Z</time>
      </trkpt>
      <trkpt lat="46.66676" lon="7.2661">
        <ele>1269.25</ele>
        <time>2020-06-12T10:09:34.898Z</time>
      </trkpt>
      <trkpt lat="46.66672" lon="7.26597">
        <ele>1270.43</ele>
        <time>2020-06-12T10:10:05.687Z</time>
      </trkpt>
      <trkpt lat="46.66668" lon="7.26588">
        <ele>1269.68</ele>
        <time>2020-06-12T10:10:07.283Z</time>
      </trkpt>
      <trkpt lat="46.66663" lon="7.2658">
        <ele>1269.71</ele>
        <time>2020-06-12T10:10:14.738Z</time>
      </trkpt>
      <trkpt lat="46.66657" lon="7.26571">
        <ele>1269.98</ele>
        <time>2020-06-12T10:10:26.418Z</time>
      </trkpt>
      <trkpt lat="46.66652" lon="7.26564">
        <ele>1271.35</ele>
        <time>2020-06-12T10:10:52.274Z</time>
      </trkpt>
      <trkpt lat="46.66649" lon="7.2656">
        <ele>1272</ele>
        <time>2020-06-12T10:11:07.438Z</time>
      </trkpt>
      <trkpt lat="46.66644" lon="7.26551">
        <ele>1273.6</ele>
        <time>2020-06-12T10:11:37.071Z</time>
      </trkpt>
      <trkpt lat="46.66641" lon="7.26544">
        <ele>1275.08</ele>
        <time>2020-06-12T10:11:58.191Z</time>
      </trkpt>
      <trkpt lat="46.66638" lon="7.2654">
        <ele>1276.19</ele>
        <time>2020-06-12T10:12:13.355Z</time>
      </trkpt>
      <trkpt lat="46.66636" lon="7.26536">
        <ele>1277.56</ele>
        <time>2020-06-12T10:12:26.020Z</time>
      </trkpt>
      <trkpt lat="46.66634" lon="7.26534">
        <ele>1278.42</ele>
        <time>2020-06-12T10:12:35.066Z</time>
      </trkpt>
      <trkpt lat="46.66632" lon="7.26533">
        <ele>1278.96</ele>
        <time>2020-06-12T10:12:42.951Z</time>
      </trkpt>
      <trkpt lat="46.66628" lon="7.26528">
        <ele>1281.01</ele>
        <time>2020-06-12T10:13:02.604Z</time>
      </trkpt>
      <trkpt lat="46.66624" lon="7.26522">
        <ele>1282.92</ele>
        <time>2020-06-12T10:13:24.011Z</time>
      </trkpt>
      <trkpt lat="46.66622" lon="7.26518">
        <ele>1283.76</ele>
        <time>2020-06-12T10:13:36.676Z</time>
      </trkpt>
      <trkpt lat="46.66623" lon="7.26515">
        <ele>1285.39</ele>
        <time>2020-06-12T10:13:45.211Z</time>
      </trkpt>
      <trkpt lat="46.66619" lon="7.26509">
        <ele>1286.25</ele>
        <time>2020-06-12T10:14:06.618Z</time>
      </trkpt>
      <trkpt lat="46.66618" lon="7.26505">
        <ele>1286.92</ele>
        <time>2020-06-12T10:14:17.513Z</time>
      </trkpt>
      <trkpt lat="46.66619" lon="7.26503">
        <ele>1287.4</ele>
        <time>2020-06-12T10:14:23.845Z</time>
      </trkpt>
      <trkpt lat="46.66617" lon="7.265">
        <ele>1288.72</ele>
        <time>2020-06-12T10:14:34.549Z</time>
      </trkpt>
      <trkpt lat="46.66616" lon="7.26496">
        <ele>1289.75</ele>
        <time>2020-06-12T10:14:45.444Z</time>
      </trkpt>
      <trkpt lat="46.66614" lon="7.26494">
        <ele>1291.81</ele>
        <time>2020-06-12T10:14:54.489Z</time>
      </trkpt>
      <trkpt lat="46.66612" lon="7.26489">
        <ele>1292.67</ele>
        <time>2020-06-12T10:15:09.300Z</time>
      </trkpt>
      <trkpt lat="46.6661" lon="7.26483">
        <ele>1294.3</ele>
        <time>2020-06-12T10:15:26.370Z</time>
      </trkpt>
      <trkpt lat="46.66612" lon="7.26482">
        <ele>1295.26</ele>
        <time>2020-06-12T10:15:34.255Z</time>
      </trkpt>
      <trkpt lat="46.66611" lon="7.26479">
        <ele>1295.26</ele>
        <time>2020-06-12T10:15:36.468Z</time>
      </trkpt>
      <trkpt lat="46.66609" lon="7.26478">
        <ele>1294.87</ele>
        <time>2020-06-12T10:15:36.926Z</time>
      </trkpt>
      <trkpt lat="46.66614" lon="7.26475">
        <ele>1295.93</ele>
        <time>2020-06-12T10:15:57.091Z</time>
      </trkpt>
      <trkpt lat="46.66617" lon="7.26469">
        <ele>1296.69</ele>
        <time>2020-06-12T10:16:16.088Z</time>
      </trkpt>
      <trkpt lat="46.6662" lon="7.26462">
        <ele>1298.23</ele>
        <time>2020-06-12T10:16:37.209Z</time>
      </trkpt>
      <trkpt lat="46.6662" lon="7.26458">
        <ele>1298.52</ele>
        <time>2020-06-12T10:16:44.512Z</time>
      </trkpt>
      <trkpt lat="46.66621" lon="7.26454">
        <ele>1298.8</ele>
        <time>2020-06-12T10:16:51.571Z</time>
      </trkpt>
      <trkpt lat="46.66623" lon="7.26446">
        <ele>1299.86</ele>
        <time>2020-06-12T10:17:13.360Z</time>
      </trkpt>
      <trkpt lat="46.66623" lon="7.26438">
        <ele>1303.02</ele>
        <time>2020-06-12T10:17:33.833Z</time>
      </trkpt>
      <trkpt lat="46.66625" lon="7.26422">
        <ele>1304.55</ele>
        <time>2020-06-12T10:18:15.452Z</time>
      </trkpt>
      <trkpt lat="46.66625" lon="7.26414">
        <ele>1305.99</ele>
        <time>2020-06-12T10:18:35.925Z</time>
      </trkpt>
      <trkpt lat="46.66627" lon="7.2641">
        <ele>1305.52</ele>
        <time>2020-06-12T10:18:36.662Z</time>
      </trkpt>
      <trkpt lat="46.66628" lon="7.26399">
        <ele>1307.02</ele>
        <time>2020-06-12T10:19:05.058Z</time>
      </trkpt>
      <trkpt lat="46.6663" lon="7.26393">
        <ele>1307.78</ele>
        <time>2020-06-12T10:19:22.128Z</time>
      </trkpt>
      <trkpt lat="46.66632" lon="7.26382">
        <ele>1307.98</ele>
        <time>2020-06-12T10:19:31.992Z</time>
      </trkpt>
      <trkpt lat="46.66634" lon="7.26375">
        <ele>1308.36</ele>
        <time>2020-06-12T10:19:42.351Z</time>
      </trkpt>
      <trkpt lat="46.66637" lon="7.26364">
        <ele>1309.78</ele>
        <time>2020-06-12T10:20:12.643Z</time>
      </trkpt>
      <trkpt lat="46.66641" lon="7.26356">
        <ele>1310.7</ele>
        <time>2020-06-12T10:20:37.973Z</time>
      </trkpt>
      <trkpt lat="46.66645" lon="7.26349">
        <ele>1311.58</ele>
        <time>2020-06-12T10:21:01.284Z</time>
      </trkpt>
      <trkpt lat="46.66649" lon="7.2634">
        <ele>1312.3</ele>
        <time>2020-06-12T10:21:19.405Z</time>
      </trkpt>
      <trkpt lat="46.66656" lon="7.26332">
        <ele>1313.23</ele>
        <time>2020-06-12T10:21:42.807Z</time>
      </trkpt>
      <trkpt lat="46.6666" lon="7.26328">
        <ele>1313.74</ele>
        <time>2020-06-12T10:21:55.645Z</time>
      </trkpt>
      <trkpt lat="46.66662" lon="7.26321">
        <ele>1313.82</ele>
        <time>2020-06-12T10:22:01.500Z</time>
      </trkpt>
      <trkpt lat="46.66665" lon="7.26309">
        <ele>1314.17</ele>
        <time>2020-06-12T10:22:14.861Z</time>
      </trkpt>
      <trkpt lat="46.6667" lon="7.26296">
        <ele>1314.51</ele>
        <time>2020-06-12T10:22:29.078Z</time>
      </trkpt>
      <trkpt lat="46.66675" lon="7.26286">
        <ele>1314.87</ele>
        <time>2020-06-12T10:22:42.499Z</time>
      </trkpt>
      <trkpt lat="46.66678" lon="7.26277">
        <ele>1315.22</ele>
        <time>2020-06-12T10:22:54.181Z</time>
      </trkpt>
      <trkpt lat="46.66682" lon="7.26262">
        <ele>1316.33</ele>
        <time>2020-06-12T10:23:22.085Z</time>
      </trkpt>
      <trkpt lat="46.66687" lon="7.26246">
        <ele>1317.08</ele>
        <time>2020-06-12T10:23:44.247Z</time>
      </trkpt>
      <trkpt lat="46.66692" lon="7.26228">
        <ele>1317.77</ele>
        <time>2020-06-12T10:24:07.041Z</time>
      </trkpt>
      <trkpt lat="46.66707" lon="7.26196">
        <ele>1319.18</ele>
        <time>2020-06-12T10:24:52.906Z</time>
      </trkpt>
      <trkpt lat="46.66715" lon="7.26169">
        <ele>1321.79</ele>
        <time>2020-06-12T10:26:03.947Z</time>
      </trkpt>
      <trkpt lat="46.6672" lon="7.26159">
        <ele>1322.69</ele>
        <time>2020-06-12T10:26:26.619Z</time>
      </trkpt>
      <trkpt lat="46.66725" lon="7.26152">
        <ele>1323.03</ele>
        <time>2020-06-12T10:26:38.267Z</time>
      </trkpt>
      <trkpt lat="46.6673" lon="7.26144">
        <ele>1323.14</ele>
        <time>2020-06-12T10:26:46.573Z</time>
      </trkpt>
      <trkpt lat="46.66741" lon="7.26118">
        <ele>1325.31</ele>
        <time>2020-06-12T10:27:41.148Z</time>
      </trkpt>
      <trkpt lat="46.66749" lon="7.26108">
        <ele>1326.37</ele>
        <time>2020-06-12T10:28:07.795Z</time>
      </trkpt>
      <trkpt lat="46.66758" lon="7.26091">
        <ele>1327.21</ele>
        <time>2020-06-12T10:28:33.903Z</time>
      </trkpt>
      <trkpt lat="46.66763" lon="7.26076">
        <ele>1327.78</ele>
        <time>2020-06-12T10:28:53.224Z</time>
      </trkpt>
      <trkpt lat="46.66767" lon="7.26061">
        <ele>1328</ele>
        <time>2020-06-12T10:29:06.284Z</time>
      </trkpt>
      <trkpt lat="46.66773" lon="7.26043">
        <ele>1328.55</ele>
        <time>2020-06-12T10:29:27.254Z</time>
      </trkpt>
      <trkpt lat="46.66775" lon="7.26038">
        <ele>1329.01</ele>
        <time>2020-06-12T10:29:39.059Z</time>
      </trkpt>
      <trkpt lat="46.66775" lon="7.26038">
        <ele>1329.01</ele>
        <time>2020-06-12T10:29:39.059Z</time>
      </trkpt>
      <trkpt lat="46.66778" lon="7.26031">
        <ele>1329.47</ele>
        <time>2020-06-12T10:29:51.096Z</time>
      </trkpt>
      <trkpt lat="46.66782" lon="7.2602">
        <ele>1330.21</ele>
        <time>2020-06-12T10:30:10.097Z</time>
      </trkpt>
      <trkpt lat="46.66787" lon="7.2601">
        <ele>1331.52</ele>
        <time>2020-06-12T10:30:41.760Z</time>
      </trkpt>
      <trkpt lat="46.66792" lon="7.26001">
        <ele>1333.36</ele>
        <time>2020-06-12T10:31:11.392Z</time>
      </trkpt>
      <trkpt lat="46.66793" lon="7.25995">
        <ele>1334.2</ele>
        <time>2020-06-12T10:31:27.193Z</time>
      </trkpt>
      <trkpt lat="46.66793" lon="7.2599">
        <ele>1334.92</ele>
        <time>2020-06-12T10:31:39.988Z</time>
      </trkpt>
      <trkpt lat="46.66792" lon="7.25986">
        <ele>1335.42</ele>
        <time>2020-06-12T10:31:50.882Z</time>
      </trkpt>
      <trkpt lat="46.66792" lon="7.25979">
        <ele>1335.95</ele>
        <time>2020-06-12T10:32:04.312Z</time>
      </trkpt>
      <trkpt lat="46.66797" lon="7.25971">
        <ele>1337.14</ele>
        <time>2020-06-12T10:32:32.002Z</time>
      </trkpt>
      <trkpt lat="46.668" lon="7.25964">
        <ele>1337.55</ele>
        <time>2020-06-12T10:32:43.223Z</time>
      </trkpt>
      <trkpt lat="46.66801" lon="7.25958">
        <ele>1337.97</ele>
        <time>2020-06-12T10:32:53.786Z</time>
      </trkpt>
      <trkpt lat="46.66806" lon="7.25951">
        <ele>1338.59</ele>
        <time>2020-06-12T10:33:09.589Z</time>
      </trkpt>
      <trkpt lat="46.66807" lon="7.25944">
        <ele>1339.27</ele>
        <time>2020-06-12T10:33:27.886Z</time>
      </trkpt>
      <trkpt lat="46.66809" lon="7.25939">
        <ele>1339.71</ele>
        <time>2020-06-12T10:33:39.044Z</time>
      </trkpt>
      <trkpt lat="46.66814" lon="7.25929">
        <ele>1340.63</ele>
        <time>2020-06-12T10:34:02.283Z</time>
      </trkpt>
      <trkpt lat="46.66821" lon="7.25918">
        <ele>1341.63</ele>
        <time>2020-06-12T10:34:27.463Z</time>
      </trkpt>
      <trkpt lat="46.66827" lon="7.2591">
        <ele>1342.84</ele>
        <time>2020-06-12T10:34:57.790Z</time>
      </trkpt>
      <trkpt lat="46.66837" lon="7.25892">
        <ele>1345.02</ele>
        <time>2020-06-12T10:35:57.056Z</time>
      </trkpt>
      <trkpt lat="46.6684" lon="7.25886">
        <ele>1346</ele>
        <time>2020-06-12T10:36:16.053Z</time>
      </trkpt>
      <trkpt lat="46.66842" lon="7.25875">
        <ele>1347.11</ele>
        <time>2020-06-12T10:36:45.173Z</time>
      </trkpt>
      <trkpt lat="46.66848" lon="7.25868">
        <ele>1348.84</ele>
        <time>2020-06-12T10:37:13.835Z</time>
      </trkpt>
      <trkpt lat="46.66857" lon="7.25857">
        <ele>1351.44</ele>
        <time>2020-06-12T10:37:57.639Z</time>
      </trkpt>
      <trkpt lat="46.66863" lon="7.25849">
        <ele>1352.72</ele>
        <time>2020-06-12T10:38:27.966Z</time>
      </trkpt>
      <trkpt lat="46.6687" lon="7.25841">
        <ele>1354.45</ele>
        <time>2020-06-12T10:39:01.140Z</time>
      </trkpt>
      <trkpt lat="46.66874" lon="7.25832">
        <ele>1355.7</ele>
        <time>2020-06-12T10:39:28.579Z</time>
      </trkpt>
      <trkpt lat="46.66884" lon="7.25804">
        <ele>1358.83</ele>
        <time>2020-06-12T10:40:49.354Z</time>
      </trkpt>
      <trkpt lat="46.66888" lon="7.25796">
        <ele>1360.58</ele>
        <time>2020-06-12T10:41:14.684Z</time>
      </trkpt>
      <trkpt lat="46.66888" lon="7.2579">
        <ele>1360.39</ele>
        <time>2020-06-12T10:41:15.653Z</time>
      </trkpt>
      <trkpt lat="46.66892" lon="7.25785">
        <ele>1361.35</ele>
        <time>2020-06-12T10:41:35.305Z</time>
      </trkpt>
      <trkpt lat="46.66894" lon="7.25784">
        <ele>1362.32</ele>
        <time>2020-06-12T10:41:43.190Z</time>
      </trkpt>
      <trkpt lat="46.66895" lon="7.25782">
        <ele>1362.86</ele>
        <time>2020-06-12T10:41:49.522Z</time>
      </trkpt>
      <trkpt lat="46.66897" lon="7.25782">
        <ele>1363.85</ele>
        <time>2020-06-12T10:41:56.981Z</time>
      </trkpt>
      <trkpt lat="46.66898" lon="7.2578">
        <ele>1364.1</ele>
        <time>2020-06-12T10:42:03.313Z</time>
      </trkpt>
      <trkpt lat="46.66898" lon="7.25775">
        <ele>1364.18</ele>
        <time>2020-06-12T10:42:07.531Z</time>
      </trkpt>
      <trkpt lat="46.669" lon="7.25772">
        <ele>1364.43</ele>
        <time>2020-06-12T10:42:13.942Z</time>
      </trkpt>
      <trkpt lat="46.66901" lon="7.2577">
        <ele>1364.8</ele>
        <time>2020-06-12T10:42:20.274Z</time>
      </trkpt>
      <trkpt lat="46.669" lon="7.25765">
        <ele>1365.38</ele>
        <time>2020-06-12T10:42:33.601Z</time>
      </trkpt>
      <trkpt lat="46.669" lon="7.25762">
        <ele>1365.31</ele>
        <time>2020-06-12T10:42:34.145Z</time>
      </trkpt>
      <trkpt lat="46.669" lon="7.25757">
        <ele>1366.17</ele>
        <time>2020-06-12T10:42:46.940Z</time>
      </trkpt>
      <trkpt lat="46.66902" lon="7.25755">
        <ele>1366.83</ele>
        <time>2020-06-12T10:42:55.985Z</time>
      </trkpt>
      <trkpt lat="46.66905" lon="7.25752">
        <ele>1367.62</ele>
        <time>2020-06-12T10:43:09.553Z</time>
      </trkpt>
      <trkpt lat="46.66911" lon="7.2575">
        <ele>1369.37</ele>
        <time>2020-06-12T10:43:32.506Z</time>
      </trkpt>
      <trkpt lat="46.66915" lon="7.2574">
        <ele>1371.76</ele>
        <time>2020-06-12T10:44:02.126Z</time>
      </trkpt>
      <trkpt lat="46.66917" lon="7.25735">
        <ele>1372.52</ele>
        <time>2020-06-12T10:44:16.935Z</time>
      </trkpt>
      <trkpt lat="46.66925" lon="7.25712">
        <ele>1375.74</ele>
        <time>2020-06-12T10:45:22.921Z</time>
      </trkpt>
      <trkpt lat="46.66927" lon="7.25708">
        <ele>1376.31</ele>
        <time>2020-06-12T10:45:35.585Z</time>
      </trkpt>
      <trkpt lat="46.66935" lon="7.25694">
        <ele>1377.99</ele>
        <time>2020-06-12T10:46:22.206Z</time>
      </trkpt>
      <trkpt lat="46.66941" lon="7.25685">
        <ele>1378.77</ele>
        <time>2020-06-12T10:46:42.035Z</time>
      </trkpt>
      <trkpt lat="46.66945" lon="7.2568">
        <ele>1379.19</ele>
        <time>2020-06-12T10:46:53.097Z</time>
      </trkpt>
      <trkpt lat="46.66957" lon="7.2567">
        <ele>1380.34</ele>
        <time>2020-06-12T10:47:22.960Z</time>
      </trkpt>
      <trkpt lat="46.66961" lon="7.25664">
        <ele>1380.91</ele>
        <time>2020-06-12T10:47:37.294Z</time>
      </trkpt>
      <trkpt lat="46.66966" lon="7.25661">
        <ele>1381.76</ele>
        <time>2020-06-12T10:47:57.458Z</time>
      </trkpt>
      <trkpt lat="46.66971" lon="7.25655">
        <ele>1383</ele>
        <time>2020-06-12T10:48:21.612Z</time>
      </trkpt>
      <trkpt lat="46.66976" lon="7.25648">
        <ele>1384.23</ele>
        <time>2020-06-12T10:48:47.468Z</time>
      </trkpt>
      <trkpt lat="46.66979" lon="7.25644">
        <ele>1384.89</ele>
        <time>2020-06-12T10:49:02.631Z</time>
      </trkpt>
      <trkpt lat="46.66986" lon="7.25638">
        <ele>1385.91</ele>
        <time>2020-06-12T10:49:29.835Z</time>
      </trkpt>
      <trkpt lat="46.6699" lon="7.25633">
        <ele>1386.31</ele>
        <time>2020-06-12T10:49:40.565Z</time>
      </trkpt>
      <trkpt lat="46.66997" lon="7.25625">
        <ele>1387.68</ele>
        <time>2020-06-12T10:50:13.739Z</time>
      </trkpt>
      <trkpt lat="46.67007" lon="7.25616">
        <ele>1389.17</ele>
        <time>2020-06-12T10:50:53.719Z</time>
      </trkpt>
      <trkpt lat="46.67014" lon="7.2561">
        <ele>1389.48</ele>
        <time>2020-06-12T10:51:05.792Z</time>
      </trkpt>
      <trkpt lat="46.67022" lon="7.25602">
        <ele>1389.72</ele>
        <time>2020-06-12T10:51:17.920Z</time>
      </trkpt>
      <trkpt lat="46.67028" lon="7.25594">
        <ele>1390.53</ele>
        <time>2020-06-12T10:51:38.287Z</time>
      </trkpt>
      <trkpt lat="46.67035" lon="7.25585">
        <ele>1392.72</ele>
        <time>2020-06-12T10:52:13.098Z</time>
      </trkpt>
      <trkpt lat="46.67041" lon="7.2558">
        <ele>1394.15</ele>
        <time>2020-06-12T10:52:38.873Z</time>
      </trkpt>
      <trkpt lat="46.67046" lon="7.25574">
        <ele>1395.41</ele>
        <time>2020-06-12T10:53:03.026Z</time>
      </trkpt>
      <trkpt lat="46.67054" lon="7.2557">
        <ele>1396.38</ele>
        <time>2020-06-12T10:53:27.842Z</time>
      </trkpt>
      <trkpt lat="46.67064" lon="7.25564">
        <ele>1398.04</ele>
        <time>2020-06-12T10:54:08.170Z</time>
      </trkpt>
      <trkpt lat="46.67071" lon="7.25558">
        <ele>1399.76</ele>
        <time>2020-06-12T10:54:38.455Z</time>
      </trkpt>
      <trkpt lat="46.67079" lon="7.25552">
        <ele>1401.63</ele>
        <time>2020-06-12T10:55:12.007Z</time>
      </trkpt>
      <trkpt lat="46.67081" lon="7.25551">
        <ele>1402.11</ele>
        <time>2020-06-12T10:55:19.892Z</time>
      </trkpt>
      <trkpt lat="46.67085" lon="7.25551">
        <ele>1403.61</ele>
        <time>2020-06-12T10:55:34.808Z</time>
      </trkpt>
      <trkpt lat="46.67089" lon="7.25549">
        <ele>1404.86</ele>
        <time>2020-06-12T10:55:50.578Z</time>
      </trkpt>
      <trkpt lat="46.67094" lon="7.25543">
        <ele>1405.52</ele>
        <time>2020-06-12T10:56:07.170Z</time>
      </trkpt>
      <trkpt lat="46.67102" lon="7.25533">
        <ele>1407.42</ele>
        <time>2020-06-12T10:56:46.473Z</time>
      </trkpt>
      <trkpt lat="46.6711" lon="7.25521">
        <ele>1409.44</ele>
        <time>2020-06-12T10:57:29.286Z</time>
      </trkpt>
      <trkpt lat="46.67113" lon="7.25517">
        <ele>1410.2</ele>
        <time>2020-06-12T10:57:44.449Z</time>
      </trkpt>
      <trkpt lat="46.67121" lon="7.25507">
        <ele>1412.21</ele>
        <time>2020-06-12T10:58:23.753Z</time>
      </trkpt>
      <trkpt lat="46.67131" lon="7.25487">
        <ele>1413.94</ele>
        <time>2020-06-12T10:59:07.242Z</time>
      </trkpt>
      <trkpt lat="46.67136" lon="7.25477">
        <ele>1414.44</ele>
        <time>2020-06-12T10:59:22.483Z</time>
      </trkpt>
      <trkpt lat="46.6714" lon="7.25466">
        <ele>1414.22</ele>
        <time>2020-06-12T10:59:24.943Z</time>
      </trkpt>
      <trkpt lat="46.67143" lon="7.2546">
        <ele>1413.38</ele>
        <time>2020-06-12T10:59:26.048Z</time>
      </trkpt>
      <trkpt lat="46.67144" lon="7.25458">
        <ele>1412.88</ele>
        <time>2020-06-12T10:59:26.417Z</time>
      </trkpt>
      <trkpt lat="46.67158" lon="7.25456">
        <ele>1413.2</ele>
        <time>2020-06-12T10:59:43.597Z</time>
      </trkpt>
      <trkpt lat="46.67162" lon="7.25457">
        <ele>1414.68</ele>
        <time>2020-06-12T10:59:58.731Z</time>
      </trkpt>
      <trkpt lat="46.6717" lon="7.25461">
        <ele>1417.11</ele>
        <time>2020-06-12T11:00:30.271Z</time>
      </trkpt>
      <trkpt lat="46.6718" lon="7.25461">
        <ele>1420</ele>
        <time>2020-06-12T11:01:07.562Z</time>
      </trkpt>
      <trkpt lat="46.67192" lon="7.25455">
        <ele>1423.78</ele>
        <time>2020-06-12T11:01:54.872Z</time>
      </trkpt>
      <trkpt lat="46.67201" lon="7.2545">
        <ele>1425.95</ele>
        <time>2020-06-12T11:02:30.790Z</time>
      </trkpt>
      <trkpt lat="46.67205" lon="7.25446">
        <ele>1427.27</ele>
        <time>2020-06-12T11:02:48.881Z</time>
      </trkpt>
      <trkpt lat="46.67211" lon="7.25435">
        <ele>1429.27</ele>
        <time>2020-06-12T11:03:24.837Z</time>
      </trkpt>
      <trkpt lat="46.67215" lon="7.25433">
        <ele>1430.68</ele>
        <time>2020-06-12T11:03:40.607Z</time>
      </trkpt>
      <trkpt lat="46.67221" lon="7.25428">
        <ele>1432.75</ele>
        <time>2020-06-12T11:04:06.382Z</time>
      </trkpt>
      <trkpt lat="46.6723" lon="7.25415">
        <ele>1435.58</ele>
        <time>2020-06-12T11:04:53.636Z</time>
      </trkpt>
      <trkpt lat="46.67231" lon="7.25414">
        <ele>1436.58</ele>
        <time>2020-06-12T11:04:58.158Z</time>
      </trkpt>
      <trkpt lat="46.67231" lon="7.25414">
        <ele>1436.58</ele>
        <time>2020-06-12T11:04:58.158Z</time>
      </trkpt>
      <trkpt lat="46.67238" lon="7.25406">
        <ele>1437.59</ele>
        <time>2020-06-12T11:05:23.923Z</time>
      </trkpt>
      <trkpt lat="46.6725" lon="7.25394">
        <ele>1440.23</ele>
        <time>2020-06-12T11:06:18.194Z</time>
      </trkpt>
      <trkpt lat="46.67256" lon="7.25384">
        <ele>1441.6</ele>
        <time>2020-06-12T11:06:52.185Z</time>
      </trkpt>
      <trkpt lat="46.67261" lon="7.2537">
        <ele>1442.81</ele>
        <time>2020-06-12T11:07:22.926Z</time>
      </trkpt>
      <trkpt lat="46.67265" lon="7.25361">
        <ele>1444.42</ele>
        <time>2020-06-12T11:07:50.364Z</time>
      </trkpt>
      <trkpt lat="46.67273" lon="7.25347">
        <ele>1446.03</ele>
        <time>2020-06-12T11:08:34.049Z</time>
      </trkpt>
      <trkpt lat="46.67283" lon="7.25324">
        <ele>1447.9</ele>
        <time>2020-06-12T11:09:21.063Z</time>
      </trkpt>
      <trkpt lat="46.6729" lon="7.25306">
        <ele>1449.91</ele>
        <time>2020-06-12T11:10:14.005Z</time>
      </trkpt>
      <trkpt lat="46.67296" lon="7.25289">
        <ele>1451.34</ele>
        <time>2020-06-12T11:10:50.161Z</time>
      </trkpt>
      <trkpt lat="46.67302" lon="7.2527">
        <ele>1453.48</ele>
        <time>2020-06-12T11:11:43.679Z</time>
      </trkpt>
      <trkpt lat="46.67311" lon="7.2525">
        <ele>1455.26</ele>
        <time>2020-06-12T11:12:28.648Z</time>
      </trkpt>
      <trkpt lat="46.6732" lon="7.25227">
        <ele>1455.84</ele>
        <time>2020-06-12T11:12:53.472Z</time>
      </trkpt>
      <trkpt lat="46.67322" lon="7.25219">
        <ele>1456.9</ele>
        <time>2020-06-12T11:13:15.258Z</time>
      </trkpt>
      <trkpt lat="46.67325" lon="7.25207">
        <ele>1457.15</ele>
        <time>2020-06-12T11:13:26.728Z</time>
      </trkpt>
      <trkpt lat="46.67329" lon="7.2519">
        <ele>1458.33</ele>
        <time>2020-06-12T11:13:56.482Z</time>
      </trkpt>
      <trkpt lat="46.67334" lon="7.25167">
        <ele>1460.05</ele>
        <time>2020-06-12T11:14:39.747Z</time>
      </trkpt>
      <trkpt lat="46.67338" lon="7.25151">
        <ele>1461.41</ele>
        <time>2020-06-12T11:15:14.709Z</time>
      </trkpt>
      <trkpt lat="46.67341" lon="7.2514">
        <ele>1461.89</ele>
        <time>2020-06-12T11:15:29.310Z</time>
      </trkpt>
      <trkpt lat="46.67346" lon="7.25125">
        <ele>1463.21</ele>
        <time>2020-06-12T11:16:03.142Z</time>
      </trkpt>
      <trkpt lat="46.6735" lon="7.2511">
        <ele>1464.23</ele>
        <time>2020-06-12T11:16:28.984Z</time>
      </trkpt>
      <trkpt lat="46.67355" lon="7.2509">
        <ele>1465.64</ele>
        <time>2020-06-12T11:17:04.507Z</time>
      </trkpt>
      <trkpt lat="46.67358" lon="7.25071">
        <ele>1467.25</ele>
        <time>2020-06-12T11:17:46.460Z</time>
      </trkpt>
      <trkpt lat="46.67361" lon="7.25052">
        <ele>1468.61</ele>
        <time>2020-06-12T11:18:20.647Z</time>
      </trkpt>
      <trkpt lat="46.67368" lon="7.2502">
        <ele>1472.84</ele>
        <time>2020-06-12T11:19:46.588Z</time>
      </trkpt>
      <trkpt lat="46.67369" lon="7.25013">
        <ele>1473.57</ele>
        <time>2020-06-12T11:20:04.883Z</time>
      </trkpt>
      <trkpt lat="46.67372" lon="7.24999">
        <ele>1475.34</ele>
        <time>2020-06-12T11:20:42.412Z</time>
      </trkpt>
      <trkpt lat="46.67374" lon="7.24987">
        <ele>1476.66</ele>
        <time>2020-06-12T11:21:14.010Z</time>
      </trkpt>
      <trkpt lat="46.67375" lon="7.24983">
        <ele>1477.26</ele>
        <time>2020-06-12T11:21:24.903Z</time>
      </trkpt>
      <trkpt lat="46.67376" lon="7.24976">
        <ele>1478.2</ele>
        <time>2020-06-12T11:21:43.198Z</time>
      </trkpt>
      <trkpt lat="46.67378" lon="7.24966">
        <ele>1480.16</ele>
        <time>2020-06-12T11:22:09.850Z</time>
      </trkpt>
      <trkpt lat="46.67381" lon="7.24962">
        <ele>1481.22</ele>
        <time>2020-06-12T11:22:25.013Z</time>
      </trkpt>
      <trkpt lat="46.67384" lon="7.24959">
        <ele>1482.12</ele>
        <time>2020-06-12T11:22:38.581Z</time>
      </trkpt>
      <trkpt lat="46.67389" lon="7.24958">
        <ele>1483.12</ele>
        <time>2020-06-12T11:22:57.401Z</time>
      </trkpt>
      <trkpt lat="46.67394" lon="7.2496">
        <ele>1483.98</ele>
        <time>2020-06-12T11:23:16.736Z</time>
      </trkpt>
      <trkpt lat="46.67402" lon="7.24966">
        <ele>1485.21</ele>
        <time>2020-06-12T11:23:50.288Z</time>
      </trkpt>
      <trkpt lat="46.67411" lon="7.24977">
        <ele>1486.52</ele>
        <time>2020-06-12T11:24:23.556Z</time>
      </trkpt>
      <trkpt lat="46.6742" lon="7.24994">
        <ele>1487.26</ele>
        <time>2020-06-12T11:24:48.500Z</time>
      </trkpt>
      <trkpt lat="46.67426" lon="7.25007">
        <ele>1488.28</ele>
        <time>2020-06-12T11:25:14.244Z</time>
      </trkpt>
      <trkpt lat="46.67436" lon="7.25032">
        <ele>1490.48</ele>
        <time>2020-06-12T11:26:10.036Z</time>
      </trkpt>
      <trkpt lat="46.67441" lon="7.25044">
        <ele>1492.03</ele>
        <time>2020-06-12T11:26:45.959Z</time>
      </trkpt>
      <trkpt lat="46.67453" lon="7.25071">
        <ele>1495.24</ele>
        <time>2020-06-12T11:28:08.271Z</time>
      </trkpt>
      <trkpt lat="46.67458" lon="7.25082">
        <ele>1496.84</ele>
        <time>2020-06-12T11:28:42.033Z</time>
      </trkpt>
      <trkpt lat="46.67462" lon="7.25097">
        <ele>1497.88</ele>
        <time>2020-06-12T11:29:08.306Z</time>
      </trkpt>
      <trkpt lat="46.67462" lon="7.25096">
        <ele>1497.88</ele>
        <time>2020-06-12T11:29:08.969Z</time>
      </trkpt>
      <trkpt lat="46.67462" lon="7.25098">
        <ele>1498.93</ele>
        <time>2020-06-12T11:29:14.086Z</time>
      </trkpt>
      <trkpt lat="46.67464" lon="7.25104">
        <ele>1499.87</ele>
        <time>2020-06-12T11:29:31.154Z</time>
      </trkpt>
      <trkpt lat="46.67468" lon="7.25115">
        <ele>1501.86</ele>
        <time>2020-06-12T11:30:03.008Z</time>
      </trkpt>
      <trkpt lat="46.67471" lon="7.25127">
        <ele>1503.87</ele>
        <time>2020-06-12T11:30:35.687Z</time>
      </trkpt>
      <trkpt lat="46.67476" lon="7.25147">
        <ele>1506.45</ele>
        <time>2020-06-12T11:31:30.152Z</time>
      </trkpt>
      <trkpt lat="46.6748" lon="7.25167">
        <ele>1508.56</ele>
        <time>2020-06-12T11:32:23.456Z</time>
      </trkpt>
      <trkpt lat="46.67486" lon="7.25198">
        <ele>1512.22</ele>
        <time>2020-06-12T11:33:45.871Z</time>
      </trkpt>
      <trkpt lat="46.67493" lon="7.25228">
        <ele>1515.89</ele>
        <time>2020-06-12T11:35:06.949Z</time>
      </trkpt>
      <trkpt lat="46.67498" lon="7.25254">
        <ele>1519.15</ele>
        <time>2020-06-12T11:36:16.038Z</time>
      </trkpt>
      <trkpt lat="46.67502" lon="7.25274">
        <ele>1521.84</ele>
        <time>2020-06-12T11:37:09.342Z</time>
      </trkpt>
      <trkpt lat="46.67504" lon="7.2529">
        <ele>1523.71</ele>
        <time>2020-06-12T11:37:50.954Z</time>
      </trkpt>
      <trkpt lat="46.67504" lon="7.25307">
        <ele>1524.8</ele>
        <time>2020-06-12T11:38:18.520Z</time>
      </trkpt>
      <trkpt lat="46.67503" lon="7.25346">
        <ele>1527.56</ele>
        <time>2020-06-12T11:39:27.921Z</time>
      </trkpt>
      <trkpt lat="46.67503" lon="7.25375">
        <ele>1530.15</ele>
        <time>2020-06-12T11:40:38.775Z</time>
      </trkpt>
      <trkpt lat="46.67503" lon="7.25377">
        <ele>1530.31</ele>
        <time>2020-06-12T11:40:42.890Z</time>
      </trkpt>
      <trkpt lat="46.67505" lon="7.25393">
        <ele>1531.71</ele>
        <time>2020-06-12T11:41:20.203Z</time>
      </trkpt>
      <trkpt lat="46.67507" lon="7.25413">
        <ele>1534.1</ele>
        <time>2020-06-12T11:42:11.918Z</time>
      </trkpt>
      <trkpt lat="46.67511" lon="7.25446">
        <ele>1539.41</ele>
        <time>2020-06-12T11:43:37.662Z</time>
      </trkpt>
      <trkpt lat="46.67515" lon="7.25475">
        <ele>1542.79</ele>
        <time>2020-06-12T11:44:53.348Z</time>
      </trkpt>
      <trkpt lat="46.67519" lon="7.25491">
        <ele>1544.83</ele>
        <time>2020-06-12T11:45:36.919Z</time>
      </trkpt>
      <trkpt lat="46.67527" lon="7.25516">
        <ele>1548.98</ele>
        <time>2020-06-12T11:46:47.501Z</time>
      </trkpt>
      <trkpt lat="46.67533" lon="7.25533">
        <ele>1551.69</ele>
        <time>2020-06-12T11:47:36.416Z</time>
      </trkpt>
      <trkpt lat="46.67536" lon="7.25539">
        <ele>1552.9</ele>
        <time>2020-06-12T11:47:55.412Z</time>
      </trkpt>
      <trkpt lat="46.6754" lon="7.25544">
        <ele>1554.8</ele>
        <time>2020-06-12T11:48:15.063Z</time>
      </trkpt>
      <trkpt lat="46.67539" lon="7.25544">
        <ele>1554.8</ele>
        <time>2020-06-12T11:48:16.030Z</time>
      </trkpt>
      <trkpt lat="46.6755" lon="7.25558">
        <ele>1556.71</ele>
        <time>2020-06-12T11:49:08.483Z</time>
      </trkpt>
      <trkpt lat="46.67566" lon="7.25579">
        <ele>1562.78</ele>
        <time>2020-06-12T11:50:28.777Z</time>
      </trkpt>
      <trkpt lat="46.67573" lon="7.25589">
        <ele>1565.64</ele>
        <time>2020-06-12T11:51:05.329Z</time>
      </trkpt>
      <trkpt lat="46.67574" lon="7.2559">
        <ele>1565.94</ele>
        <time>2020-06-12T11:51:09.852Z</time>
      </trkpt>
      <trkpt lat="46.67575" lon="7.25592">
        <ele>1566.39</ele>
        <time>2020-06-12T11:51:16.184Z</time>
      </trkpt>
      <trkpt lat="46.67581" lon="7.25605">
        <ele>1568.53</ele>
        <time>2020-06-12T11:51:56.271Z</time>
      </trkpt>
      <trkpt lat="46.67584" lon="7.25611">
        <ele>1569.48</ele>
        <time>2020-06-12T11:52:15.267Z</time>
      </trkpt>
      <trkpt lat="46.67587" lon="7.25615">
        <ele>1570.37</ele>
        <time>2020-06-12T11:52:30.430Z</time>
      </trkpt>
      <trkpt lat="46.67596" lon="7.25625">
        <ele>1572.1</ele>
        <time>2020-06-12T11:53:12.633Z</time>
      </trkpt>
      <trkpt lat="46.67606" lon="7.2564">
        <ele>1575.76</ele>
        <time>2020-06-12T11:54:06.145Z</time>
      </trkpt>
      <trkpt lat="46.67608" lon="7.25644">
        <ele>1576.42</ele>
        <time>2020-06-12T11:54:18.809Z</time>
      </trkpt>
      <trkpt lat="46.67613" lon="7.25653">
        <ele>1577.65</ele>
        <time>2020-06-12T11:54:48.439Z</time>
      </trkpt>
      <trkpt lat="46.67615" lon="7.25658">
        <ele>1578.12</ele>
        <time>2020-06-12T11:55:00.598Z</time>
      </trkpt>
      <trkpt lat="46.67618" lon="7.25666">
        <ele>1578.92</ele>
        <time>2020-06-12T11:55:22.195Z</time>
      </trkpt>
      <trkpt lat="46.67626" lon="7.25684">
        <ele>1581.06</ele>
        <time>2020-06-12T11:56:17.068Z</time>
      </trkpt>
      <trkpt lat="46.67635" lon="7.25702">
        <ele>1583.02</ele>
        <time>2020-06-12T11:57:10.090Z</time>
      </trkpt>
      <trkpt lat="46.67646" lon="7.25726">
        <ele>1585.32</ele>
        <time>2020-06-12T11:58:09.173Z</time>
      </trkpt>
      <trkpt lat="46.67657" lon="7.25748">
        <ele>1588.18</ele>
        <time>2020-06-12T11:59:18.823Z</time>
      </trkpt>
      <trkpt lat="46.67666" lon="7.25765">
        <ele>1590.17</ele>
        <time>2020-06-12T12:00:13.763Z</time>
      </trkpt>
      <trkpt lat="46.67678" lon="7.25791">
        <ele>1593.94</ele>
        <time>2020-06-12T12:01:33.937Z</time>
      </trkpt>
      <trkpt lat="46.67683" lon="7.25803">
        <ele>1595.52</ele>
        <time>2020-06-12T12:02:09.858Z</time>
      </trkpt>
      <trkpt lat="46.67691" lon="7.25818">
        <ele>1597.75</ele>
        <time>2020-06-12T12:02:58.468Z</time>
      </trkpt>
      <trkpt lat="46.67702" lon="7.25842">
        <ele>1600.71</ele>
        <time>2020-06-12T12:04:12.316Z</time>
      </trkpt>
      <trkpt lat="46.67708" lon="7.25855">
        <ele>1602.69</ele>
        <time>2020-06-12T12:04:52.403Z</time>
      </trkpt>
      <trkpt lat="46.67719" lon="7.25876">
        <ele>1605.8</ele>
        <time>2020-06-12T12:06:00.001Z</time>
      </trkpt>
      <trkpt lat="46.67721" lon="7.25883">
        <ele>1606.07</ele>
        <time>2020-06-12T12:06:08.907Z</time>
      </trkpt>
      <trkpt lat="46.67723" lon="7.25913">
        <ele>1608.16</ele>
        <time>2020-06-12T12:07:01.445Z</time>
      </trkpt>
      <trkpt lat="46.67723" lon="7.25939">
        <ele>1610.03</ele>
        <time>2020-06-12T12:07:48.509Z</time>
      </trkpt>
      <trkpt lat="46.67723" lon="7.25965">
        <ele>1611.63</ele>
        <time>2020-06-12T12:08:29.266Z</time>
      </trkpt>
      <trkpt lat="46.67723" lon="7.25983">
        <ele>1612.72</ele>
        <time>2020-06-12T12:08:57.128Z</time>
      </trkpt>
      <trkpt lat="46.67719" lon="7.26006">
        <ele>1613.96</ele>
        <time>2020-06-12T12:09:30.344Z</time>
      </trkpt>
      <trkpt lat="46.67711" lon="7.2605">
        <ele>1616.76</ele>
        <time>2020-06-12T12:10:41.674Z</time>
      </trkpt>
      <trkpt lat="46.67711" lon="7.26058">
        <ele>1617.29</ele>
        <time>2020-06-12T12:10:55.026Z</time>
      </trkpt>
      <trkpt lat="46.67711" lon="7.26067">
        <ele>1617.73</ele>
        <time>2020-06-12T12:11:07.154Z</time>
      </trkpt>
      <trkpt lat="46.67713" lon="7.26076">
        <ele>1618.21</ele>
        <time>2020-06-12T12:11:20.170Z</time>
      </trkpt>
      <trkpt lat="46.67717" lon="7.26087">
        <ele>1618.9</ele>
        <time>2020-06-12T12:11:38.257Z</time>
      </trkpt>
      <trkpt lat="46.67727" lon="7.26105">
        <ele>1619.86</ele>
        <time>2020-06-12T12:12:07.088Z</time>
      </trkpt>
      <trkpt lat="46.67736" lon="7.26087">
        <ele>1620.88</ele>
        <time>2020-06-12T12:12:36.106Z</time>
      </trkpt>
      <trkpt lat="46.6774" lon="7.26079">
        <ele>1620.94</ele>
        <time>2020-06-12T12:12:43.250Z</time>
      </trkpt>
      <trkpt lat="46.67742" lon="7.26074">
        <ele>1620.89</ele>
        <time>2020-06-12T12:12:44.587Z</time>
      </trkpt>
      <trkpt lat="46.67748" lon="7.26071">
        <ele>1620.71</ele>
        <time>2020-06-12T12:12:46.363Z</time>
      </trkpt>
      <trkpt lat="46.67749" lon="7.26069">
        <ele>1620.64</ele>
        <time>2020-06-12T12:12:46.781Z</time>
      </trkpt>
      <trkpt lat="46.67757" lon="7.26055">
        <ele>1620.74</ele>
        <time>2020-06-12T12:12:59.822Z</time>
      </trkpt>
      <trkpt lat="46.6776" lon="7.26049">
        <ele>1621.02</ele>
        <time>2020-06-12T12:13:08.723Z</time>
      </trkpt>
      <trkpt lat="46.67762" lon="7.26045">
        <ele>1621.19</ele>
        <time>2020-06-12T12:13:14.466Z</time>
      </trkpt>
      <trkpt lat="46.67765" lon="7.26039">
        <ele>1621.28</ele>
        <time>2020-06-12T12:13:20.342Z</time>
      </trkpt>
      <trkpt lat="46.67769" lon="7.26035">
        <ele>1621.54</ele>
        <time>2020-06-12T12:13:28.741Z</time>
      </trkpt>
      <trkpt lat="46.67771" lon="7.26033">
        <ele>1621.65</ele>
        <time>2020-06-12T12:13:32.720Z</time>
      </trkpt>
      <trkpt lat="46.67776" lon="7.26026">
        <ele>1622.11</ele>
        <time>2020-06-12T12:13:45.846Z</time>
      </trkpt>
      <trkpt lat="46.67776" lon="7.26025">
        <ele>1622.35</ele>
        <time>2020-06-12T12:13:48.405Z</time>
      </trkpt>
      <trkpt lat="46.67776" lon="7.26026">
        <ele>1622.11</ele>
        <time>2020-06-12T12:13:48.554Z</time>
      </trkpt>
      <trkpt lat="46.67793" lon="7.26002">
        <ele>1622.6</ele>
        <time>2020-06-12T12:14:16.790Z</time>
      </trkpt>
      <trkpt lat="46.67798" lon="7.25996">
        <ele>1622.96</ele>
        <time>2020-06-12T12:14:28.155Z</time>
      </trkpt>
      <trkpt lat="46.67803" lon="7.25991">
        <ele>1623.25</ele>
        <time>2020-06-12T12:14:38.262Z</time>
      </trkpt>
      <trkpt lat="46.67809" lon="7.25983">
        <ele>1623.41</ele>
        <time>2020-06-12T12:14:47.852Z</time>
      </trkpt>
      <trkpt lat="46.67819" lon="7.25967">
        <ele>1624.7</ele>
        <time>2020-06-12T12:15:20.952Z</time>
      </trkpt>
      <trkpt lat="46.6783" lon="7.25949">
        <ele>1625.42</ele>
        <time>2020-06-12T12:15:47.547Z</time>
      </trkpt>
      <trkpt lat="46.67838" lon="7.25936">
        <ele>1625.91</ele>
        <time>2020-06-12T12:16:06.069Z</time>
      </trkpt>
      <trkpt lat="46.67841" lon="7.25933">
        <ele>1626.38</ele>
        <time>2020-06-12T12:16:18.851Z</time>
      </trkpt>
      <trkpt lat="46.67843" lon="7.25931">
        <ele>1626.58</ele>
        <time>2020-06-12T12:16:24.059Z</time>
      </trkpt>
      <trkpt lat="46.67845" lon="7.2593">
        <ele>1626.83</ele>
        <time>2020-06-12T12:16:30.524Z</time>
      </trkpt>
      <trkpt lat="46.67851" lon="7.25927">
        <ele>1627.13</ele>
        <time>2020-06-12T12:16:41.060Z</time>
      </trkpt>
      <trkpt lat="46.67855" lon="7.25926">
        <ele>1627.24</ele>
        <time>2020-06-12T12:16:46.280Z</time>
      </trkpt>
      <trkpt lat="46.6786" lon="7.25925">
        <ele>1627.07</ele>
        <time>2020-06-12T12:16:47.617Z</time>
      </trkpt>
      <trkpt lat="46.67861" lon="7.25925">
        <ele>1627.09</ele>
        <time>2020-06-12T12:16:48.801Z</time>
      </trkpt>
      <trkpt lat="46.67867" lon="7.25921">
        <ele>1627.32</ele>
        <time>2020-06-12T12:16:58.172Z</time>
      </trkpt>
      <trkpt lat="46.67876" lon="7.25917">
        <ele>1626.93</ele>
        <time>2020-06-12T12:17:00.483Z</time>
      </trkpt>
      <trkpt lat="46.67881" lon="7.25914">
        <ele>1626.69</ele>
        <time>2020-06-12T12:17:01.776Z</time>
      </trkpt>
      <trkpt lat="46.67892" lon="7.25909">
        <ele>1626.24</ele>
        <time>2020-06-12T12:17:04.672Z</time>
      </trkpt>
      <trkpt lat="46.67904" lon="7.25905">
        <ele>1625.55</ele>
        <time>2020-06-12T12:17:07.332Z</time>
      </trkpt>
      <trkpt lat="46.67922" lon="7.25899">
        <ele>1624.24</ele>
        <time>2020-06-12T12:17:11.337Z</time>
      </trkpt>
      <trkpt lat="46.67942" lon="7.25891">
        <ele>1622.43</ele>
        <time>2020-06-12T12:17:15.836Z</time>
      </trkpt>
      <trkpt lat="46.67956" lon="7.25887">
        <ele>1620.72</ele>
        <time>2020-06-12T12:17:18.930Z</time>
      </trkpt>
      <trkpt lat="46.67969" lon="7.25884">
        <ele>1619.25</ele>
        <time>2020-06-12T12:17:21.785Z</time>
      </trkpt>
      <trkpt lat="46.67979" lon="7.25883">
        <ele>1618.11</ele>
        <time>2020-06-12T12:17:23.959Z</time>
      </trkpt>
      <trkpt lat="46.67985" lon="7.25884">
        <ele>1616.99</ele>
        <time>2020-06-12T12:17:25.269Z</time>
      </trkpt>
      <trkpt lat="46.67989" lon="7.25885">
        <ele>1616.31</ele>
        <time>2020-06-12T12:17:26.149Z</time>
      </trkpt>
      <trkpt lat="46.67993" lon="7.25886">
        <ele>1615.84</ele>
        <time>2020-06-12T12:17:27.030Z</time>
      </trkpt>
      <trkpt lat="46.67998" lon="7.25888">
        <ele>1615.19</ele>
        <time>2020-06-12T12:17:28.154Z</time>
      </trkpt>
      <trkpt lat="46.68015" lon="7.25898">
        <ele>1613.21</ele>
        <time>2020-06-12T12:17:32.131Z</time>
      </trkpt>
      <trkpt lat="46.68022" lon="7.25903">
        <ele>1612.09</ele>
        <time>2020-06-12T12:17:33.822Z</time>
      </trkpt>
      <trkpt lat="46.6803" lon="7.25907">
        <ele>1610.97</ele>
        <time>2020-06-12T12:17:35.656Z</time>
      </trkpt>
      <trkpt lat="46.68049" lon="7.25918">
        <ele>1609.07</ele>
        <time>2020-06-12T12:17:40.091Z</time>
      </trkpt>
      <trkpt lat="46.6806" lon="7.25923">
        <ele>1607.76</ele>
        <time>2020-06-12T12:17:42.590Z</time>
      </trkpt>
      <trkpt lat="46.68069" lon="7.25927">
        <ele>1606.52</ele>
        <time>2020-06-12T12:17:44.631Z</time>
      </trkpt>
      <trkpt lat="46.68094" lon="7.25938">
        <ele>1603.79</ele>
        <time>2020-06-12T12:17:50.295Z</time>
      </trkpt>
      <trkpt lat="46.68113" lon="7.25943">
        <ele>1602.74</ele>
        <time>2020-06-12T12:17:54.526Z</time>
      </trkpt>
      <trkpt lat="46.68125" lon="7.25946">
        <ele>1602.18</ele>
        <time>2020-06-12T12:17:57.394Z</time>
      </trkpt>
      <trkpt lat="46.68136" lon="7.25949">
        <ele>1602.03</ele>
        <time>2020-06-12T12:18:01.124Z</time>
      </trkpt>
      <trkpt lat="46.6815" lon="7.25951">
        <ele>1601.81</ele>
        <time>2020-06-12T12:18:05.682Z</time>
      </trkpt>
      <trkpt lat="46.68159" lon="7.25952">
        <ele>1602.09</ele>
        <time>2020-06-12T12:18:17.872Z</time>
      </trkpt>
      <trkpt lat="46.68162" lon="7.25952">
        <ele>1602.19</ele>
        <time>2020-06-12T12:18:22.047Z</time>
      </trkpt>
      <trkpt lat="46.68165" lon="7.25952">
        <ele>1602.3</ele>
        <time>2020-06-12T12:18:26.415Z</time>
      </trkpt>
      <trkpt lat="46.68181" lon="7.25949">
        <ele>1602.29</ele>
        <time>2020-06-12T12:18:41.864Z</time>
      </trkpt>
      <trkpt lat="46.68195" lon="7.25945">
        <ele>1602.26</ele>
        <time>2020-06-12T12:18:55.227Z</time>
      </trkpt>
      <trkpt lat="46.68205" lon="7.25944">
        <ele>1602.77</ele>
        <time>2020-06-12T12:19:12.270Z</time>
      </trkpt>
      <trkpt lat="46.6821" lon="7.25944">
        <ele>1603.16</ele>
        <time>2020-06-12T12:19:22.622Z</time>
      </trkpt>
      <trkpt lat="46.68211" lon="7.25944">
        <ele>1603.27</ele>
        <time>2020-06-12T12:19:25.407Z</time>
      </trkpt>
      <trkpt lat="46.68216" lon="7.25946">
        <ele>1603.75</ele>
        <time>2020-06-12T12:19:37.564Z</time>
      </trkpt>
      <trkpt lat="46.68222" lon="7.25947">
        <ele>1604.09</ele>
        <time>2020-06-12T12:19:48.213Z</time>
      </trkpt>
      <trkpt lat="46.6823" lon="7.25948">
        <ele>1605.2</ele>
        <time>2020-06-12T12:20:18.155Z</time>
      </trkpt>
      <trkpt lat="46.68242" lon="7.25949">
        <ele>1606.72</ele>
        <time>2020-06-12T12:20:58.873Z</time>
      </trkpt>
      <trkpt lat="46.6825" lon="7.25948">
        <ele>1608.14</ele>
        <time>2020-06-12T12:21:28.816Z</time>
      </trkpt>
      <trkpt lat="46.68258" lon="7.25948">
        <ele>1608.84</ele>
        <time>2020-06-12T12:21:46.745Z</time>
      </trkpt>
      <trkpt lat="46.68262" lon="7.25948">
        <ele>1609.55</ele>
        <time>2020-06-12T12:22:01.662Z</time>
      </trkpt>
      <trkpt lat="46.68262" lon="7.25948">
        <ele>1609.55</ele>
        <time>2020-06-12T12:22:01.662Z</time>
      </trkpt>
      <trkpt lat="46.68268" lon="7.25947">
        <ele>1610.26</ele>
        <time>2020-06-12T12:22:19.981Z</time>
      </trkpt>
      <trkpt lat="46.68275" lon="7.25948">
        <ele>1611.26</ele>
        <time>2020-06-12T12:22:46.210Z</time>
      </trkpt>
      <trkpt lat="46.6828" lon="7.25949">
        <ele>1611.93</ele>
        <time>2020-06-12T12:23:04.848Z</time>
      </trkpt>
      <trkpt lat="46.68294" lon="7.25952">
        <ele>1613.85</ele>
        <time>2020-06-12T12:23:57.617Z</time>
      </trkpt>
      <trkpt lat="46.68301" lon="7.25952">
        <ele>1615.11</ele>
        <time>2020-06-12T12:24:23.721Z</time>
      </trkpt>
      <trkpt lat="46.68306" lon="7.25953">
        <ele>1615.81</ele>
        <time>2020-06-12T12:24:42.541Z</time>
      </trkpt>
      <trkpt lat="46.6831" lon="7.25955">
        <ele>1616.45</ele>
        <time>2020-06-12T12:24:58.311Z</time>
      </trkpt>
      <trkpt lat="46.68317" lon="7.25958">
        <ele>1617.22</ele>
        <time>2020-06-12T12:25:17.700Z</time>
      </trkpt>
      <trkpt lat="46.6833" lon="7.25966">
        <ele>1618.57</ele>
        <time>2020-06-12T12:25:51.742Z</time>
      </trkpt>
      <trkpt lat="46.68343" lon="7.25973">
        <ele>1618.69</ele>
        <time>2020-06-12T12:26:06.295Z</time>
      </trkpt>
      <trkpt lat="46.68351" lon="7.25979">
        <ele>1618.74</ele>
        <time>2020-06-12T12:26:15.459Z</time>
      </trkpt>
      <trkpt lat="46.68355" lon="7.25982">
        <ele>1618.4</ele>
        <time>2020-06-12T12:26:16.435Z</time>
      </trkpt>
      <trkpt lat="46.6836" lon="7.25988">
        <ele>1618.36</ele>
        <time>2020-06-12T12:26:22.155Z</time>
      </trkpt>
      <trkpt lat="46.68366" lon="7.25997">
        <ele>1617.67</ele>
        <time>2020-06-12T12:26:24.023Z</time>
      </trkpt>
      <trkpt lat="46.68371" lon="7.26005">
        <ele>1617.35</ele>
        <time>2020-06-12T12:26:25.819Z</time>
      </trkpt>
      <trkpt lat="46.68376" lon="7.26015">
        <ele>1617.14</ele>
        <time>2020-06-12T12:26:28.291Z</time>
      </trkpt>
      <trkpt lat="46.68379" lon="7.26022">
        <ele>1616.87</ele>
        <time>2020-06-12T12:26:29.606Z</time>
      </trkpt>
      <trkpt lat="46.68381" lon="7.26027">
        <ele>1616.39</ele>
        <time>2020-06-12T12:26:30.467Z</time>
      </trkpt>
      <trkpt lat="46.68382" lon="7.26032">
        <ele>1616.18</ele>
        <time>2020-06-12T12:26:31.222Z</time>
      </trkpt>
      <trkpt lat="46.68383" lon="7.26044">
        <ele>1614.07</ele>
        <time>2020-06-12T12:26:33.021Z</time>
      </trkpt>
      <trkpt lat="46.68383" lon="7.26052">
        <ele>1612.85</ele>
        <time>2020-06-12T12:26:34.211Z</time>
      </trkpt>
      <trkpt lat="46.68384" lon="7.26054">
        <ele>1612.56</ele>
        <time>2020-06-12T12:26:34.579Z</time>
      </trkpt>
      <trkpt lat="46.68385" lon="7.26059">
        <ele>1611.5</ele>
        <time>2020-06-12T12:26:35.354Z</time>
      </trkpt>
      <trkpt lat="46.68386" lon="7.26062">
        <ele>1610.92</ele>
        <time>2020-06-12T12:26:35.851Z</time>
      </trkpt>
      <trkpt lat="46.68388" lon="7.26067">
        <ele>1609.91</ele>
        <time>2020-06-12T12:26:36.712Z</time>
      </trkpt>
      <trkpt lat="46.68391" lon="7.26073">
        <ele>1608.6</ele>
        <time>2020-06-12T12:26:37.817Z</time>
      </trkpt>
      <trkpt lat="46.68392" lon="7.26079">
        <ele>1608.22</ele>
        <time>2020-06-12T12:26:38.736Z</time>
      </trkpt>
      <trkpt lat="46.68399" lon="7.26091">
        <ele>1607.42</ele>
        <time>2020-06-12T12:26:41.079Z</time>
      </trkpt>
      <trkpt lat="46.68403" lon="7.261">
        <ele>1607.09</ele>
        <time>2020-06-12T12:26:42.831Z</time>
      </trkpt>
      <trkpt lat="46.68405" lon="7.26102">
        <ele>1606.53</ele>
        <time>2020-06-12T12:26:43.357Z</time>
      </trkpt>
      <trkpt lat="46.68406" lon="7.26106">
        <ele>1606.24</ele>
        <time>2020-06-12T12:26:43.990Z</time>
      </trkpt>
      <trkpt lat="46.68406" lon="7.2611">
        <ele>1606.07</ele>
        <time>2020-06-12T12:26:44.556Z</time>
      </trkpt>
      <trkpt lat="46.68407" lon="7.26114">
        <ele>1606</ele>
        <time>2020-06-12T12:26:45.414Z</time>
      </trkpt>
      <trkpt lat="46.6841" lon="7.2612">
        <ele>1606.22</ele>
        <time>2020-06-12T12:26:53.562Z</time>
      </trkpt>
      <trkpt lat="46.68412" lon="7.26124">
        <ele>1606.31</ele>
        <time>2020-06-12T12:26:57.897Z</time>
      </trkpt>
      <trkpt lat="46.68413" lon="7.2613">
        <ele>1606.3</ele>
        <time>2020-06-12T12:27:01.850Z</time>
      </trkpt>
      <trkpt lat="46.68414" lon="7.26134">
        <ele>1606.34</ele>
        <time>2020-06-12T12:27:05.078Z</time>
      </trkpt>
      <trkpt lat="46.68416" lon="7.26138">
        <ele>1606.29</ele>
        <time>2020-06-12T12:27:06.191Z</time>
      </trkpt>
      <trkpt lat="46.68419" lon="7.26142">
        <ele>1606.23</ele>
        <time>2020-06-12T12:27:07.523Z</time>
      </trkpt>
      <trkpt lat="46.68422" lon="7.26144">
        <ele>1606.37</ele>
        <time>2020-06-12T12:27:12.741Z</time>
      </trkpt>
      <trkpt lat="46.68425" lon="7.26148">
        <ele>1606.23</ele>
        <time>2020-06-12T12:27:13.810Z</time>
      </trkpt>
      <trkpt lat="46.68427" lon="7.26152">
        <ele>1606.13</ele>
        <time>2020-06-12T12:27:14.750Z</time>
      </trkpt>
      <trkpt lat="46.68429" lon="7.26156">
        <ele>1606.02</ele>
        <time>2020-06-12T12:27:15.661Z</time>
      </trkpt>
      <trkpt lat="46.68432" lon="7.26165">
        <ele>1606.08</ele>
        <time>2020-06-12T12:27:22.875Z</time>
      </trkpt>
      <trkpt lat="46.68435" lon="7.2617">
        <ele>1605.91</ele>
        <time>2020-06-12T12:27:24.040Z</time>
      </trkpt>
      <trkpt lat="46.68437" lon="7.26172">
        <ele>1605.92</ele>
        <time>2020-06-12T12:27:26.477Z</time>
      </trkpt>
      <trkpt lat="46.68439" lon="7.26174">
        <ele>1605.5</ele>
        <time>2020-06-12T12:27:27.003Z</time>
      </trkpt>
      <trkpt lat="46.68441" lon="7.26176">
        <ele>1605.43</ele>
        <time>2020-06-12T12:27:27.679Z</time>
      </trkpt>
      <trkpt lat="46.68445" lon="7.26183">
        <ele>1605.43</ele>
        <time>2020-06-12T12:27:33.721Z</time>
      </trkpt>
      <trkpt lat="46.68454" lon="7.2619">
        <ele>1605.17</ele>
        <time>2020-06-12T12:27:36.668Z</time>
      </trkpt>
      <trkpt lat="46.68456" lon="7.26191">
        <ele>1605.1</ele>
        <time>2020-06-12T12:27:37.231Z</time>
      </trkpt>
      <trkpt lat="46.68462" lon="7.26193">
        <ele>1605.18</ele>
        <time>2020-06-12T12:27:43.986Z</time>
      </trkpt>
      <trkpt lat="46.68466" lon="7.26193">
        <ele>1604.74</ele>
        <time>2020-06-12T12:27:44.854Z</time>
      </trkpt>
      <trkpt lat="46.68471" lon="7.26194">
        <ele>1604.3</ele>
        <time>2020-06-12T12:27:45.948Z</time>
      </trkpt>
      <trkpt lat="46.68471" lon="7.26194">
        <ele>1604.26</ele>
        <time>2020-06-12T12:27:45.948Z</time>
      </trkpt>
      <trkpt lat="46.68475" lon="7.26196">
        <ele>1603.5</ele>
        <time>2020-06-12T12:27:46.866Z</time>
      </trkpt>
      <trkpt lat="46.68478" lon="7.26201">
        <ele>1603.91</ele>
        <time>2020-06-12T12:27:57.303Z</time>
      </trkpt>
      <trkpt lat="46.68483" lon="7.26208">
        <ele>1604.44</ele>
        <time>2020-06-12T12:28:11.479Z</time>
      </trkpt>
      <trkpt lat="46.68488" lon="7.26214">
        <ele>1605.02</ele>
        <time>2020-06-12T12:28:26.258Z</time>
      </trkpt>
      <trkpt lat="46.68492" lon="7.26218">
        <ele>1605.18</ele>
        <time>2020-06-12T12:28:32.978Z</time>
      </trkpt>
      <trkpt lat="46.68496" lon="7.26221">
        <ele>1605.33</ele>
        <time>2020-06-12T12:28:39.240Z</time>
      </trkpt>
      <trkpt lat="46.68505" lon="7.26227">
        <ele>1605.98</ele>
        <time>2020-06-12T12:28:57.886Z</time>
      </trkpt>
      <trkpt lat="46.68511" lon="7.26232">
        <ele>1606.26</ele>
        <time>2020-06-12T12:29:08.510Z</time>
      </trkpt>
      <trkpt lat="46.68514" lon="7.26234">
        <ele>1606.42</ele>
        <time>2020-06-12T12:29:14.033Z</time>
      </trkpt>
      <trkpt lat="46.68535" lon="7.26249">
        <ele>1607.37</ele>
        <time>2020-06-12T12:29:50.041Z</time>
      </trkpt>
      <trkpt lat="46.68546" lon="7.26257">
        <ele>1607.21</ele>
        <time>2020-06-12T12:29:54.158Z</time>
      </trkpt>
      <trkpt lat="46.68557" lon="7.26265">
        <ele>1607.16</ele>
        <time>2020-06-12T12:30:05.346Z</time>
      </trkpt>
      <trkpt lat="46.68563" lon="7.2627">
        <ele>1607.14</ele>
        <time>2020-06-12T12:30:11.744Z</time>
      </trkpt>
      <trkpt lat="46.68578" lon="7.2628">
        <ele>1607.82</ele>
        <time>2020-06-12T12:30:37.366Z</time>
      </trkpt>
      <trkpt lat="46.68588" lon="7.26286">
        <ele>1608.63</ele>
        <time>2020-06-12T12:30:59.212Z</time>
      </trkpt>
      <trkpt lat="46.68594" lon="7.26289">
        <ele>1607.99</ele>
        <time>2020-06-12T12:31:00.588Z</time>
      </trkpt>
      <trkpt lat="46.686" lon="7.26291">
        <ele>1607.15</ele>
        <time>2020-06-12T12:31:01.923Z</time>
      </trkpt>
      <trkpt lat="46.68607" lon="7.26293">
        <ele>1606.38</ele>
        <time>2020-06-12T12:31:03.470Z</time>
      </trkpt>
      <trkpt lat="46.68616" lon="7.26294">
        <ele>1605.22</ele>
        <time>2020-06-12T12:31:05.428Z</time>
      </trkpt>
      <trkpt lat="46.68621" lon="7.26294">
        <ele>1604.5</ele>
        <time>2020-06-12T12:31:06.512Z</time>
      </trkpt>
      <trkpt lat="46.68622" lon="7.26294">
        <ele>1604.33</ele>
        <time>2020-06-12T12:31:06.729Z</time>
      </trkpt>
      <trkpt lat="46.68625" lon="7.26295">
        <ele>1603.61</ele>
        <time>2020-06-12T12:31:07.397Z</time>
      </trkpt>
      <trkpt lat="46.68628" lon="7.26297">
        <ele>1602.99</ele>
        <time>2020-06-12T12:31:08.112Z</time>
      </trkpt>
      <trkpt lat="46.68643" lon="7.26315">
        <ele>1600.19</ele>
        <time>2020-06-12T12:31:12.327Z</time>
      </trkpt>
      <trkpt lat="46.68647" lon="7.26318">
        <ele>1599.25</ele>
        <time>2020-06-12T12:31:13.302Z</time>
      </trkpt>
      <trkpt lat="46.68652" lon="7.26324">
        <ele>1598.05</ele>
        <time>2020-06-12T12:31:14.707Z</time>
      </trkpt>
      <trkpt lat="46.68656" lon="7.2633">
        <ele>1597.2</ele>
        <time>2020-06-12T12:31:15.952Z</time>
      </trkpt>
      <trkpt lat="46.68665" lon="7.26345">
        <ele>1595.37</ele>
        <time>2020-06-12T12:31:18.917Z</time>
      </trkpt>
      <trkpt lat="46.6867" lon="7.26354">
        <ele>1594.58</ele>
        <time>2020-06-12T12:31:20.641Z</time>
      </trkpt>
      <trkpt lat="46.68672" lon="7.26358">
        <ele>1594.06</ele>
        <time>2020-06-12T12:31:21.377Z</time>
      </trkpt>
      <trkpt lat="46.68672" lon="7.26357">
        <ele>1594.06</ele>
        <time>2020-06-12T12:31:22.040Z</time>
      </trkpt>
      <trkpt lat="46.68676" lon="7.26365">
        <ele>1593.54</ele>
        <time>2020-06-12T12:31:23.513Z</time>
      </trkpt>
      <trkpt lat="46.68678" lon="7.26367">
        <ele>1593.31</ele>
        <time>2020-06-12T12:31:24.039Z</time>
      </trkpt>
      <trkpt lat="46.68682" lon="7.26372">
        <ele>1592.52</ele>
        <time>2020-06-12T12:31:25.182Z</time>
      </trkpt>
      <trkpt lat="46.68684" lon="7.26373">
        <ele>1592.3</ele>
        <time>2020-06-12T12:31:25.641Z</time>
      </trkpt>
      <trkpt lat="46.68686" lon="7.26375">
        <ele>1591.96</ele>
        <time>2020-06-12T12:31:26.167Z</time>
      </trkpt>
      <trkpt lat="46.6869" lon="7.26377">
        <ele>1591.36</ele>
        <time>2020-06-12T12:31:27.084Z</time>
      </trkpt>
      <trkpt lat="46.68693" lon="7.26378">
        <ele>1590.58</ele>
        <time>2020-06-12T12:31:27.752Z</time>
      </trkpt>
      <trkpt lat="46.68701" lon="7.26378">
        <ele>1588.68</ele>
        <time>2020-06-12T12:31:29.487Z</time>
      </trkpt>
      <trkpt lat="46.68708" lon="7.26378">
        <ele>1587.11</ele>
        <time>2020-06-12T12:31:31.005Z</time>
      </trkpt>
      <trkpt lat="46.68716" lon="7.26379">
        <ele>1585.23</ele>
        <time>2020-06-12T12:31:32.747Z</time>
      </trkpt>
      <trkpt lat="46.68722" lon="7.2638">
        <ele>1583.86</ele>
        <time>2020-06-12T12:31:34.057Z</time>
      </trkpt>
      <trkpt lat="46.68728" lon="7.26381">
        <ele>1582.66</ele>
        <time>2020-06-12T12:31:35.367Z</time>
      </trkpt>
      <trkpt lat="46.68734" lon="7.26383">
        <ele>1581.62</ele>
        <time>2020-06-12T12:31:36.702Z</time>
      </trkpt>
      <trkpt lat="46.68736" lon="7.26384">
        <ele>1581.29</ele>
        <time>2020-06-12T12:31:37.161Z</time>
      </trkpt>
      <trkpt lat="46.68743" lon="7.26388">
        <ele>1580.04</ele>
        <time>2020-06-12T12:31:38.791Z</time>
      </trkpt>
      <trkpt lat="46.68759" lon="7.264">
        <ele>1577.48</ele>
        <time>2020-06-12T12:31:42.694Z</time>
      </trkpt>
      <trkpt lat="46.68762" lon="7.26402">
        <ele>1576.95</ele>
        <time>2020-06-12T12:31:43.410Z</time>
      </trkpt>
      <trkpt lat="46.68767" lon="7.26404">
        <ele>1575.62</ele>
        <time>2020-06-12T12:31:44.534Z</time>
      </trkpt>
      <trkpt lat="46.68773" lon="7.26405">
        <ele>1573.53</ele>
        <time>2020-06-12T12:31:45.844Z</time>
      </trkpt>
      <trkpt lat="46.68779" lon="7.26406">
        <ele>1571.89</ele>
        <time>2020-06-12T12:31:47.154Z</time>
      </trkpt>
      <trkpt lat="46.68783" lon="7.26409">
        <ele>1570.77</ele>
        <time>2020-06-12T12:31:48.130Z</time>
      </trkpt>
      <trkpt lat="46.68784" lon="7.2641">
        <ele>1570.5</ele>
        <time>2020-06-12T12:31:48.393Z</time>
      </trkpt>
      <trkpt lat="46.68787" lon="7.26412">
        <ele>1570.06</ele>
        <time>2020-06-12T12:31:49.109Z</time>
      </trkpt>
      <trkpt lat="46.6879" lon="7.26416">
        <ele>1569.47</ele>
        <time>2020-06-12T12:31:49.990Z</time>
      </trkpt>
      <trkpt lat="46.68793" lon="7.26418">
        <ele>1568.68</ele>
        <time>2020-06-12T12:31:50.706Z</time>
      </trkpt>
      <trkpt lat="46.68796" lon="7.2642">
        <ele>1567.6</ele>
        <time>2020-06-12T12:31:51.422Z</time>
      </trkpt>
      <trkpt lat="46.68808" lon="7.26425">
        <ele>1563.62</ele>
        <time>2020-06-12T12:31:54.129Z</time>
      </trkpt>
      <trkpt lat="46.68811" lon="7.26428">
        <ele>1562.58</ele>
        <time>2020-06-12T12:31:54.918Z</time>
      </trkpt>
      <trkpt lat="46.68818" lon="7.26435">
        <ele>1561.26</ele>
        <time>2020-06-12T12:31:56.759Z</time>
      </trkpt>
      <trkpt lat="46.68827" lon="7.26445">
        <ele>1559.88</ele>
        <time>2020-06-12T12:31:59.214Z</time>
      </trkpt>
      <trkpt lat="46.68832" lon="7.26451">
        <ele>1559</ele>
        <time>2020-06-12T12:32:00.618Z</time>
      </trkpt>
      <trkpt lat="46.68842" lon="7.26461">
        <ele>1556.74</ele>
        <time>2020-06-12T12:32:03.249Z</time>
      </trkpt>
      <trkpt lat="46.68847" lon="7.26465">
        <ele>1555.62</ele>
        <time>2020-06-12T12:32:04.486Z</time>
      </trkpt>
      <trkpt lat="46.6885" lon="7.26466">
        <ele>1554.93</ele>
        <time>2020-06-12T12:32:05.153Z</time>
      </trkpt>
      <trkpt lat="46.68857" lon="7.26468">
        <ele>1553.29</ele>
        <time>2020-06-12T12:32:06.701Z</time>
      </trkpt>
      <trkpt lat="46.68858" lon="7.26468">
        <ele>1552.98</ele>
        <time>2020-06-12T12:32:06.917Z</time>
      </trkpt>
      <trkpt lat="46.68873" lon="7.2647">
        <ele>1548.97</ele>
        <time>2020-06-12T12:32:10.185Z</time>
      </trkpt>
      <trkpt lat="46.68883" lon="7.26471">
        <ele>1546.25</ele>
        <time>2020-06-12T12:32:12.359Z</time>
      </trkpt>
      <trkpt lat="46.68904" lon="7.26476">
        <ele>1540.45</ele>
        <time>2020-06-12T12:32:16.974Z</time>
      </trkpt>
      <trkpt lat="46.68921" lon="7.26479">
        <ele>1536.84</ele>
        <time>2020-06-12T12:32:20.689Z</time>
      </trkpt>
      <trkpt lat="46.68939" lon="7.26484">
        <ele>1533.35</ele>
        <time>2020-06-12T12:32:24.663Z</time>
      </trkpt>
      <trkpt lat="46.68954" lon="7.26487">
        <ele>1530.79</ele>
        <time>2020-06-12T12:32:27.947Z</time>
      </trkpt>
      <trkpt lat="46.68968" lon="7.26492">
        <ele>1529.32</ele>
        <time>2020-06-12T12:32:31.074Z</time>
      </trkpt>
      <trkpt lat="46.68972" lon="7.26493">
        <ele>1528.54</ele>
        <time>2020-06-12T12:32:31.954Z</time>
      </trkpt>
      <trkpt lat="46.69004" lon="7.26498">
        <ele>1524.28</ele>
        <time>2020-06-12T12:32:38.935Z</time>
      </trkpt>
      <trkpt lat="46.69011" lon="7.265">
        <ele>1523.45</ele>
        <time>2020-06-12T12:32:40.482Z</time>
      </trkpt>
      <trkpt lat="46.69017" lon="7.26501">
        <ele>1522.62</ele>
        <time>2020-06-12T12:32:41.792Z</time>
      </trkpt>
      <trkpt lat="46.69026" lon="7.26503">
        <ele>1521.96</ele>
        <time>2020-06-12T12:32:43.767Z</time>
      </trkpt>
      <trkpt lat="46.69032" lon="7.26505">
        <ele>1521.35</ele>
        <time>2020-06-12T12:32:45.102Z</time>
      </trkpt>
      <trkpt lat="46.69038" lon="7.26507">
        <ele>1520.74</ele>
        <time>2020-06-12T12:32:46.437Z</time>
      </trkpt>
      <trkpt lat="46.69046" lon="7.26509">
        <ele>1519.46</ele>
        <time>2020-06-12T12:32:48.197Z</time>
      </trkpt>
      <trkpt lat="46.69059" lon="7.26509">
        <ele>1517.73</ele>
        <time>2020-06-12T12:32:51.017Z</time>
      </trkpt>
      <trkpt lat="46.69064" lon="7.26509">
        <ele>1517.12</ele>
        <time>2020-06-12T12:32:52.102Z</time>
      </trkpt>
      <trkpt lat="46.69066" lon="7.26509">
        <ele>1516.87</ele>
        <time>2020-06-12T12:32:52.536Z</time>
      </trkpt>
      <trkpt lat="46.69069" lon="7.26506">
        <ele>1516.7</ele>
        <time>2020-06-12T12:32:53.387Z</time>
      </trkpt>
      <trkpt lat="46.69073" lon="7.26503">
        <ele>1516.38</ele>
        <time>2020-06-12T12:32:54.363Z</time>
      </trkpt>
      <trkpt lat="46.69084" lon="7.26492">
        <ele>1516.19</ele>
        <time>2020-06-12T12:32:58.761Z</time>
      </trkpt>
      <trkpt lat="46.6909" lon="7.26487">
        <ele>1516.05</ele>
        <time>2020-06-12T12:33:00.880Z</time>
      </trkpt>
      <trkpt lat="46.69092" lon="7.26486">
        <ele>1516.17</ele>
        <time>2020-06-12T12:33:04.620Z</time>
      </trkpt>
      <trkpt lat="46.69096" lon="7.26486">
        <ele>1516.43</ele>
        <time>2020-06-12T12:33:12.119Z</time>
      </trkpt>
      <trkpt lat="46.69101" lon="7.2649">
        <ele>1516.76</ele>
        <time>2020-06-12T12:33:22.284Z</time>
      </trkpt>
      <trkpt lat="46.69106" lon="7.26494">
        <ele>1517.22</ele>
        <time>2020-06-12T12:33:34.349Z</time>
      </trkpt>
      <trkpt lat="46.6911" lon="7.26497">
        <ele>1517.47</ele>
        <time>2020-06-12T12:33:42.241Z</time>
      </trkpt>
      <trkpt lat="46.69111" lon="7.26501">
        <ele>1517.75</ele>
        <time>2020-06-12T12:33:49.300Z</time>
      </trkpt>
      <trkpt lat="46.69114" lon="7.26509">
        <ele>1518.34</ele>
        <time>2020-06-12T12:34:04.202Z</time>
      </trkpt>
      <trkpt lat="46.69122" lon="7.26519">
        <ele>1519.65</ele>
        <time>2020-06-12T12:34:38.922Z</time>
      </trkpt>
      <trkpt lat="46.69126" lon="7.26524">
        <ele>1520.24</ele>
        <time>2020-06-12T12:34:53.919Z</time>
      </trkpt>
      <trkpt lat="46.69133" lon="7.26531">
        <ele>1521.25</ele>
        <time>2020-06-12T12:35:20.105Z</time>
      </trkpt>
      <trkpt lat="46.69146" lon="7.26544">
        <ele>1523.14</ele>
        <time>2020-06-12T12:36:09.269Z</time>
      </trkpt>
      <trkpt lat="46.69159" lon="7.26557">
        <ele>1525.04</ele>
        <time>2020-06-12T12:36:58.813Z</time>
      </trkpt>
      <trkpt lat="46.69159" lon="7.26558">
        <ele>1525.73</ele>
        <time>2020-06-12T12:37:01.371Z</time>
      </trkpt>
      <trkpt lat="46.69159" lon="7.26557">
        <ele>1525.73</ele>
        <time>2020-06-12T12:37:02.034Z</time>
      </trkpt>
      <trkpt lat="46.69167" lon="7.26567">
        <ele>1526.42</ele>
        <time>2020-06-12T12:37:21.859Z</time>
      </trkpt>
      <trkpt lat="46.69174" lon="7.26576">
        <ele>1526.95</ele>
        <time>2020-06-12T12:37:38.371Z</time>
      </trkpt>
      <trkpt lat="46.69181" lon="7.26586">
        <ele>1527.32</ele>
        <time>2020-06-12T12:37:52.855Z</time>
      </trkpt>
      <trkpt lat="46.69186" lon="7.26594">
        <ele>1527.56</ele>
        <time>2020-06-12T12:38:03.052Z</time>
      </trkpt>
      <trkpt lat="46.69193" lon="7.26608">
        <ele>1527.12</ele>
        <time>2020-06-12T12:38:06.097Z</time>
      </trkpt>
      <trkpt lat="46.69191" lon="7.26613">
        <ele>1526.72</ele>
        <time>2020-06-12T12:38:06.959Z</time>
      </trkpt>
      <trkpt lat="46.6919" lon="7.26617">
        <ele>1526.4</ele>
        <time>2020-06-12T12:38:07.592Z</time>
      </trkpt>
      <trkpt lat="46.6919" lon="7.26622">
        <ele>1526.37</ele>
        <time>2020-06-12T12:38:08.807Z</time>
      </trkpt>
      <trkpt lat="46.6919" lon="7.26628">
        <ele>1525.63</ele>
        <time>2020-06-12T12:38:09.699Z</time>
      </trkpt>
      <trkpt lat="46.69192" lon="7.26634">
        <ele>1525.39</ele>
        <time>2020-06-12T12:38:10.719Z</time>
      </trkpt>
      <trkpt lat="46.69195" lon="7.26641">
        <ele>1524.89</ele>
        <time>2020-06-12T12:38:11.947Z</time>
      </trkpt>
      <trkpt lat="46.69198" lon="7.26646">
        <ele>1524.48</ele>
        <time>2020-06-12T12:38:12.935Z</time>
      </trkpt>
      <trkpt lat="46.69202" lon="7.2665">
        <ele>1524.2</ele>
        <time>2020-06-12T12:38:13.969Z</time>
      </trkpt>
      <trkpt lat="46.69201" lon="7.2665">
        <ele>1524.2</ele>
        <time>2020-06-12T12:38:14.936Z</time>
      </trkpt>
      <trkpt lat="46.69203" lon="7.26651">
        <ele>1523.92</ele>
        <time>2020-06-12T12:38:15.394Z</time>
      </trkpt>
      <trkpt lat="46.6921" lon="7.26656">
        <ele>1523.27</ele>
        <time>2020-06-12T12:38:17.085Z</time>
      </trkpt>
      <trkpt lat="46.69219" lon="7.26661">
        <ele>1522.55</ele>
        <time>2020-06-12T12:38:19.174Z</time>
      </trkpt>
      <trkpt lat="46.69233" lon="7.26667">
        <ele>1521.51</ele>
        <time>2020-06-12T12:38:22.339Z</time>
      </trkpt>
      <trkpt lat="46.69257" lon="7.26677">
        <ele>1519.82</ele>
        <time>2020-06-12T12:38:27.754Z</time>
      </trkpt>
      <trkpt lat="46.6927" lon="7.26682">
        <ele>1518.57</ele>
        <time>2020-06-12T12:38:30.670Z</time>
      </trkpt>
      <trkpt lat="46.69281" lon="7.26688">
        <ele>1517.35</ele>
        <time>2020-06-12T12:38:33.217Z</time>
      </trkpt>
      <trkpt lat="46.69287" lon="7.26691">
        <ele>1516.84</ele>
        <time>2020-06-12T12:38:34.593Z</time>
      </trkpt>
      <trkpt lat="46.69292" lon="7.26695">
        <ele>1516.04</ele>
        <time>2020-06-12T12:38:35.830Z</time>
      </trkpt>
      <trkpt lat="46.69297" lon="7.26701">
        <ele>1515.21</ele>
        <time>2020-06-12T12:38:37.235Z</time>
      </trkpt>
      <trkpt lat="46.69301" lon="7.26709">
        <ele>1514.46</ele>
        <time>2020-06-12T12:38:38.708Z</time>
      </trkpt>
      <trkpt lat="46.69307" lon="7.26724">
        <ele>1513.28</ele>
        <time>2020-06-12T12:38:41.291Z</time>
      </trkpt>
      <trkpt lat="46.69312" lon="7.26742">
        <ele>1511.85</ele>
        <time>2020-06-12T12:38:44.181Z</time>
      </trkpt>
      <trkpt lat="46.69315" lon="7.26762">
        <ele>1510.46</ele>
        <time>2020-06-12T12:38:47.227Z</time>
      </trkpt>
      <trkpt lat="46.69318" lon="7.26772">
        <ele>1509.75</ele>
        <time>2020-06-12T12:38:48.850Z</time>
      </trkpt>
      <trkpt lat="46.69322" lon="7.2678">
        <ele>1509.01</ele>
        <time>2020-06-12T12:38:50.323Z</time>
      </trkpt>
      <trkpt lat="46.69329" lon="7.26789">
        <ele>1507.7</ele>
        <time>2020-06-12T12:38:52.348Z</time>
      </trkpt>
      <trkpt lat="46.69335" lon="7.26797">
        <ele>1506.55</ele>
        <time>2020-06-12T12:38:54.111Z</time>
      </trkpt>
      <trkpt lat="46.69338" lon="7.26804">
        <ele>1505.67</ele>
        <time>2020-06-12T12:38:55.339Z</time>
      </trkpt>
      <trkpt lat="46.69342" lon="7.26815">
        <ele>1504.37</ele>
        <time>2020-06-12T12:38:57.192Z</time>
      </trkpt>
      <trkpt lat="46.69346" lon="7.26829">
        <ele>1503.25</ele>
        <time>2020-06-12T12:38:59.448Z</time>
      </trkpt>
      <trkpt lat="46.69348" lon="7.26841">
        <ele>1501.96</ele>
        <time>2020-06-12T12:39:01.285Z</time>
      </trkpt>
      <trkpt lat="46.69349" lon="7.26854">
        <ele>1500.85</ele>
        <time>2020-06-12T12:39:03.232Z</time>
      </trkpt>
      <trkpt lat="46.6935" lon="7.26885">
        <ele>1498.45</ele>
        <time>2020-06-12T12:39:07.849Z</time>
      </trkpt>
      <trkpt lat="46.69353" lon="7.26909">
        <ele>1495.96</ele>
        <time>2020-06-12T12:39:11.478Z</time>
      </trkpt>
      <trkpt lat="46.69355" lon="7.26938">
        <ele>1492.84</ele>
        <time>2020-06-12T12:39:15.815Z</time>
      </trkpt>
      <trkpt lat="46.69356" lon="7.26953">
        <ele>1491.75</ele>
        <time>2020-06-12T12:39:18.057Z</time>
      </trkpt>
      <trkpt lat="46.69359" lon="7.26967">
        <ele>1490.32</ele>
        <time>2020-06-12T12:39:20.239Z</time>
      </trkpt>
      <trkpt lat="46.69365" lon="7.26998">
        <ele>1488.04</ele>
        <time>2020-06-12T12:39:25.031Z</time>
      </trkpt>
      <trkpt lat="46.6937" lon="7.27021">
        <ele>1486.23</ele>
        <time>2020-06-12T12:39:28.621Z</time>
      </trkpt>
      <trkpt lat="46.69372" lon="7.27031">
        <ele>1485.48</ele>
        <time>2020-06-12T12:39:30.170Z</time>
      </trkpt>
      <trkpt lat="46.69373" lon="7.27038">
        <ele>1484.92</ele>
        <time>2020-06-12T12:39:31.234Z</time>
      </trkpt>
      <trkpt lat="46.69374" lon="7.27059">
        <ele>1483.31</ele>
        <time>2020-06-12T12:39:34.366Z</time>
      </trkpt>
      <trkpt lat="46.69376" lon="7.27116">
        <ele>1480.58</ele>
        <time>2020-06-12T12:39:42.857Z</time>
      </trkpt>
      <trkpt lat="46.69376" lon="7.27115">
        <ele>1480.58</ele>
        <time>2020-06-12T12:39:43.521Z</time>
      </trkpt>
      <trkpt lat="46.69376" lon="7.2712">
        <ele>1477.86</ele>
        <time>2020-06-12T12:39:44.264Z</time>
      </trkpt>
      <trkpt lat="46.69377" lon="7.27138">
        <ele>1476.06</ele>
        <time>2020-06-12T12:39:46.951Z</time>
      </trkpt>
      <trkpt lat="46.69378" lon="7.27146">
        <ele>1475.27</ele>
        <time>2020-06-12T12:39:48.161Z</time>
      </trkpt>
      <trkpt lat="46.69377" lon="7.27154">
        <ele>1474.51</ele>
        <time>2020-06-12T12:39:49.371Z</time>
      </trkpt>
      <trkpt lat="46.69376" lon="7.27168">
        <ele>1473.1</ele>
        <time>2020-06-12T12:39:51.465Z</time>
      </trkpt>
      <trkpt lat="46.69373" lon="7.27199">
        <ele>1470.19</ele>
        <time>2020-06-12T12:39:56.123Z</time>
      </trkpt>
      <trkpt lat="46.69372" lon="7.27208">
        <ele>1469.4</ele>
        <time>2020-06-12T12:39:57.479Z</time>
      </trkpt>
      <trkpt lat="46.69372" lon="7.27219">
        <ele>1468.69</ele>
        <time>2020-06-12T12:39:59.116Z</time>
      </trkpt>
      <trkpt lat="46.69374" lon="7.27231">
        <ele>1467.92</ele>
        <time>2020-06-12T12:40:00.953Z</time>
      </trkpt>
      <trkpt lat="46.69376" lon="7.27243">
        <ele>1467.35</ele>
        <time>2020-06-12T12:40:02.790Z</time>
      </trkpt>
      <trkpt lat="46.69378" lon="7.27258">
        <ele>1466.96</ele>
        <time>2020-06-12T12:40:05.472Z</time>
      </trkpt>
      <trkpt lat="46.6938" lon="7.27271">
        <ele>1466.5</ele>
        <time>2020-06-12T12:40:07.544Z</time>
      </trkpt>
      <trkpt lat="46.69382" lon="7.27284">
        <ele>1465.94</ele>
        <time>2020-06-12T12:40:09.437Z</time>
      </trkpt>
      <trkpt lat="46.69385" lon="7.27295">
        <ele>1465.34</ele>
        <time>2020-06-12T12:40:11.198Z</time>
      </trkpt>
      <trkpt lat="46.69388" lon="7.27302">
        <ele>1464.89</ele>
        <time>2020-06-12T12:40:12.426Z</time>
      </trkpt>
      <trkpt lat="46.69399" lon="7.27319">
        <ele>1463.88</ele>
        <time>2020-06-12T12:40:15.702Z</time>
      </trkpt>
      <trkpt lat="46.69409" lon="7.27329">
        <ele>1463.18</ele>
        <time>2020-06-12T12:40:18.287Z</time>
      </trkpt>
      <trkpt lat="46.69416" lon="7.27338">
        <ele>1462.6</ele>
        <time>2020-06-12T12:40:20.208Z</time>
      </trkpt>
      <trkpt lat="46.6942" lon="7.27344">
        <ele>1462.18</ele>
        <time>2020-06-12T12:40:21.452Z</time>
      </trkpt>
      <trkpt lat="46.69422" lon="7.2735">
        <ele>1461.68</ele>
        <time>2020-06-12T12:40:22.445Z</time>
      </trkpt>
      <trkpt lat="46.69424" lon="7.27357">
        <ele>1461.15</ele>
        <time>2020-06-12T12:40:23.573Z</time>
      </trkpt>
      <trkpt lat="46.69426" lon="7.27365">
        <ele>1460.43</ele>
        <time>2020-06-12T12:40:24.840Z</time>
      </trkpt>
      <trkpt lat="46.69427" lon="7.27375">
        <ele>1459.47</ele>
        <time>2020-06-12T12:40:26.343Z</time>
      </trkpt>
      <trkpt lat="46.69428" lon="7.27388">
        <ele>1458.21</ele>
        <time>2020-06-12T12:40:28.290Z</time>
      </trkpt>
      <trkpt lat="46.6943" lon="7.274">
        <ele>1457.05</ele>
        <time>2020-06-12T12:40:30.127Z</time>
      </trkpt>
      <trkpt lat="46.69432" lon="7.27411">
        <ele>1455.93</ele>
        <time>2020-06-12T12:40:31.820Z</time>
      </trkpt>
      <trkpt lat="46.69434" lon="7.27419">
        <ele>1455.07</ele>
        <time>2020-06-12T12:40:33.087Z</time>
      </trkpt>
      <trkpt lat="46.69435" lon="7.27428">
        <ele>1454.09</ele>
        <time>2020-06-12T12:40:34.443Z</time>
      </trkpt>
      <trkpt lat="46.69436" lon="7.27454">
        <ele>1451.52</ele>
        <time>2020-06-12T12:40:38.317Z</time>
      </trkpt>
      <trkpt lat="46.69436" lon="7.27495">
        <ele>1447.29</ele>
        <time>2020-06-12T12:40:44.417Z</time>
      </trkpt>
      <trkpt lat="46.69436" lon="7.27506">
        <ele>1446.24</ele>
        <time>2020-06-12T12:40:46.054Z</time>
      </trkpt>
      <trkpt lat="46.69438" lon="7.27519">
        <ele>1445.02</ele>
        <time>2020-06-12T12:40:48.036Z</time>
      </trkpt>
      <trkpt lat="46.69445" lon="7.27555">
        <ele>1441.15</ele>
        <time>2020-06-12T12:40:53.603Z</time>
      </trkpt>
      <trkpt lat="46.69448" lon="7.27579">
        <ele>1438.72</ele>
        <time>2020-06-12T12:40:57.232Z</time>
      </trkpt>
      <trkpt lat="46.69456" lon="7.27637">
        <ele>1433.03</ele>
        <time>2020-06-12T12:41:06.034Z</time>
      </trkpt>
      <trkpt lat="46.69456" lon="7.27648">
        <ele>1432.49</ele>
        <time>2020-06-12T12:41:07.670Z</time>
      </trkpt>
      <trkpt lat="46.69456" lon="7.27647">
        <ele>1432.49</ele>
        <time>2020-06-12T12:41:08.333Z</time>
      </trkpt>
      <trkpt lat="46.69456" lon="7.27651">
        <ele>1431.96</ele>
        <time>2020-06-12T12:41:08.929Z</time>
      </trkpt>
      <trkpt lat="46.69457" lon="7.27682">
        <ele>1430.16</ele>
        <time>2020-06-12T12:41:13.546Z</time>
      </trkpt>
      <trkpt lat="46.69458" lon="7.27691">
        <ele>1429.62</ele>
        <time>2020-06-12T12:41:14.902Z</time>
      </trkpt>
      <trkpt lat="46.69459" lon="7.27698">
        <ele>1429.02</ele>
        <time>2020-06-12T12:41:15.966Z</time>
      </trkpt>
      <trkpt lat="46.69462" lon="7.27706">
        <ele>1428.6</ele>
        <time>2020-06-12T12:41:17.322Z</time>
      </trkpt>
      <trkpt lat="46.69468" lon="7.2772">
        <ele>1428.04</ele>
        <time>2020-06-12T12:41:19.910Z</time>
      </trkpt>
      <trkpt lat="46.69476" lon="7.27733">
        <ele>1427.34</ele>
        <time>2020-06-12T12:41:22.449Z</time>
      </trkpt>
      <trkpt lat="46.69486" lon="7.27748">
        <ele>1426.56</ele>
        <time>2020-06-12T12:41:25.593Z</time>
      </trkpt>
      <trkpt lat="46.69494" lon="7.27761">
        <ele>1426.01</ele>
        <time>2020-06-12T12:41:28.418Z</time>
      </trkpt>
      <trkpt lat="46.69496" lon="7.27768">
        <ele>1425.82</ele>
        <time>2020-06-12T12:41:29.757Z</time>
      </trkpt>
      <trkpt lat="46.69498" lon="7.27776">
        <ele>1425.43</ele>
        <time>2020-06-12T12:41:31.024Z</time>
      </trkpt>
      <trkpt lat="46.69501" lon="7.27793">
        <ele>1424.76</ele>
        <time>2020-06-12T12:41:33.634Z</time>
      </trkpt>
      <trkpt lat="46.69506" lon="7.27813">
        <ele>1423.96</ele>
        <time>2020-06-12T12:41:36.822Z</time>
      </trkpt>
      <trkpt lat="46.69511" lon="7.27831">
        <ele>1423.1</ele>
        <time>2020-06-12T12:41:39.512Z</time>
      </trkpt>
      <trkpt lat="46.69534" lon="7.2791">
        <ele>1420.02</ele>
        <time>2020-06-12T12:41:52.635Z</time>
      </trkpt>
      <trkpt lat="46.69544" lon="7.27944">
        <ele>1419.09</ele>
        <time>2020-06-12T12:41:59.162Z</time>
      </trkpt>
      <trkpt lat="46.69548" lon="7.27956">
        <ele>1418.6</ele>
        <time>2020-06-12T12:42:01.181Z</time>
      </trkpt>
      <trkpt lat="46.69552" lon="7.27966">
        <ele>1417.92</ele>
        <time>2020-06-12T12:42:02.904Z</time>
      </trkpt>
      <trkpt lat="46.69557" lon="7.27978">
        <ele>1417.19</ele>
        <time>2020-06-12T12:42:04.993Z</time>
      </trkpt>
      <trkpt lat="46.69566" lon="7.27994">
        <ele>1416.11</ele>
        <time>2020-06-12T12:42:08.071Z</time>
      </trkpt>
      <trkpt lat="46.69575" lon="7.2801">
        <ele>1414.99</ele>
        <time>2020-06-12T12:42:11.149Z</time>
      </trkpt>
      <trkpt lat="46.69582" lon="7.28025">
        <ele>1414</ele>
        <time>2020-06-12T12:42:13.849Z</time>
      </trkpt>
      <trkpt lat="46.69604" lon="7.28072">
        <ele>1410.31</ele>
        <time>2020-06-12T12:42:22.314Z</time>
      </trkpt>
      <trkpt lat="46.69612" lon="7.28089">
        <ele>1408.6</ele>
        <time>2020-06-12T12:42:25.381Z</time>
      </trkpt>
      <trkpt lat="46.69618" lon="7.28099">
        <ele>1407.66</ele>
        <time>2020-06-12T12:42:27.358Z</time>
      </trkpt>
      <trkpt lat="46.69622" lon="7.28104">
        <ele>1406.96</ele>
        <time>2020-06-12T12:42:28.501Z</time>
      </trkpt>
      <trkpt lat="46.69626" lon="7.28109">
        <ele>1406.33</ele>
        <time>2020-06-12T12:42:29.643Z</time>
      </trkpt>
      <trkpt lat="46.69631" lon="7.28112">
        <ele>1405.65</ele>
        <time>2020-06-12T12:42:30.816Z</time>
      </trkpt>
      <trkpt lat="46.69637" lon="7.28115">
        <ele>1405.07</ele>
        <time>2020-06-12T12:42:32.192Z</time>
      </trkpt>
      <trkpt lat="46.69641" lon="7.28117">
        <ele>1404.64</ele>
        <time>2020-06-12T12:42:33.109Z</time>
      </trkpt>
      <trkpt lat="46.69644" lon="7.28121">
        <ele>1404.39</ele>
        <time>2020-06-12T12:42:33.950Z</time>
      </trkpt>
      <trkpt lat="46.69646" lon="7.28126">
        <ele>1403.97</ele>
        <time>2020-06-12T12:42:34.811Z</time>
      </trkpt>
      <trkpt lat="46.69647" lon="7.2813">
        <ele>1403.83</ele>
        <time>2020-06-12T12:42:35.487Z</time>
      </trkpt>
      <trkpt lat="46.69646" lon="7.28134">
        <ele>1403.5</ele>
        <time>2020-06-12T12:42:36.121Z</time>
      </trkpt>
      <trkpt lat="46.69645" lon="7.28137">
        <ele>1403.27</ele>
        <time>2020-06-12T12:42:36.617Z</time>
      </trkpt>
      <trkpt lat="46.69643" lon="7.2814">
        <ele>1402.96</ele>
        <time>2020-06-12T12:42:37.239Z</time>
      </trkpt>
      <trkpt lat="46.69641" lon="7.28141">
        <ele>1402.71</ele>
        <time>2020-06-12T12:42:37.698Z</time>
      </trkpt>
      <trkpt lat="46.69639" lon="7.28142">
        <ele>1402.53</ele>
        <time>2020-06-12T12:42:38.157Z</time>
      </trkpt>
      <trkpt lat="46.69636" lon="7.28141">
        <ele>1402.31</ele>
        <time>2020-06-12T12:42:38.824Z</time>
      </trkpt>
      <trkpt lat="46.69631" lon="7.2814">
        <ele>1401.85</ele>
        <time>2020-06-12T12:42:39.919Z</time>
      </trkpt>
      <trkpt lat="46.69626" lon="7.28136">
        <ele>1401.25</ele>
        <time>2020-06-12T12:42:41.156Z</time>
      </trkpt>
      <trkpt lat="46.69615" lon="7.28129">
        <ele>1400.06</ele>
        <time>2020-06-12T12:42:43.759Z</time>
      </trkpt>
      <trkpt lat="46.69597" lon="7.28118">
        <ele>1398.6</ele>
        <time>2020-06-12T12:42:47.993Z</time>
      </trkpt>
      <trkpt lat="46.69596" lon="7.28118">
        <ele>1398.6</ele>
        <time>2020-06-12T12:42:48.959Z</time>
      </trkpt>
      <trkpt lat="46.69591" lon="7.28114">
        <ele>1397.13</ele>
        <time>2020-06-12T12:42:50.197Z</time>
      </trkpt>
      <trkpt lat="46.6958" lon="7.28107">
        <ele>1395.85</ele>
        <time>2020-06-12T12:42:52.800Z</time>
      </trkpt>
      <trkpt lat="46.6957" lon="7.28101">
        <ele>1394.79</ele>
        <time>2020-06-12T12:42:55.145Z</time>
      </trkpt>
      <trkpt lat="46.69562" lon="7.28097">
        <ele>1393.76</ele>
        <time>2020-06-12T12:42:56.980Z</time>
      </trkpt>
      <trkpt lat="46.69553" lon="7.28094">
        <ele>1392.66</ele>
        <time>2020-06-12T12:42:58.982Z</time>
      </trkpt>
      <trkpt lat="46.69544" lon="7.2809">
        <ele>1391.53</ele>
        <time>2020-06-12T12:43:01.023Z</time>
      </trkpt>
      <trkpt lat="46.69531" lon="7.28085">
        <ele>1390.02</ele>
        <time>2020-06-12T12:43:03.940Z</time>
      </trkpt>
      <trkpt lat="46.69517" lon="7.2808">
        <ele>1388.17</ele>
        <time>2020-06-12T12:43:07.066Z</time>
      </trkpt>
      <trkpt lat="46.69504" lon="7.28076">
        <ele>1386.31</ele>
        <time>2020-06-12T12:43:09.948Z</time>
      </trkpt>
      <trkpt lat="46.69492" lon="7.28074">
        <ele>1385.01</ele>
        <time>2020-06-12T12:43:12.568Z</time>
      </trkpt>
      <trkpt lat="46.69486" lon="7.28074">
        <ele>1384.18</ele>
        <time>2020-06-12T12:43:13.869Z</time>
      </trkpt>
      <trkpt lat="46.69474" lon="7.28077">
        <ele>1382.67</ele>
        <time>2020-06-12T12:43:16.510Z</time>
      </trkpt>
      <trkpt lat="46.6947" lon="7.28078">
        <ele>1382.13</ele>
        <time>2020-06-12T12:43:17.391Z</time>
      </trkpt>
      <trkpt lat="46.69466" lon="7.28077">
        <ele>1381.65</ele>
        <time>2020-06-12T12:43:18.271Z</time>
      </trkpt>
      <trkpt lat="46.69463" lon="7.28075">
        <ele>1381.2</ele>
        <time>2020-06-12T12:43:18.986Z</time>
      </trkpt>
      <trkpt lat="46.69458" lon="7.28071">
        <ele>1380.53</ele>
        <time>2020-06-12T12:43:20.223Z</time>
      </trkpt>
      <trkpt lat="46.69455" lon="7.28066">
        <ele>1379.86</ele>
        <time>2020-06-12T12:43:21.212Z</time>
      </trkpt>
      <trkpt lat="46.69451" lon="7.28061">
        <ele>1379.17</ele>
        <time>2020-06-12T12:43:22.355Z</time>
      </trkpt>
      <trkpt lat="46.6944" lon="7.28042">
        <ele>1377.25</ele>
        <time>2020-06-12T12:43:26.054Z</time>
      </trkpt>
      <trkpt lat="46.69436" lon="7.28034">
        <ele>1376.63</ele>
        <time>2020-06-12T12:43:27.527Z</time>
      </trkpt>
      <trkpt lat="46.69432" lon="7.28026">
        <ele>1375.94</ele>
        <time>2020-06-12T12:43:28.999Z</time>
      </trkpt>
      <trkpt lat="46.69419" lon="7.28006">
        <ele>1374.58</ele>
        <time>2020-06-12T12:43:33.099Z</time>
      </trkpt>
      <trkpt lat="46.69415" lon="7.28002">
        <ele>1374.23</ele>
        <time>2020-06-12T12:43:34.151Z</time>
      </trkpt>
      <trkpt lat="46.6941" lon="7.27999">
        <ele>1373.65</ele>
        <time>2020-06-12T12:43:35.324Z</time>
      </trkpt>
      <trkpt lat="46.69406" lon="7.27997">
        <ele>1373.51</ele>
        <time>2020-06-12T12:43:36.451Z</time>
      </trkpt>
      <trkpt lat="46.69402" lon="7.27997">
        <ele>1373.13</ele>
        <time>2020-06-12T12:43:37.318Z</time>
      </trkpt>
      <trkpt lat="46.69392" lon="7.27997">
        <ele>1372.23</ele>
        <time>2020-06-12T12:43:39.487Z</time>
      </trkpt>
      <trkpt lat="46.69387" lon="7.27997">
        <ele>1371.75</ele>
        <time>2020-06-12T12:43:40.572Z</time>
      </trkpt>
      <trkpt lat="46.69383" lon="7.27996">
        <ele>1371.54</ele>
        <time>2020-06-12T12:43:41.481Z</time>
      </trkpt>
      <trkpt lat="46.69379" lon="7.27995">
        <ele>1371.07</ele>
        <time>2020-06-12T12:43:42.361Z</time>
      </trkpt>
      <trkpt lat="46.69376" lon="7.27993">
        <ele>1370.83</ele>
        <time>2020-06-12T12:43:43.077Z</time>
      </trkpt>
      <trkpt lat="46.69364" lon="7.27982">
        <ele>1369.32</ele>
        <time>2020-06-12T12:43:46.152Z</time>
      </trkpt>
      <trkpt lat="46.69347" lon="7.27964">
        <ele>1366.58</ele>
        <time>2020-06-12T12:43:50.709Z</time>
      </trkpt>
      <trkpt lat="46.69339" lon="7.27954">
        <ele>1365.58</ele>
        <time>2020-06-12T12:43:52.995Z</time>
      </trkpt>
      <trkpt lat="46.69332" lon="7.27949">
        <ele>1364.36</ele>
        <time>2020-06-12T12:43:54.685Z</time>
      </trkpt>
      <trkpt lat="46.69318" lon="7.27937">
        <ele>1362.75</ele>
        <time>2020-06-12T12:43:58.208Z</time>
      </trkpt>
      <trkpt lat="46.69313" lon="7.27934">
        <ele>1362.05</ele>
        <time>2020-06-12T12:43:59.381Z</time>
      </trkpt>
      <trkpt lat="46.69307" lon="7.27931">
        <ele>1361.42</ele>
        <time>2020-06-12T12:44:00.757Z</time>
      </trkpt>
      <trkpt lat="46.69303" lon="7.2793">
        <ele>1360.83</ele>
        <time>2020-06-12T12:44:01.637Z</time>
      </trkpt>
      <trkpt lat="46.69298" lon="7.27931">
        <ele>1360.46</ele>
        <time>2020-06-12T12:44:02.732Z</time>
      </trkpt>
      <trkpt lat="46.69287" lon="7.27932">
        <ele>1359.28</ele>
        <time>2020-06-12T12:44:05.122Z</time>
      </trkpt>
      <trkpt lat="46.6928" lon="7.27932">
        <ele>1358.27</ele>
        <time>2020-06-12T12:44:06.641Z</time>
      </trkpt>
      <trkpt lat="46.69271" lon="7.27932">
        <ele>1357.23</ele>
        <time>2020-06-12T12:44:08.593Z</time>
      </trkpt>
      <trkpt lat="46.69261" lon="7.2793">
        <ele>1355.97</ele>
        <time>2020-06-12T12:44:10.782Z</time>
      </trkpt>
      <trkpt lat="46.69255" lon="7.27929">
        <ele>1355.13</ele>
        <time>2020-06-12T12:44:12.092Z</time>
      </trkpt>
      <trkpt lat="46.69241" lon="7.27924">
        <ele>1352.95</ele>
        <time>2020-06-12T12:44:15.219Z</time>
      </trkpt>
      <trkpt lat="46.69229" lon="7.27919">
        <ele>1351.17</ele>
        <time>2020-06-12T12:44:17.926Z</time>
      </trkpt>
      <trkpt lat="46.69221" lon="7.27914">
        <ele>1349.91</ele>
        <time>2020-06-12T12:44:19.814Z</time>
      </trkpt>
      <trkpt lat="46.69213" lon="7.27909">
        <ele>1349.09</ele>
        <time>2020-06-12T12:44:21.702Z</time>
      </trkpt>
      <trkpt lat="46.69207" lon="7.27903">
        <ele>1348.21</ele>
        <time>2020-06-12T12:44:23.280Z</time>
      </trkpt>
      <trkpt lat="46.69201" lon="7.27897">
        <ele>1347.51</ele>
        <time>2020-06-12T12:44:24.858Z</time>
      </trkpt>
      <trkpt lat="46.69196" lon="7.27892">
        <ele>1346.67</ele>
        <time>2020-06-12T12:44:26.173Z</time>
      </trkpt>
      <trkpt lat="46.69193" lon="7.2789">
        <ele>1346.57</ele>
        <time>2020-06-12T12:44:27.078Z</time>
      </trkpt>
      <trkpt lat="46.6919" lon="7.27889">
        <ele>1346.16</ele>
        <time>2020-06-12T12:44:27.746Z</time>
      </trkpt>
      <trkpt lat="46.69186" lon="7.27888">
        <ele>1345.95</ele>
        <time>2020-06-12T12:44:28.655Z</time>
      </trkpt>
      <trkpt lat="46.69181" lon="7.27889">
        <ele>1345.35</ele>
        <time>2020-06-12T12:44:29.750Z</time>
      </trkpt>
      <trkpt lat="46.69169" lon="7.27891">
        <ele>1344.13</ele>
        <time>2020-06-12T12:44:32.370Z</time>
      </trkpt>
      <trkpt lat="46.69164" lon="7.27891">
        <ele>1343.44</ele>
        <time>2020-06-12T12:44:33.454Z</time>
      </trkpt>
      <trkpt lat="46.69158" lon="7.27891">
        <ele>1342.62</ele>
        <time>2020-06-12T12:44:34.756Z</time>
      </trkpt>
      <trkpt lat="46.69153" lon="7.27889">
        <ele>1341.95</ele>
        <time>2020-06-12T12:44:35.880Z</time>
      </trkpt>
      <trkpt lat="46.69146" lon="7.27885">
        <ele>1340.98</ele>
        <time>2020-06-12T12:44:37.511Z</time>
      </trkpt>
      <trkpt lat="46.69141" lon="7.2788">
        <ele>1340.38</ele>
        <time>2020-06-12T12:44:38.826Z</time>
      </trkpt>
      <trkpt lat="46.69138" lon="7.27872">
        <ele>1339.55</ele>
        <time>2020-06-12T12:44:40.183Z</time>
      </trkpt>
      <trkpt lat="46.69131" lon="7.27856">
        <ele>1338.61</ele>
        <time>2020-06-12T12:44:43.006Z</time>
      </trkpt>
      <trkpt lat="46.69127" lon="7.27848">
        <ele>1337.86</ele>
        <time>2020-06-12T12:44:44.479Z</time>
      </trkpt>
      <trkpt lat="46.69122" lon="7.27842">
        <ele>1337.58</ele>
        <time>2020-06-12T12:44:46.044Z</time>
      </trkpt>
      <trkpt lat="46.69117" lon="7.27837">
        <ele>1336.95</ele>
        <time>2020-06-12T12:44:47.359Z</time>
      </trkpt>
      <trkpt lat="46.6911" lon="7.27831">
        <ele>1336.04</ele>
        <time>2020-06-12T12:44:49.120Z</time>
      </trkpt>
      <trkpt lat="46.69102" lon="7.27824">
        <ele>1335.03</ele>
        <time>2020-06-12T12:44:51.144Z</time>
      </trkpt>
      <trkpt lat="46.69096" lon="7.2782">
        <ele>1334.35</ele>
        <time>2020-06-12T12:44:52.575Z</time>
      </trkpt>
      <trkpt lat="46.6909" lon="7.27818">
        <ele>1333.79</ele>
        <time>2020-06-12T12:44:53.910Z</time>
      </trkpt>
      <trkpt lat="46.69087" lon="7.27819">
        <ele>1333.27</ele>
        <time>2020-06-12T12:44:54.578Z</time>
      </trkpt>
      <trkpt lat="46.69081" lon="7.27824">
        <ele>1332.52</ele>
        <time>2020-06-12T12:44:56.077Z</time>
      </trkpt>
      <trkpt lat="46.69077" lon="7.27828">
        <ele>1331.86</ele>
        <time>2020-06-12T12:44:57.129Z</time>
      </trkpt>
      <trkpt lat="46.69075" lon="7.27833">
        <ele>1331.36</ele>
        <time>2020-06-12T12:44:57.990Z</time>
      </trkpt>
      <trkpt lat="46.69074" lon="7.27839">
        <ele>1330.8</ele>
        <time>2020-06-12T12:44:58.909Z</time>
      </trkpt>
      <trkpt lat="46.69073" lon="7.27845">
        <ele>1330.22</ele>
        <time>2020-06-12T12:44:59.827Z</time>
      </trkpt>
      <trkpt lat="46.69073" lon="7.27851">
        <ele>1329.77</ele>
        <time>2020-06-12T12:45:00.720Z</time>
      </trkpt>
      <trkpt lat="46.69075" lon="7.27858">
        <ele>1328.96</ele>
        <time>2020-06-12T12:45:01.848Z</time>
      </trkpt>
      <trkpt lat="46.69082" lon="7.27885">
        <ele>1326.01</ele>
        <time>2020-06-12T12:45:06.143Z</time>
      </trkpt>
      <trkpt lat="46.69084" lon="7.27896">
        <ele>1325.14</ele>
        <time>2020-06-12T12:45:07.836Z</time>
      </trkpt>
      <trkpt lat="46.69087" lon="7.2791">
        <ele>1324.05</ele>
        <time>2020-06-12T12:45:10.018Z</time>
      </trkpt>
      <trkpt lat="46.6909" lon="7.27942">
        <ele>1321.67</ele>
        <time>2020-06-12T12:45:14.824Z</time>
      </trkpt>
      <trkpt lat="46.69092" lon="7.27967">
        <ele>1319.46</ele>
        <time>2020-06-12T12:45:18.569Z</time>
      </trkpt>
      <trkpt lat="46.69093" lon="7.2798">
        <ele>1318.52</ele>
        <time>2020-06-12T12:45:20.515Z</time>
      </trkpt>
      <trkpt lat="46.69095" lon="7.27988">
        <ele>1317.83</ele>
        <time>2020-06-12T12:45:21.782Z</time>
      </trkpt>
      <trkpt lat="46.69097" lon="7.27995">
        <ele>1317.31</ele>
        <time>2020-06-12T12:45:22.910Z</time>
      </trkpt>
      <trkpt lat="46.69102" lon="7.28005">
        <ele>1316.13</ele>
        <time>2020-06-12T12:45:24.751Z</time>
      </trkpt>
      <trkpt lat="46.6911" lon="7.28019">
        <ele>1314.28</ele>
        <time>2020-06-12T12:45:27.462Z</time>
      </trkpt>
      <trkpt lat="46.69113" lon="7.28028">
        <ele>1313.57</ele>
        <time>2020-06-12T12:45:28.951Z</time>
      </trkpt>
      <trkpt lat="46.69114" lon="7.28034">
        <ele>1313.07</ele>
        <time>2020-06-12T12:45:29.870Z</time>
      </trkpt>
      <trkpt lat="46.69113" lon="7.28044">
        <ele>1312.21</ele>
        <time>2020-06-12T12:45:31.373Z</time>
      </trkpt>
      <trkpt lat="46.69111" lon="7.28063">
        <ele>1310.41</ele>
        <time>2020-06-12T12:45:34.233Z</time>
      </trkpt>
      <trkpt lat="46.6911" lon="7.28077">
        <ele>1309.03</ele>
        <time>2020-06-12T12:45:36.328Z</time>
      </trkpt>
      <trkpt lat="46.6911" lon="7.2809">
        <ele>1307.57</ele>
        <time>2020-06-12T12:45:38.262Z</time>
      </trkpt>
      <trkpt lat="46.6911" lon="7.28094">
        <ele>1306.7</ele>
        <time>2020-06-12T12:45:38.857Z</time>
      </trkpt>
      <trkpt lat="46.6911" lon="7.28093">
        <ele>1306.7</ele>
        <time>2020-06-12T12:45:39.520Z</time>
      </trkpt>
      <trkpt lat="46.69111" lon="7.28108">
        <ele>1305.83</ele>
        <time>2020-06-12T12:45:41.762Z</time>
      </trkpt>
      <trkpt lat="46.69113" lon="7.28125">
        <ele>1304.28</ele>
        <time>2020-06-12T12:45:44.329Z</time>
      </trkpt>
      <trkpt lat="46.69115" lon="7.28132">
        <ele>1303.71</ele>
        <time>2020-06-12T12:45:45.457Z</time>
      </trkpt>
      <trkpt lat="46.69117" lon="7.28141">
        <ele>1302.66</ele>
        <time>2020-06-12T12:45:46.864Z</time>
      </trkpt>
      <trkpt lat="46.69125" lon="7.28168">
        <ele>1299.85</ele>
        <time>2020-06-12T12:45:51.240Z</time>
      </trkpt>
      <trkpt lat="46.69132" lon="7.28191">
        <ele>1297.26</ele>
        <time>2020-06-12T12:45:54.984Z</time>
      </trkpt>
      <trkpt lat="46.6914" lon="7.28211">
        <ele>1294.7</ele>
        <time>2020-06-12T12:45:58.429Z</time>
      </trkpt>
      <trkpt lat="46.69143" lon="7.2822">
        <ele>1293.74</ele>
        <time>2020-06-12T12:45:59.917Z</time>
      </trkpt>
      <trkpt lat="46.69146" lon="7.28235">
        <ele>1292.67</ele>
        <time>2020-06-12T12:46:02.242Z</time>
      </trkpt>
      <trkpt lat="46.69153" lon="7.28271">
        <ele>1288.62</ele>
        <time>2020-06-12T12:46:07.809Z</time>
      </trkpt>
      <trkpt lat="46.69154" lon="7.28288">
        <ele>1287.13</ele>
        <time>2020-06-12T12:46:10.348Z</time>
      </trkpt>
      <trkpt lat="46.69157" lon="7.28313">
        <ele>1284.68</ele>
        <time>2020-06-12T12:46:14.124Z</time>
      </trkpt>
      <trkpt lat="46.6916" lon="7.28323">
        <ele>1283.5</ele>
        <time>2020-06-12T12:46:15.748Z</time>
      </trkpt>
      <trkpt lat="46.69163" lon="7.2833">
        <ele>1282.65</ele>
        <time>2020-06-12T12:46:16.976Z</time>
      </trkpt>
      <trkpt lat="46.69168" lon="7.28337">
        <ele>1281.64</ele>
        <time>2020-06-12T12:46:18.480Z</time>
      </trkpt>
      <trkpt lat="46.69177" lon="7.28347">
        <ele>1280.06</ele>
        <time>2020-06-12T12:46:20.934Z</time>
      </trkpt>
      <trkpt lat="46.69184" lon="7.28356">
        <ele>1278.84</ele>
        <time>2020-06-12T12:46:22.959Z</time>
      </trkpt>
      <trkpt lat="46.6919" lon="7.28366">
        <ele>1277.56</ele>
        <time>2020-06-12T12:46:24.935Z</time>
      </trkpt>
      <trkpt lat="46.69194" lon="7.28374">
        <ele>1276.61</ele>
        <time>2020-06-12T12:46:26.408Z</time>
      </trkpt>
      <trkpt lat="46.69198" lon="7.28392">
        <ele>1275.06</ele>
        <time>2020-06-12T12:46:29.223Z</time>
      </trkpt>
      <trkpt lat="46.69199" lon="7.28403">
        <ele>1274.16</ele>
        <time>2020-06-12T12:46:30.874Z</time>
      </trkpt>
      <trkpt lat="46.69198" lon="7.28416">
        <ele>1273.2</ele>
        <time>2020-06-12T12:46:32.821Z</time>
      </trkpt>
      <trkpt lat="46.69193" lon="7.28444">
        <ele>1271.51</ele>
        <time>2020-06-12T12:46:37.125Z</time>
      </trkpt>
      <trkpt lat="46.69187" lon="7.28466">
        <ele>1269.91</ele>
        <time>2020-06-12T12:46:40.648Z</time>
      </trkpt>
      <trkpt lat="46.69185" lon="7.28472">
        <ele>1269.62</ele>
        <time>2020-06-12T12:46:41.580Z</time>
      </trkpt>
      <trkpt lat="46.69181" lon="7.2848">
        <ele>1269.05</ele>
        <time>2020-06-12T12:46:43.053Z</time>
      </trkpt>
      <trkpt lat="46.69178" lon="7.28486">
        <ele>1268.51</ele>
        <time>2020-06-12T12:46:44.158Z</time>
      </trkpt>
      <trkpt lat="46.69176" lon="7.2849">
        <ele>1268.32</ele>
        <time>2020-06-12T12:46:44.892Z</time>
      </trkpt>
      <trkpt lat="46.69175" lon="7.28496">
        <ele>1268.13</ele>
        <time>2020-06-12T12:46:45.900Z</time>
      </trkpt>
      <trkpt lat="46.69174" lon="7.28504">
        <ele>1267.79</ele>
        <time>2020-06-12T12:46:47.059Z</time>
      </trkpt>
      <trkpt lat="46.69175" lon="7.28511">
        <ele>1267.31</ele>
        <time>2020-06-12T12:46:48.123Z</time>
      </trkpt>
      <trkpt lat="46.69178" lon="7.28526">
        <ele>1266.25</ele>
        <time>2020-06-12T12:46:50.447Z</time>
      </trkpt>
      <trkpt lat="46.69179" lon="7.28534">
        <ele>1265.79</ele>
        <time>2020-06-12T12:46:51.657Z</time>
      </trkpt>
      <trkpt lat="46.69179" lon="7.28547">
        <ele>1265.07</ele>
        <time>2020-06-12T12:46:53.591Z</time>
      </trkpt>
      <trkpt lat="46.69178" lon="7.28561">
        <ele>1264.27</ele>
        <time>2020-06-12T12:46:55.686Z</time>
      </trkpt>
      <trkpt lat="46.69175" lon="7.2858">
        <ele>1263.59</ele>
        <time>2020-06-12T12:46:58.705Z</time>
      </trkpt>
      <trkpt lat="46.69174" lon="7.28588">
        <ele>1263.23</ele>
        <time>2020-06-12T12:46:59.832Z</time>
      </trkpt>
      <trkpt lat="46.69175" lon="7.28595">
        <ele>1263.01</ele>
        <time>2020-06-12T12:47:00.999Z</time>
      </trkpt>
      <trkpt lat="46.69177" lon="7.28601">
        <ele>1262.54</ele>
        <time>2020-06-12T12:47:01.992Z</time>
      </trkpt>
      <trkpt lat="46.69182" lon="7.28608">
        <ele>1261.83</ele>
        <time>2020-06-12T12:47:03.495Z</time>
      </trkpt>
      <trkpt lat="46.69192" lon="7.2862">
        <ele>1259.95</ele>
        <time>2020-06-12T12:47:06.305Z</time>
      </trkpt>
      <trkpt lat="46.69195" lon="7.28627">
        <ele>1259.19</ele>
        <time>2020-06-12T12:47:07.533Z</time>
      </trkpt>
      <trkpt lat="46.69196" lon="7.28632">
        <ele>1258.78</ele>
        <time>2020-06-12T12:47:08.308Z</time>
      </trkpt>
      <trkpt lat="46.69197" lon="7.28641">
        <ele>1258.12</ele>
        <time>2020-06-12T12:47:09.664Z</time>
      </trkpt>
      <trkpt lat="46.69197" lon="7.28652">
        <ele>1257.22</ele>
        <time>2020-06-12T12:47:11.301Z</time>
      </trkpt>
      <trkpt lat="46.69199" lon="7.2866">
        <ele>1256.64</ele>
        <time>2020-06-12T12:47:12.567Z</time>
      </trkpt>
      <trkpt lat="46.692" lon="7.28666">
        <ele>1256.44</ele>
        <time>2020-06-12T12:47:13.555Z</time>
      </trkpt>
      <trkpt lat="46.69203" lon="7.28672">
        <ele>1255.72</ele>
        <time>2020-06-12T12:47:14.659Z</time>
      </trkpt>
      <trkpt lat="46.69206" lon="7.28675">
        <ele>1255.16</ele>
        <time>2020-06-12T12:47:15.448Z</time>
      </trkpt>
      <trkpt lat="46.69217" lon="7.28685">
        <ele>1253.54</ele>
        <time>2020-06-12T12:47:18.260Z</time>
      </trkpt>
      <trkpt lat="46.69253" lon="7.28713">
        <ele>1251.09</ele>
        <time>2020-06-12T12:47:26.796Z</time>
      </trkpt>
      <trkpt lat="46.69261" lon="7.2872">
        <ele>1251.01</ele>
        <time>2020-06-12T12:47:30.109Z</time>
      </trkpt>
      <trkpt lat="46.6927" lon="7.2873">
        <ele>1250.9</ele>
        <time>2020-06-12T12:47:34.065Z</time>
      </trkpt>
      <trkpt lat="46.69278" lon="7.28744">
        <ele>1250.72</ele>
        <time>2020-06-12T12:47:38.178Z</time>
      </trkpt>
      <trkpt lat="46.69282" lon="7.2875">
        <ele>1250.53</ele>
        <time>2020-06-12T12:47:39.708Z</time>
      </trkpt>
      <trkpt lat="46.69286" lon="7.28759">
        <ele>1250.35</ele>
        <time>2020-06-12T12:47:41.857Z</time>
      </trkpt>
      <trkpt lat="46.69288" lon="7.28771">
        <ele>1250.13</ele>
        <time>2020-06-12T12:47:44.290Z</time>
      </trkpt>
      <trkpt lat="46.6929" lon="7.28784">
        <ele>1249.98</ele>
        <time>2020-06-12T12:47:47.223Z</time>
      </trkpt>
      <trkpt lat="46.69291" lon="7.28802">
        <ele>1249.79</ele>
        <time>2020-06-12T12:47:51.252Z</time>
      </trkpt>
      <trkpt lat="46.6929" lon="7.2881">
        <ele>1249.73</ele>
        <time>2020-06-12T12:47:53.176Z</time>
      </trkpt>
      <trkpt lat="46.69291" lon="7.28817">
        <ele>1249.45</ele>
        <time>2020-06-12T12:47:54.226Z</time>
      </trkpt>
      <trkpt lat="46.69292" lon="7.28822">
        <ele>1249.41</ele>
        <time>2020-06-12T12:47:55.451Z</time>
      </trkpt>
      <trkpt lat="46.69295" lon="7.28829">
        <ele>1249</ele>
        <time>2020-06-12T12:47:56.679Z</time>
      </trkpt>
      <trkpt lat="46.69298" lon="7.28834">
        <ele>1248.49</ele>
        <time>2020-06-12T12:47:57.668Z</time>
      </trkpt>
      <trkpt lat="46.69303" lon="7.28837">
        <ele>1247.79</ele>
        <time>2020-06-12T12:47:58.840Z</time>
      </trkpt>
      <trkpt lat="46.69308" lon="7.28837">
        <ele>1246.85</ele>
        <time>2020-06-12T12:47:59.925Z</time>
      </trkpt>
      <trkpt lat="46.69311" lon="7.28837">
        <ele>1246.32</ele>
        <time>2020-06-12T12:48:00.576Z</time>
      </trkpt>
      <trkpt lat="46.69315" lon="7.28835">
        <ele>1245.62</ele>
        <time>2020-06-12T12:48:01.493Z</time>
      </trkpt>
      <trkpt lat="46.6932" lon="7.28832">
        <ele>1245.02</ele>
        <time>2020-06-12T12:48:02.666Z</time>
      </trkpt>
      <trkpt lat="46.69326" lon="7.28825">
        <ele>1243.73</ele>
        <time>2020-06-12T12:48:04.332Z</time>
      </trkpt>
      <trkpt lat="46.69335" lon="7.28816">
        <ele>1242.14</ele>
        <time>2020-06-12T12:48:06.700Z</time>
      </trkpt>
      <trkpt lat="46.69345" lon="7.28808">
        <ele>1240.64</ele>
        <time>2020-06-12T12:48:09.174Z</time>
      </trkpt>
      <trkpt lat="46.69375" lon="7.28785">
        <ele>1236.84</ele>
        <time>2020-06-12T12:48:16.526Z</time>
      </trkpt>
      <trkpt lat="46.6938" lon="7.28782">
        <ele>1236.36</ele>
        <time>2020-06-12T12:48:17.699Z</time>
      </trkpt>
      <trkpt lat="46.69384" lon="7.28781">
        <ele>1235.93</ele>
        <time>2020-06-12T12:48:18.579Z</time>
      </trkpt>
      <trkpt lat="46.69388" lon="7.28781">
        <ele>1235.76</ele>
        <time>2020-06-12T12:48:19.552Z</time>
      </trkpt>
      <trkpt lat="46.69393" lon="7.28783">
        <ele>1235.44</ele>
        <time>2020-06-12T12:48:20.623Z</time>
      </trkpt>
      <trkpt lat="46.69396" lon="7.28787">
        <ele>1235.45</ele>
        <time>2020-06-12T12:48:24.644Z</time>
      </trkpt>
      <trkpt lat="46.69398" lon="7.28792">
        <ele>1235.35</ele>
        <time>2020-06-12T12:48:25.794Z</time>
      </trkpt>
      <trkpt lat="46.69401" lon="7.28803">
        <ele>1235.28</ele>
        <time>2020-06-12T12:48:28.675Z</time>
      </trkpt>
      <trkpt lat="46.69403" lon="7.28821">
        <ele>1234.83</ele>
        <time>2020-06-12T12:48:31.914Z</time>
      </trkpt>
      <trkpt lat="46.69405" lon="7.28834">
        <ele>1234.4</ele>
        <time>2020-06-12T12:48:34.047Z</time>
      </trkpt>
      <trkpt lat="46.69408" lon="7.28844">
        <ele>1234.25</ele>
        <time>2020-06-12T12:48:36.347Z</time>
      </trkpt>
      <trkpt lat="46.6941" lon="7.28849">
        <ele>1234.01</ele>
        <time>2020-06-12T12:48:37.175Z</time>
      </trkpt>
      <trkpt lat="46.69414" lon="7.28859">
        <ele>1233.69</ele>
        <time>2020-06-12T12:48:39.147Z</time>
      </trkpt>
      <trkpt lat="46.6942" lon="7.28866">
        <ele>1232.95</ele>
        <time>2020-06-12T12:48:40.814Z</time>
      </trkpt>
      <trkpt lat="46.69424" lon="7.28871">
        <ele>1232.55</ele>
        <time>2020-06-12T12:48:41.957Z</time>
      </trkpt>
      <trkpt lat="46.69438" lon="7.28883">
        <ele>1230.45</ele>
        <time>2020-06-12T12:48:45.479Z</time>
      </trkpt>
      <trkpt lat="46.69451" lon="7.28892">
        <ele>1228.32</ele>
        <time>2020-06-12T12:48:48.601Z</time>
      </trkpt>
      <trkpt lat="46.69457" lon="7.28897">
        <ele>1227.38</ele>
        <time>2020-06-12T12:48:50.100Z</time>
      </trkpt>
      <trkpt lat="46.69459" lon="7.289">
        <ele>1226.7</ele>
        <time>2020-06-12T12:48:50.722Z</time>
      </trkpt>
      <trkpt lat="46.69462" lon="7.28905">
        <ele>1226.07</ele>
        <time>2020-06-12T12:48:51.711Z</time>
      </trkpt>
      <trkpt lat="46.69463" lon="7.28909">
        <ele>1225.69</ele>
        <time>2020-06-12T12:48:52.344Z</time>
      </trkpt>
      <trkpt lat="46.69464" lon="7.28915">
        <ele>1224.96</ele>
        <time>2020-06-12T12:48:53.263Z</time>
      </trkpt>
      <trkpt lat="46.69463" lon="7.28919">
        <ele>1224.69</ele>
        <time>2020-06-12T12:48:53.896Z</time>
      </trkpt>
      <trkpt lat="46.69462" lon="7.28922">
        <ele>1224.32</ele>
        <time>2020-06-12T12:48:54.392Z</time>
      </trkpt>
      <trkpt lat="46.69458" lon="7.28926">
        <ele>1223.66</ele>
        <time>2020-06-12T12:48:55.444Z</time>
      </trkpt>
      <trkpt lat="46.69452" lon="7.2893">
        <ele>1222.6</ele>
        <time>2020-06-12T12:48:56.876Z</time>
      </trkpt>
      <trkpt lat="46.69445" lon="7.28934">
        <ele>1221.5</ele>
        <time>2020-06-12T12:48:58.506Z</time>
      </trkpt>
      <trkpt lat="46.6944" lon="7.2894">
        <ele>1220.73</ele>
        <time>2020-06-12T12:48:59.911Z</time>
      </trkpt>
      <trkpt lat="46.69437" lon="7.28942">
        <ele>1220.28</ele>
        <time>2020-06-12T12:49:00.626Z</time>
      </trkpt>
      <trkpt lat="46.69434" lon="7.28943">
        <ele>1219.98</ele>
        <time>2020-06-12T12:49:01.294Z</time>
      </trkpt>
      <trkpt lat="46.69429" lon="7.28943">
        <ele>1219.28</ele>
        <time>2020-06-12T12:49:02.379Z</time>
      </trkpt>
      <trkpt lat="46.6942" lon="7.28941">
        <ele>1217.76</ele>
        <time>2020-06-12T12:49:04.353Z</time>
      </trkpt>
      <trkpt lat="46.6941" lon="7.28939">
        <ele>1216.32</ele>
        <time>2020-06-12T12:49:06.543Z</time>
      </trkpt>
      <trkpt lat="46.69403" lon="7.28938">
        <ele>1215.46</ele>
        <time>2020-06-12T12:49:08.068Z</time>
      </trkpt>
      <trkpt lat="46.69397" lon="7.28938">
        <ele>1214.46</ele>
        <time>2020-06-12T12:49:09.370Z</time>
      </trkpt>
      <trkpt lat="46.69393" lon="7.28939">
        <ele>1213.88</ele>
        <time>2020-06-12T12:49:10.250Z</time>
      </trkpt>
      <trkpt lat="46.69389" lon="7.2894">
        <ele>1213.53</ele>
        <time>2020-06-12T12:49:11.130Z</time>
      </trkpt>
      <trkpt lat="46.69375" lon="7.28946">
        <ele>1211.51</ele>
        <time>2020-06-12T12:49:14.296Z</time>
      </trkpt>
      <trkpt lat="46.69369" lon="7.28948">
        <ele>1210.5</ele>
        <time>2020-06-12T12:49:15.631Z</time>
      </trkpt>
      <trkpt lat="46.69363" lon="7.28949">
        <ele>1209.51</ele>
        <time>2020-06-12T12:49:16.940Z</time>
      </trkpt>
      <trkpt lat="46.69357" lon="7.28948">
        <ele>1208.66</ele>
        <time>2020-06-12T12:49:18.250Z</time>
      </trkpt>
      <trkpt lat="46.69347" lon="7.28945">
        <ele>1207.24</ele>
        <time>2020-06-12T12:49:20.465Z</time>
      </trkpt>
      <trkpt lat="46.69344" lon="7.28944">
        <ele>1207.09</ele>
        <time>2020-06-12T12:49:21.173Z</time>
      </trkpt>
      <trkpt lat="46.69341" lon="7.28941">
        <ele>1206.68</ele>
        <time>2020-06-12T12:49:21.962Z</time>
      </trkpt>
      <trkpt lat="46.69336" lon="7.28936">
        <ele>1205.56</ele>
        <time>2020-06-12T12:49:23.277Z</time>
      </trkpt>
      <trkpt lat="46.69325" lon="7.28927">
        <ele>1204.98</ele>
        <time>2020-06-12T12:49:26.249Z</time>
      </trkpt>
      <trkpt lat="46.69311" lon="7.28923">
        <ele>1203.06</ele>
        <time>2020-06-12T12:49:29.344Z</time>
      </trkpt>
      <trkpt lat="46.69305" lon="7.28922">
        <ele>1202.13</ele>
        <time>2020-06-12T12:49:30.654Z</time>
      </trkpt>
      <trkpt lat="46.69299" lon="7.28922">
        <ele>1200.98</ele>
        <time>2020-06-12T12:49:31.955Z</time>
      </trkpt>
      <trkpt lat="46.69292" lon="7.28923">
        <ele>1200.05</ele>
        <time>2020-06-12T12:49:33.481Z</time>
      </trkpt>
      <trkpt lat="46.69285" lon="7.28925">
        <ele>1199.41</ele>
        <time>2020-06-12T12:49:35.028Z</time>
      </trkpt>
      <trkpt lat="46.69279" lon="7.28929">
        <ele>1198.22</ele>
        <time>2020-06-12T12:49:36.459Z</time>
      </trkpt>
      <trkpt lat="46.69274" lon="7.28933">
        <ele>1197.67</ele>
        <time>2020-06-12T12:49:37.696Z</time>
      </trkpt>
      <trkpt lat="46.69265" lon="7.28941">
        <ele>1196.31</ele>
        <time>2020-06-12T12:49:39.983Z</time>
      </trkpt>
      <trkpt lat="46.69255" lon="7.28949">
        <ele>1194.75</ele>
        <time>2020-06-12T12:49:42.457Z</time>
      </trkpt>
      <trkpt lat="46.69252" lon="7.28951">
        <ele>1194.28</ele>
        <time>2020-06-12T12:49:43.172Z</time>
      </trkpt>
      <trkpt lat="46.69246" lon="7.28954">
        <ele>1193.52</ele>
        <time>2020-06-12T12:49:44.548Z</time>
      </trkpt>
      <trkpt lat="46.69238" lon="7.28957">
        <ele>1192.29</ele>
        <time>2020-06-12T12:49:46.340Z</time>
      </trkpt>
      <trkpt lat="46.69228" lon="7.28961">
        <ele>1190.73</ele>
        <time>2020-06-12T12:49:48.589Z</time>
      </trkpt>
      <trkpt lat="46.6922" lon="7.28965">
        <ele>1189.77</ele>
        <time>2020-06-12T12:49:50.424Z</time>
      </trkpt>
      <trkpt lat="46.69214" lon="7.28968">
        <ele>1188.93</ele>
        <time>2020-06-12T12:49:51.800Z</time>
      </trkpt>
      <trkpt lat="46.69207" lon="7.28972">
        <ele>1188.37</ele>
        <time>2020-06-12T12:49:53.430Z</time>
      </trkpt>
      <trkpt lat="46.69204" lon="7.28976">
        <ele>1188.14</ele>
        <time>2020-06-12T12:49:54.305Z</time>
      </trkpt>
      <trkpt lat="46.69204" lon="7.28976">
        <ele>1187.68</ele>
        <time>2020-06-12T12:49:54.305Z</time>
      </trkpt>
      <trkpt lat="46.69201" lon="7.2898">
        <ele>1187.45</ele>
        <time>2020-06-12T12:49:55.180Z</time>
      </trkpt>
      <trkpt lat="46.69199" lon="7.28985">
        <ele>1187.06</ele>
        <time>2020-06-12T12:49:56.041Z</time>
      </trkpt>
      <trkpt lat="46.69197" lon="7.2899">
        <ele>1186.71</ele>
        <time>2020-06-12T12:49:56.902Z</time>
      </trkpt>
      <trkpt lat="46.69197" lon="7.28995">
        <ele>1186.32</ele>
        <time>2020-06-12T12:49:57.646Z</time>
      </trkpt>
      <trkpt lat="46.69198" lon="7.29001">
        <ele>1186.09</ele>
        <time>2020-06-12T12:49:58.575Z</time>
      </trkpt>
      <trkpt lat="46.69199" lon="7.29006">
        <ele>1185.93</ele>
        <time>2020-06-12T12:49:59.426Z</time>
      </trkpt>
      <trkpt lat="46.69202" lon="7.29011">
        <ele>1185.57</ele>
        <time>2020-06-12T12:50:00.414Z</time>
      </trkpt>
      <trkpt lat="46.69204" lon="7.29015">
        <ele>1185.32</ele>
        <time>2020-06-12T12:50:01.150Z</time>
      </trkpt>
      <trkpt lat="46.69207" lon="7.29018">
        <ele>1185.03</ele>
        <time>2020-06-12T12:50:01.940Z</time>
      </trkpt>
      <trkpt lat="46.69212" lon="7.2902">
        <ele>1184.57</ele>
        <time>2020-06-12T12:50:03.064Z</time>
      </trkpt>
      <trkpt lat="46.69217" lon="7.29022">
        <ele>1184.07</ele>
        <time>2020-06-12T12:50:04.189Z</time>
      </trkpt>
      <trkpt lat="46.69226" lon="7.29025">
        <ele>1183.13</ele>
        <time>2020-06-12T12:50:06.191Z</time>
      </trkpt>
      <trkpt lat="46.69238" lon="7.29028">
        <ele>1182</ele>
        <time>2020-06-12T12:50:08.832Z</time>
      </trkpt>
      <trkpt lat="46.69251" lon="7.29031">
        <ele>1180.5</ele>
        <time>2020-06-12T12:50:11.687Z</time>
      </trkpt>
      <trkpt lat="46.69258" lon="7.29032">
        <ele>1179.43</ele>
        <time>2020-06-12T12:50:13.213Z</time>
      </trkpt>
      <trkpt lat="46.69267" lon="7.29033">
        <ele>1178.37</ele>
        <time>2020-06-12T12:50:15.171Z</time>
      </trkpt>
      <trkpt lat="46.69282" lon="7.29037">
        <ele>1176.67</ele>
        <time>2020-06-12T12:50:18.478Z</time>
      </trkpt>
      <trkpt lat="46.6929" lon="7.29041">
        <ele>1175.6</ele>
        <time>2020-06-12T12:50:20.313Z</time>
      </trkpt>
      <trkpt lat="46.69293" lon="7.29043">
        <ele>1175.23</ele>
        <time>2020-06-12T12:50:21.028Z</time>
      </trkpt>
      <trkpt lat="46.69303" lon="7.29056">
        <ele>1173.33</ele>
        <time>2020-06-12T12:50:23.934Z</time>
      </trkpt>
      <trkpt lat="46.69314" lon="7.29072">
        <ele>1171.24</ele>
        <time>2020-06-12T12:50:27.305Z</time>
      </trkpt>
      <trkpt lat="46.69323" lon="7.29087">
        <ele>1169.39</ele>
        <time>2020-06-12T12:50:30.270Z</time>
      </trkpt>
      <trkpt lat="46.69332" lon="7.29101">
        <ele>1167.54</ele>
        <time>2020-06-12T12:50:33.124Z</time>
      </trkpt>
      <trkpt lat="46.69339" lon="7.2911">
        <ele>1166.21</ele>
        <time>2020-06-12T12:50:35.149Z</time>
      </trkpt>
      <trkpt lat="46.69345" lon="7.29118">
        <ele>1165.12</ele>
        <time>2020-06-12T12:50:36.913Z</time>
      </trkpt>
      <trkpt lat="46.69352" lon="7.29125">
        <ele>1163.73</ele>
        <time>2020-06-12T12:50:38.754Z</time>
      </trkpt>
      <trkpt lat="46.69368" lon="7.29142">
        <ele>1161.17</ele>
        <time>2020-06-12T12:50:43.048Z</time>
      </trkpt>
      <trkpt lat="46.69384" lon="7.29162">
        <ele>1158.38</ele>
        <time>2020-06-12T12:50:47.620Z</time>
      </trkpt>
      <trkpt lat="46.69391" lon="7.2917">
        <ele>1157.15</ele>
        <time>2020-06-12T12:50:49.549Z</time>
      </trkpt>
      <trkpt lat="46.69396" lon="7.29176">
        <ele>1156.49</ele>
        <time>2020-06-12T12:50:50.953Z</time>
      </trkpt>
      <trkpt lat="46.69406" lon="7.29184">
        <ele>1155.07</ele>
        <time>2020-06-12T12:50:53.428Z</time>
      </trkpt>
      <trkpt lat="46.69416" lon="7.29191">
        <ele>1153.39</ele>
        <time>2020-06-12T12:50:55.834Z</time>
      </trkpt>
      <trkpt lat="46.69443" lon="7.29211">
        <ele>1149.02</ele>
        <time>2020-06-12T12:51:02.403Z</time>
      </trkpt>
      <trkpt lat="46.69454" lon="7.29217">
        <ele>1147.2</ele>
        <time>2020-06-12T12:51:04.950Z</time>
      </trkpt>
      <trkpt lat="46.69458" lon="7.29219">
        <ele>1146.62</ele>
        <time>2020-06-12T12:51:05.868Z</time>
      </trkpt>
      <trkpt lat="46.69465" lon="7.29225">
        <ele>1145.91</ele>
        <time>2020-06-12T12:51:07.629Z</time>
      </trkpt>
      <trkpt lat="46.69473" lon="7.29233">
        <ele>1144.57</ele>
        <time>2020-06-12T12:51:09.733Z</time>
      </trkpt>
      <trkpt lat="46.69478" lon="7.29238">
        <ele>1143.72</ele>
        <time>2020-06-12T12:51:11.048Z</time>
      </trkpt>
      <trkpt lat="46.69485" lon="7.29245">
        <ele>1142.69</ele>
        <time>2020-06-12T12:51:12.889Z</time>
      </trkpt>
      <trkpt lat="46.6949" lon="7.29251">
        <ele>1142.07</ele>
        <time>2020-06-12T12:51:14.294Z</time>
      </trkpt>
      <trkpt lat="46.69495" lon="7.29256">
        <ele>1141.15</ele>
        <time>2020-06-12T12:51:15.609Z</time>
      </trkpt>
      <trkpt lat="46.695" lon="7.29263">
        <ele>1140.32</ele>
        <time>2020-06-12T12:51:17.113Z</time>
      </trkpt>
      <trkpt lat="46.69505" lon="7.29271">
        <ele>1139.23</ele>
        <time>2020-06-12T12:51:18.723Z</time>
      </trkpt>
      <trkpt lat="46.69511" lon="7.29281">
        <ele>1138.23</ele>
        <time>2020-06-12T12:51:20.700Z</time>
      </trkpt>
      <trkpt lat="46.69518" lon="7.2929">
        <ele>1136.83</ele>
        <time>2020-06-12T12:51:22.724Z</time>
      </trkpt>
      <trkpt lat="46.69521" lon="7.29293">
        <ele>1136.53</ele>
        <time>2020-06-12T12:51:23.513Z</time>
      </trkpt>
      <trkpt lat="46.69524" lon="7.29294">
        <ele>1136.05</ele>
        <time>2020-06-12T12:51:24.181Z</time>
      </trkpt>
      <trkpt lat="46.69539" lon="7.293">
        <ele>1133.94</ele>
        <time>2020-06-12T12:51:27.554Z</time>
      </trkpt>
      <trkpt lat="46.69546" lon="7.29302">
        <ele>1133.16</ele>
        <time>2020-06-12T12:51:29.102Z</time>
      </trkpt>
      <trkpt lat="46.69551" lon="7.29305">
        <ele>1132.36</ele>
        <time>2020-06-12T12:51:30.274Z</time>
      </trkpt>
      <trkpt lat="46.69557" lon="7.29308">
        <ele>1131.58</ele>
        <time>2020-06-12T12:51:31.650Z</time>
      </trkpt>
      <trkpt lat="46.69569" lon="7.29319">
        <ele>1129.68</ele>
        <time>2020-06-12T12:51:34.725Z</time>
      </trkpt>
      <trkpt lat="46.69576" lon="7.29326">
        <ele>1128.7</ele>
        <time>2020-06-12T12:51:36.566Z</time>
      </trkpt>
      <trkpt lat="46.69583" lon="7.29335">
        <ele>1127.49</ele>
        <time>2020-06-12T12:51:38.591Z</time>
      </trkpt>
      <trkpt lat="46.69593" lon="7.29347">
        <ele>1125.75</ele>
        <time>2020-06-12T12:51:41.400Z</time>
      </trkpt>
      <trkpt lat="46.69605" lon="7.29363">
        <ele>1124.27</ele>
        <time>2020-06-12T12:51:44.927Z</time>
      </trkpt>
      <trkpt lat="46.69611" lon="7.2937">
        <ele>1123.84</ele>
        <time>2020-06-12T12:51:46.589Z</time>
      </trkpt>
      <trkpt lat="46.69616" lon="7.29374">
        <ele>1123.42</ele>
        <time>2020-06-12T12:51:47.826Z</time>
      </trkpt>
      <trkpt lat="46.69621" lon="7.29376">
        <ele>1123.09</ele>
        <time>2020-06-12T12:51:48.880Z</time>
      </trkpt>
      <trkpt lat="46.69626" lon="7.29378">
        <ele>1122.53</ele>
        <time>2020-06-12T12:51:50.005Z</time>
      </trkpt>
      <trkpt lat="46.69644" lon="7.29381">
        <ele>1121.06</ele>
        <time>2020-06-12T12:51:53.935Z</time>
      </trkpt>
      <trkpt lat="46.69661" lon="7.29385">
        <ele>1119.86</ele>
        <time>2020-06-12T12:51:57.670Z</time>
      </trkpt>
      <trkpt lat="46.69678" lon="7.29389">
        <ele>1118.45</ele>
        <time>2020-06-12T12:52:01.405Z</time>
      </trkpt>
      <trkpt lat="46.69687" lon="7.2939">
        <ele>1117.92</ele>
        <time>2020-06-12T12:52:03.314Z</time>
      </trkpt>
      <trkpt lat="46.69693" lon="7.29391">
        <ele>1117.57</ele>
        <time>2020-06-12T12:52:04.598Z</time>
      </trkpt>
      <trkpt lat="46.69697" lon="7.29394">
        <ele>1117.22</ele>
        <time>2020-06-12T12:52:05.574Z</time>
      </trkpt>
      <trkpt lat="46.69701" lon="7.29397">
        <ele>1116.88</ele>
        <time>2020-06-12T12:52:06.550Z</time>
      </trkpt>
      <trkpt lat="46.69703" lon="7.294">
        <ele>1116.59</ele>
        <time>2020-06-12T12:52:07.172Z</time>
      </trkpt>
      <trkpt lat="46.69706" lon="7.29407">
        <ele>1116.16</ele>
        <time>2020-06-12T12:52:08.400Z</time>
      </trkpt>
      <trkpt lat="46.69708" lon="7.29413">
        <ele>1115.69</ele>
        <time>2020-06-12T12:52:09.393Z</time>
      </trkpt>
      <trkpt lat="46.69712" lon="7.29427">
        <ele>1115</ele>
        <time>2020-06-12T12:52:11.465Z</time>
      </trkpt>
      <trkpt lat="46.69714" lon="7.29438">
        <ele>1114.24</ele>
        <time>2020-06-12T12:52:13.158Z</time>
      </trkpt>
      <trkpt lat="46.69717" lon="7.29449">
        <ele>1113.69</ele>
        <time>2020-06-12T12:52:14.919Z</time>
      </trkpt>
      <trkpt lat="46.6972" lon="7.29456">
        <ele>1113.06</ele>
        <time>2020-06-12T12:52:16.147Z</time>
      </trkpt>
      <trkpt lat="46.69722" lon="7.2946">
        <ele>1112.58</ele>
        <time>2020-06-12T12:52:16.883Z</time>
      </trkpt>
      <trkpt lat="46.69725" lon="7.29466">
        <ele>1112.19</ele>
        <time>2020-06-12T12:52:17.988Z</time>
      </trkpt>
      <trkpt lat="46.69728" lon="7.2947">
        <ele>1111.98</ele>
        <time>2020-06-12T12:52:18.899Z</time>
      </trkpt>
      <trkpt lat="46.69732" lon="7.29473">
        <ele>1111.71</ele>
        <time>2020-06-12T12:52:19.840Z</time>
      </trkpt>
      <trkpt lat="46.69736" lon="7.29476">
        <ele>1111.43</ele>
        <time>2020-06-12T12:52:20.765Z</time>
      </trkpt>
      <trkpt lat="46.6974" lon="7.29478">
        <ele>1111.15</ele>
        <time>2020-06-12T12:52:21.608Z</time>
      </trkpt>
      <trkpt lat="46.69743" lon="7.29481">
        <ele>1110.75</ele>
        <time>2020-06-12T12:52:22.398Z</time>
      </trkpt>
      <trkpt lat="46.69746" lon="7.29485">
        <ele>1110.39</ele>
        <time>2020-06-12T12:52:23.279Z</time>
      </trkpt>
      <trkpt lat="46.69749" lon="7.2949">
        <ele>1110.07</ele>
        <time>2020-06-12T12:52:24.268Z</time>
      </trkpt>
      <trkpt lat="46.69751" lon="7.29495">
        <ele>1109.56</ele>
        <time>2020-06-12T12:52:25.129Z</time>
      </trkpt>
      <trkpt lat="46.69753" lon="7.29502">
        <ele>1109.18</ele>
        <time>2020-06-12T12:52:26.257Z</time>
      </trkpt>
      <trkpt lat="46.69755" lon="7.29508">
        <ele>1108.76</ele>
        <time>2020-06-12T12:52:27.249Z</time>
      </trkpt>
      <trkpt lat="46.69756" lon="7.29512">
        <ele>1108.49</ele>
        <time>2020-06-12T12:52:27.883Z</time>
      </trkpt>
      <trkpt lat="46.69759" lon="7.29517">
        <ele>1108.03</ele>
        <time>2020-06-12T12:52:28.871Z</time>
      </trkpt>
      <trkpt lat="46.69766" lon="7.29532">
        <ele>1106.97</ele>
        <time>2020-06-12T12:52:31.570Z</time>
      </trkpt>
      <trkpt lat="46.6977" lon="7.29537">
        <ele>1106.71</ele>
        <time>2020-06-12T12:52:32.775Z</time>
      </trkpt>
      <trkpt lat="46.69773" lon="7.2954">
        <ele>1106.47</ele>
        <time>2020-06-12T12:52:33.502Z</time>
      </trkpt>
      <trkpt lat="46.69776" lon="7.29543">
        <ele>1105.99</ele>
        <time>2020-06-12T12:52:34.291Z</time>
      </trkpt>
      <trkpt lat="46.69781" lon="7.29546">
        <ele>1105.56</ele>
        <time>2020-06-12T12:52:35.464Z</time>
      </trkpt>
      <trkpt lat="46.69788" lon="7.29549">
        <ele>1105.03</ele>
        <time>2020-06-12T12:52:37.046Z</time>
      </trkpt>
      <trkpt lat="46.69794" lon="7.29551">
        <ele>1104.46</ele>
        <time>2020-06-12T12:52:38.381Z</time>
      </trkpt>
      <trkpt lat="46.698" lon="7.29551">
        <ele>1104.21</ele>
        <time>2020-06-12T12:52:39.852Z</time>
      </trkpt>
      <trkpt lat="46.69804" lon="7.2955">
        <ele>1104.06</ele>
        <time>2020-06-12T12:52:40.893Z</time>
      </trkpt>
      <trkpt lat="46.69807" lon="7.29549">
        <ele>1104.05</ele>
        <time>2020-06-12T12:52:43.727Z</time>
      </trkpt>
      <trkpt lat="46.69812" lon="7.29546">
        <ele>1103.68</ele>
        <time>2020-06-12T12:52:44.900Z</time>
      </trkpt>
      <trkpt lat="46.69817" lon="7.29543">
        <ele>1103.44</ele>
        <time>2020-06-12T12:52:46.193Z</time>
      </trkpt>
      <trkpt lat="46.69824" lon="7.29539">
        <ele>1103.18</ele>
        <time>2020-06-12T12:52:48.167Z</time>
      </trkpt>
      <trkpt lat="46.69844" lon="7.29526">
        <ele>1102.78</ele>
        <time>2020-06-12T12:52:55.039Z</time>
      </trkpt>
      <trkpt lat="46.69851" lon="7.29521">
        <ele>1102.81</ele>
        <time>2020-06-12T12:53:02.850Z</time>
      </trkpt>
      <trkpt lat="46.69855" lon="7.29517">
        <ele>1102.5</ele>
        <time>2020-06-12T12:53:03.835Z</time>
      </trkpt>
      <trkpt lat="46.6986" lon="7.29512">
        <ele>1102.45</ele>
        <time>2020-06-12T12:53:05.997Z</time>
      </trkpt>
      <trkpt lat="46.69866" lon="7.29506">
        <ele>1102.32</ele>
        <time>2020-06-12T12:53:08.291Z</time>
      </trkpt>
      <trkpt lat="46.69874" lon="7.29497">
        <ele>1102.23</ele>
        <time>2020-06-12T12:53:11.863Z</time>
      </trkpt>
      <trkpt lat="46.69882" lon="7.29491">
        <ele>1101.87</ele>
        <time>2020-06-12T12:53:14.103Z</time>
      </trkpt>
      <trkpt lat="46.69891" lon="7.29484">
        <ele>1101.6</ele>
        <time>2020-06-12T12:53:17.018Z</time>
      </trkpt>
      <trkpt lat="46.69896" lon="7.2948">
        <ele>1101.1</ele>
        <time>2020-06-12T12:53:18.255Z</time>
      </trkpt>
      <trkpt lat="46.69902" lon="7.29478">
        <ele>1100.6</ele>
        <time>2020-06-12T12:53:19.590Z</time>
      </trkpt>
      <trkpt lat="46.69908" lon="7.29477">
        <ele>1100.36</ele>
        <time>2020-06-12T12:53:21.098Z</time>
      </trkpt>
      <trkpt lat="46.69914" lon="7.29477">
        <ele>1099.84</ele>
        <time>2020-06-12T12:53:22.399Z</time>
      </trkpt>
      <trkpt lat="46.69922" lon="7.2948">
        <ele>1099.14</ele>
        <time>2020-06-12T12:53:24.191Z</time>
      </trkpt>
      <trkpt lat="46.69926" lon="7.29484">
        <ele>1098.57</ele>
        <time>2020-06-12T12:53:25.243Z</time>
      </trkpt>
      <trkpt lat="46.69928" lon="7.29488">
        <ele>1098.31</ele>
        <time>2020-06-12T12:53:25.979Z</time>
      </trkpt>
      <trkpt lat="46.69929" lon="7.29493">
        <ele>1097.78</ele>
        <time>2020-06-12T12:53:26.754Z</time>
      </trkpt>
      <trkpt lat="46.6993" lon="7.29499">
        <ele>1097.35</ele>
        <time>2020-06-12T12:53:27.673Z</time>
      </trkpt>
      <trkpt lat="46.69931" lon="7.29506">
        <ele>1096.73</ele>
        <time>2020-06-12T12:53:28.736Z</time>
      </trkpt>
      <trkpt lat="46.69931" lon="7.29515">
        <ele>1096.12</ele>
        <time>2020-06-12T12:53:30.075Z</time>
      </trkpt>
      <trkpt lat="46.69931" lon="7.29533">
        <ele>1094.54</ele>
        <time>2020-06-12T12:53:32.753Z</time>
      </trkpt>
      <trkpt lat="46.69932" lon="7.2954">
        <ele>1094.02</ele>
        <time>2020-06-12T12:53:33.817Z</time>
      </trkpt>
      <trkpt lat="46.69933" lon="7.29545">
        <ele>1093.58</ele>
        <time>2020-06-12T12:53:34.591Z</time>
      </trkpt>
      <trkpt lat="46.69935" lon="7.29551">
        <ele>1093.07</ele>
        <time>2020-06-12T12:53:35.584Z</time>
      </trkpt>
      <trkpt lat="46.69937" lon="7.29559">
        <ele>1092.03</ele>
        <time>2020-06-12T12:53:36.851Z</time>
      </trkpt>
      <trkpt lat="46.6994" lon="7.29565">
        <ele>1091.43</ele>
        <time>2020-06-12T12:53:37.955Z</time>
      </trkpt>
      <trkpt lat="46.69944" lon="7.29569">
        <ele>1090.72</ele>
        <time>2020-06-12T12:53:39.007Z</time>
      </trkpt>
      <trkpt lat="46.69947" lon="7.29572">
        <ele>1090.26</ele>
        <time>2020-06-12T12:53:39.796Z</time>
      </trkpt>
      <trkpt lat="46.69951" lon="7.29574">
        <ele>1089.59</ele>
        <time>2020-06-12T12:53:40.713Z</time>
      </trkpt>
      <trkpt lat="46.69955" lon="7.29575">
        <ele>1089.16</ele>
        <time>2020-06-12T12:53:41.594Z</time>
      </trkpt>
      <trkpt lat="46.69959" lon="7.29576">
        <ele>1088.54</ele>
        <time>2020-06-12T12:53:42.474Z</time>
      </trkpt>
      <trkpt lat="46.69973" lon="7.29576">
        <ele>1086.83</ele>
        <time>2020-06-12T12:53:45.511Z</time>
      </trkpt>
      <trkpt lat="46.69981" lon="7.29576">
        <ele>1086.18</ele>
        <time>2020-06-12T12:53:47.246Z</time>
      </trkpt>
      <trkpt lat="46.69985" lon="7.29577">
        <ele>1085.69</ele>
        <time>2020-06-12T12:53:48.126Z</time>
      </trkpt>
      <trkpt lat="46.69989" lon="7.29579">
        <ele>1085.06</ele>
        <time>2020-06-12T12:53:49.044Z</time>
      </trkpt>
      <trkpt lat="46.69994" lon="7.29582">
        <ele>1084.51</ele>
        <time>2020-06-12T12:53:50.216Z</time>
      </trkpt>
      <trkpt lat="46.69997" lon="7.29586">
        <ele>1083.88</ele>
        <time>2020-06-12T12:53:51.098Z</time>
      </trkpt>
      <trkpt lat="46.7" lon="7.2959">
        <ele>1083.41</ele>
        <time>2020-06-12T12:53:51.980Z</time>
      </trkpt>
      <trkpt lat="46.70002" lon="7.29596">
        <ele>1083.08</ele>
        <time>2020-06-12T12:53:52.972Z</time>
      </trkpt>
      <trkpt lat="46.70003" lon="7.29605">
        <ele>1082.2</ele>
        <time>2020-06-12T12:53:54.329Z</time>
      </trkpt>
      <trkpt lat="46.70003" lon="7.29613">
        <ele>1081.46</ele>
        <time>2020-06-12T12:53:55.519Z</time>
      </trkpt>
      <trkpt lat="46.70002" lon="7.29619">
        <ele>1081.09</ele>
        <time>2020-06-12T12:53:56.437Z</time>
      </trkpt>
      <trkpt lat="46.7" lon="7.29625">
        <ele>1080.71</ele>
        <time>2020-06-12T12:53:57.430Z</time>
      </trkpt>
      <trkpt lat="46.69995" lon="7.29634">
        <ele>1079.86</ele>
        <time>2020-06-12T12:53:59.153Z</time>
      </trkpt>
      <trkpt lat="46.69981" lon="7.29659">
        <ele>1077.88</ele>
        <time>2020-06-12T12:54:03.954Z</time>
      </trkpt>
      <trkpt lat="46.69978" lon="7.29664">
        <ele>1077.64</ele>
        <time>2020-06-12T12:54:04.967Z</time>
      </trkpt>
      <trkpt lat="46.69976" lon="7.29666">
        <ele>1077.2</ele>
        <time>2020-06-12T12:54:05.493Z</time>
      </trkpt>
      <trkpt lat="46.69973" lon="7.29669">
        <ele>1076.94</ele>
        <time>2020-06-12T12:54:06.282Z</time>
      </trkpt>
      <trkpt lat="46.6997" lon="7.29671">
        <ele>1076.63</ele>
        <time>2020-06-12T12:54:06.997Z</time>
      </trkpt>
      <trkpt lat="46.69965" lon="7.29673">
        <ele>1076.1</ele>
        <time>2020-06-12T12:54:08.122Z</time>
      </trkpt>
      <trkpt lat="46.69959" lon="7.29674">
        <ele>1075.36</ele>
        <time>2020-06-12T12:54:09.432Z</time>
      </trkpt>
      <trkpt lat="46.69954" lon="7.29674">
        <ele>1074.83</ele>
        <time>2020-06-12T12:54:10.516Z</time>
      </trkpt>
      <trkpt lat="46.69949" lon="7.29673">
        <ele>1074.29</ele>
        <time>2020-06-12T12:54:11.611Z</time>
      </trkpt>
      <trkpt lat="46.69942" lon="7.29669">
        <ele>1073.28</ele>
        <time>2020-06-12T12:54:13.242Z</time>
      </trkpt>
      <trkpt lat="46.69933" lon="7.29662">
        <ele>1072.15</ele>
        <time>2020-06-12T12:54:15.454Z</time>
      </trkpt>
      <trkpt lat="46.69913" lon="7.29651">
        <ele>1069.77</ele>
        <time>2020-06-12T12:54:20.091Z</time>
      </trkpt>
      <trkpt lat="46.69906" lon="7.29647">
        <ele>1068.83</ele>
        <time>2020-06-12T12:54:21.722Z</time>
      </trkpt>
      <trkpt lat="46.69899" lon="7.29645">
        <ele>1067.89</ele>
        <time>2020-06-12T12:54:23.269Z</time>
      </trkpt>
      <trkpt lat="46.69894" lon="7.29644">
        <ele>1067.23</ele>
        <time>2020-06-12T12:54:24.364Z</time>
      </trkpt>
      <trkpt lat="46.69888" lon="7.29643">
        <ele>1066.6</ele>
        <time>2020-06-12T12:54:25.673Z</time>
      </trkpt>
      <trkpt lat="46.69879" lon="7.29644">
        <ele>1065.71</ele>
        <time>2020-06-12T12:54:27.631Z</time>
      </trkpt>
      <trkpt lat="46.69865" lon="7.29646">
        <ele>1064.69</ele>
        <time>2020-06-12T12:54:30.683Z</time>
      </trkpt>
      <trkpt lat="46.69865" lon="7.29646">
        <ele>1064.69</ele>
        <time>2020-06-12T12:54:30.683Z</time>
      </trkpt>
      <trkpt lat="46.69863" lon="7.29646">
        <ele>1063.68</ele>
        <time>2020-06-12T12:54:31.116Z</time>
      </trkpt>
      <trkpt lat="46.69843" lon="7.29649">
        <ele>1061.02</ele>
        <time>2020-06-12T12:54:35.477Z</time>
      </trkpt>
      <trkpt lat="46.69835" lon="7.29651">
        <ele>1060.15</ele>
        <time>2020-06-12T12:54:37.238Z</time>
      </trkpt>
      <trkpt lat="46.69828" lon="7.29655">
        <ele>1059.23</ele>
        <time>2020-06-12T12:54:38.869Z</time>
      </trkpt>
      <trkpt lat="46.69825" lon="7.29657">
        <ele>1058.8</ele>
        <time>2020-06-12T12:54:39.584Z</time>
      </trkpt>
      <trkpt lat="46.69823" lon="7.2966">
        <ele>1058.36</ele>
        <time>2020-06-12T12:54:40.207Z</time>
      </trkpt>
      <trkpt lat="46.69819" lon="7.29666">
        <ele>1057.5</ele>
        <time>2020-06-12T12:54:41.452Z</time>
      </trkpt>
      <trkpt lat="46.69815" lon="7.29674">
        <ele>1056.82</ele>
        <time>2020-06-12T12:54:42.924Z</time>
      </trkpt>
      <trkpt lat="46.69812" lon="7.29688">
        <ele>1055.4</ele>
        <time>2020-06-12T12:54:45.106Z</time>
      </trkpt>
      <trkpt lat="46.69803" lon="7.29726">
        <ele>1051.98</ele>
        <time>2020-06-12T12:54:51.087Z</time>
      </trkpt>
      <trkpt lat="46.69802" lon="7.29735">
        <ele>1051.3</ele>
        <time>2020-06-12T12:54:52.443Z</time>
      </trkpt>
      <trkpt lat="46.69802" lon="7.29743">
        <ele>1050.58</ele>
        <time>2020-06-12T12:54:53.633Z</time>
      </trkpt>
      <trkpt lat="46.69803" lon="7.29752">
        <ele>1049.89</ele>
        <time>2020-06-12T12:54:54.990Z</time>
      </trkpt>
      <trkpt lat="46.69804" lon="7.29759">
        <ele>1049.44</ele>
        <time>2020-06-12T12:54:56.053Z</time>
      </trkpt>
      <trkpt lat="46.69807" lon="7.29768">
        <ele>1048.69</ele>
        <time>2020-06-12T12:54:57.542Z</time>
      </trkpt>
      <trkpt lat="46.69809" lon="7.29771">
        <ele>1048.25</ele>
        <time>2020-06-12T12:54:58.165Z</time>
      </trkpt>
      <trkpt lat="46.69812" lon="7.29774">
        <ele>1047.8</ele>
        <time>2020-06-12T12:54:58.954Z</time>
      </trkpt>
      <trkpt lat="46.69827" lon="7.29793">
        <ele>1045.23</ele>
        <time>2020-06-12T12:55:03.263Z</time>
      </trkpt>
      <trkpt lat="46.6984" lon="7.2981">
        <ele>1043.02</ele>
        <time>2020-06-12T12:55:07.051Z</time>
      </trkpt>
      <trkpt lat="46.69862" lon="7.29838">
        <ele>1039.53</ele>
        <time>2020-06-12T12:55:13.385Z</time>
      </trkpt>
      <trkpt lat="46.69867" lon="7.29845">
        <ele>1038.77</ele>
        <time>2020-06-12T12:55:14.889Z</time>
      </trkpt>
      <trkpt lat="46.69876" lon="7.29857">
        <ele>1037.3</ele>
        <time>2020-06-12T12:55:17.534Z</time>
      </trkpt>
      <trkpt lat="46.69889" lon="7.2987">
        <ele>1035.65</ele>
        <time>2020-06-12T12:55:20.954Z</time>
      </trkpt>
      <trkpt lat="46.69893" lon="7.29874">
        <ele>1035.06</ele>
        <time>2020-06-12T12:55:22.006Z</time>
      </trkpt>
      <trkpt lat="46.69897" lon="7.29878">
        <ele>1034.46</ele>
        <time>2020-06-12T12:55:23.058Z</time>
      </trkpt>
      <trkpt lat="46.69906" lon="7.29888">
        <ele>1033.11</ele>
        <time>2020-06-12T12:55:25.512Z</time>
      </trkpt>
      <trkpt lat="46.69921" lon="7.29906">
        <ele>1030.9</ele>
        <time>2020-06-12T12:55:29.726Z</time>
      </trkpt>
      <trkpt lat="46.69932" lon="7.29919">
        <ele>1029.35</ele>
        <time>2020-06-12T12:55:32.797Z</time>
      </trkpt>
      <trkpt lat="46.69936" lon="7.29924">
        <ele>1028.66</ele>
        <time>2020-06-12T12:55:33.940Z</time>
      </trkpt>
      <trkpt lat="46.69938" lon="7.29929">
        <ele>1028.1</ele>
        <time>2020-06-12T12:55:34.801Z</time>
      </trkpt>
      <trkpt lat="46.69938" lon="7.29935">
        <ele>1027.65</ele>
        <time>2020-06-12T12:55:35.694Z</time>
      </trkpt>
      <trkpt lat="46.69937" lon="7.2994">
        <ele>1027.22</ele>
        <time>2020-06-12T12:55:36.468Z</time>
      </trkpt>
      <trkpt lat="46.69935" lon="7.29945">
        <ele>1026.88</ele>
        <time>2020-06-12T12:55:37.330Z</time>
      </trkpt>
      <trkpt lat="46.69933" lon="7.29948">
        <ele>1026.51</ele>
        <time>2020-06-12T12:55:37.952Z</time>
      </trkpt>
      <trkpt lat="46.6993" lon="7.2995">
        <ele>1026.37</ele>
        <time>2020-06-12T12:55:38.755Z</time>
      </trkpt>
      <trkpt lat="46.69928" lon="7.29952">
        <ele>1025.89</ele>
        <time>2020-06-12T12:55:39.281Z</time>
      </trkpt>
      <trkpt lat="46.69926" lon="7.29952">
        <ele>1025.74</ele>
        <time>2020-06-12T12:55:39.715Z</time>
      </trkpt>
      <trkpt lat="46.6992" lon="7.29951">
        <ele>1024.89</ele>
        <time>2020-06-12T12:55:41.025Z</time>
      </trkpt>
      <trkpt lat="46.69909" lon="7.29947">
        <ele>1023.47</ele>
        <time>2020-06-12T12:55:43.484Z</time>
      </trkpt>
      <trkpt lat="46.69905" lon="7.29945">
        <ele>1022.95</ele>
        <time>2020-06-12T12:55:44.401Z</time>
      </trkpt>
      <trkpt lat="46.69894" lon="7.2994">
        <ele>1021.72</ele>
        <time>2020-06-12T12:55:46.900Z</time>
      </trkpt>
      <trkpt lat="46.69888" lon="7.29939">
        <ele>1020.95</ele>
        <time>2020-06-12T12:55:48.210Z</time>
      </trkpt>
      <trkpt lat="46.69882" lon="7.29938">
        <ele>1020.22</ele>
        <time>2020-06-12T12:55:49.520Z</time>
      </trkpt>
      <trkpt lat="46.69876" lon="7.29938">
        <ele>1019.76</ele>
        <time>2020-06-12T12:55:50.821Z</time>
      </trkpt>
      <trkpt lat="46.69871" lon="7.29938">
        <ele>1019.04</ele>
        <time>2020-06-12T12:55:51.906Z</time>
      </trkpt>
      <trkpt lat="46.69867" lon="7.2994">
        <ele>1018.86</ele>
        <time>2020-06-12T12:55:52.934Z</time>
      </trkpt>
      <trkpt lat="46.69864" lon="7.29942">
        <ele>1018.59</ele>
        <time>2020-06-12T12:55:53.650Z</time>
      </trkpt>
      <trkpt lat="46.69857" lon="7.29948">
        <ele>1017.76</ele>
        <time>2020-06-12T12:55:55.411Z</time>
      </trkpt>
      <trkpt lat="46.69851" lon="7.29953">
        <ele>1017.06</ele>
        <time>2020-06-12T12:55:56.910Z</time>
      </trkpt>
      <trkpt lat="46.69844" lon="7.29957">
        <ele>1016.31</ele>
        <time>2020-06-12T12:55:58.541Z</time>
      </trkpt>
      <trkpt lat="46.69835" lon="7.2996">
        <ele>1015.03</ele>
        <time>2020-06-12T12:56:00.543Z</time>
      </trkpt>
      <trkpt lat="46.69828" lon="7.29963">
        <ele>1014.11</ele>
        <time>2020-06-12T12:56:02.126Z</time>
      </trkpt>
      <trkpt lat="46.69821" lon="7.29964">
        <ele>1013.48</ele>
        <time>2020-06-12T12:56:03.651Z</time>
      </trkpt>
      <trkpt lat="46.69815" lon="7.29965">
        <ele>1012.95</ele>
        <time>2020-06-12T12:56:04.961Z</time>
      </trkpt>
      <trkpt lat="46.69811" lon="7.29964">
        <ele>1012.4</ele>
        <time>2020-06-12T12:56:05.842Z</time>
      </trkpt>
      <trkpt lat="46.69806" lon="7.29963">
        <ele>1011.88</ele>
        <time>2020-06-12T12:56:06.936Z</time>
      </trkpt>
      <trkpt lat="46.69803" lon="7.29962">
        <ele>1011.47</ele>
        <time>2020-06-12T12:56:07.604Z</time>
      </trkpt>
      <trkpt lat="46.69799" lon="7.29959">
        <ele>1011.14</ele>
        <time>2020-06-12T12:56:08.580Z</time>
      </trkpt>
      <trkpt lat="46.69791" lon="7.29953">
        <ele>1010.16</ele>
        <time>2020-06-12T12:56:10.531Z</time>
      </trkpt>
      <trkpt lat="46.69783" lon="7.29948">
        <ele>1009.43</ele>
        <time>2020-06-12T12:56:12.419Z</time>
      </trkpt>
      <trkpt lat="46.69779" lon="7.29945">
        <ele>1009.02</ele>
        <time>2020-06-12T12:56:13.395Z</time>
      </trkpt>
      <trkpt lat="46.69772" lon="7.29943">
        <ele>1008.57</ele>
        <time>2020-06-12T12:56:14.852Z</time>
      </trkpt>
      <trkpt lat="46.6977" lon="7.29942">
        <ele>1008.35</ele>
        <time>2020-06-12T12:56:15.310Z</time>
      </trkpt>
      <trkpt lat="46.69768" lon="7.29942">
        <ele>1008.14</ele>
        <time>2020-06-12T12:56:15.744Z</time>
      </trkpt>
      <trkpt lat="46.69765" lon="7.29942">
        <ele>1007.91</ele>
        <time>2020-06-12T12:56:16.395Z</time>
      </trkpt>
      <trkpt lat="46.69757" lon="7.29942">
        <ele>1007.09</ele>
        <time>2020-06-12T12:56:18.130Z</time>
      </trkpt>
      <trkpt lat="46.69749" lon="7.29942">
        <ele>1006.26</ele>
        <time>2020-06-12T12:56:19.865Z</time>
      </trkpt>
      <trkpt lat="46.69747" lon="7.29942">
        <ele>1006</ele>
        <time>2020-06-12T12:56:20.299Z</time>
      </trkpt>
      <trkpt lat="46.69745" lon="7.29942">
        <ele>1005.51</ele>
        <time>2020-06-12T12:56:20.733Z</time>
      </trkpt>
      <trkpt lat="46.69744" lon="7.29942">
        <ele>1005.51</ele>
        <time>2020-06-12T12:56:21.700Z</time>
      </trkpt>
      <trkpt lat="46.69741" lon="7.29941">
        <ele>1005.03</ele>
        <time>2020-06-12T12:56:22.367Z</time>
      </trkpt>
      <trkpt lat="46.69738" lon="7.2994">
        <ele>1005.02</ele>
        <time>2020-06-12T12:56:25.201Z</time>
      </trkpt>
      <trkpt lat="46.69734" lon="7.29936">
        <ele>1004.4</ele>
        <time>2020-06-12T12:56:26.253Z</time>
      </trkpt>
      <trkpt lat="46.69728" lon="7.29927">
        <ele>1003.3</ele>
        <time>2020-06-12T12:56:28.121Z</time>
      </trkpt>
      <trkpt lat="46.69719" lon="7.29912">
        <ele>1001.78</ele>
        <time>2020-06-12T12:56:31.085Z</time>
      </trkpt>
      <trkpt lat="46.69713" lon="7.29901">
        <ele>1000.61</ele>
        <time>2020-06-12T12:56:33.176Z</time>
      </trkpt>
      <trkpt lat="46.69709" lon="7.29892">
        <ele>1000</ele>
        <time>2020-06-12T12:56:34.772Z</time>
      </trkpt>
      <trkpt lat="46.69704" lon="7.29883">
        <ele>999.26</ele>
        <time>2020-06-12T12:56:36.495Z</time>
      </trkpt>
      <trkpt lat="46.69701" lon="7.29874">
        <ele>998.62</ele>
        <time>2020-06-12T12:56:37.984Z</time>
      </trkpt>
      <trkpt lat="46.69698" lon="7.29866">
        <ele>998.28</ele>
        <time>2020-06-12T12:56:39.354Z</time>
      </trkpt>
      <trkpt lat="46.69696" lon="7.29862">
        <ele>997.94</ele>
        <time>2020-06-12T12:56:40.090Z</time>
      </trkpt>
      <trkpt lat="46.69694" lon="7.2986">
        <ele>997.8</ele>
        <time>2020-06-12T12:56:40.607Z</time>
      </trkpt>
      <trkpt lat="46.69691" lon="7.29859">
        <ele>997.68</ele>
        <time>2020-06-12T12:56:41.381Z</time>
      </trkpt>
      <trkpt lat="46.69688" lon="7.29859">
        <ele>997.5</ele>
        <time>2020-06-12T12:56:42.009Z</time>
      </trkpt>
      <trkpt lat="46.69685" lon="7.29862">
        <ele>997.3</ele>
        <time>2020-06-12T12:56:42.802Z</time>
      </trkpt>
      <trkpt lat="46.69683" lon="7.29865">
        <ele>997.08</ele>
        <time>2020-06-12T12:56:43.424Z</time>
      </trkpt>
      <trkpt lat="46.69682" lon="7.29868">
        <ele>996.92</ele>
        <time>2020-06-12T12:56:43.921Z</time>
      </trkpt>
      <trkpt lat="46.6968" lon="7.29873">
        <ele>996.72</ele>
        <time>2020-06-12T12:56:44.821Z</time>
      </trkpt>
      <trkpt lat="46.6968" lon="7.29879">
        <ele>996.67</ele>
        <time>2020-06-12T12:56:46.214Z</time>
      </trkpt>
      <trkpt lat="46.69681" lon="7.29886">
        <ele>996.55</ele>
        <time>2020-06-12T12:56:47.647Z</time>
      </trkpt>
      <trkpt lat="46.69683" lon="7.29891">
        <ele>996.5</ele>
        <time>2020-06-12T12:56:48.984Z</time>
      </trkpt>
      <trkpt lat="46.69685" lon="7.29897">
        <ele>996.45</ele>
        <time>2020-06-12T12:56:50.558Z</time>
      </trkpt>
      <trkpt lat="46.69692" lon="7.29916">
        <ele>996.32</ele>
        <time>2020-06-12T12:56:55.795Z</time>
      </trkpt>
      <trkpt lat="46.69696" lon="7.29925">
        <ele>996.14</ele>
        <time>2020-06-12T12:56:57.943Z</time>
      </trkpt>
      <trkpt lat="46.69697" lon="7.29932">
        <ele>996.01</ele>
        <time>2020-06-12T12:56:59.344Z</time>
      </trkpt>
      <trkpt lat="46.69698" lon="7.29941">
        <ele>995.94</ele>
        <time>2020-06-12T12:57:01.488Z</time>
      </trkpt>
      <trkpt lat="46.69698" lon="7.29947">
        <ele>995.63</ele>
        <time>2020-06-12T12:57:02.381Z</time>
      </trkpt>
      <trkpt lat="46.69699" lon="7.29951">
        <ele>995.48</ele>
        <time>2020-06-12T12:57:03.037Z</time>
      </trkpt>
      <trkpt lat="46.6969" lon="7.29949">
        <ele>995.31</ele>
        <time>2020-06-12T12:57:05.881Z</time>
      </trkpt>
      <trkpt lat="46.69666" lon="7.2994">
        <ele>993.87</ele>
        <time>2020-06-12T12:57:11.146Z</time>
      </trkpt>
      <trkpt lat="46.69659" lon="7.29937">
        <ele>993.29</ele>
        <time>2020-06-12T12:57:12.729Z</time>
      </trkpt>
      <trkpt lat="46.69655" lon="7.29935">
        <ele>993.06</ele>
        <time>2020-06-12T12:57:13.655Z</time>
      </trkpt>
      <trkpt lat="46.69652" lon="7.29935">
        <ele>992.81</ele>
        <time>2020-06-12T12:57:14.306Z</time>
      </trkpt>
      <trkpt lat="46.6965" lon="7.29936">
        <ele>992.39</ele>
        <time>2020-06-12T12:57:14.765Z</time>
      </trkpt>
      <trkpt lat="46.69647" lon="7.29937">
        <ele>992.25</ele>
        <time>2020-06-12T12:57:15.493Z</time>
      </trkpt>
      <trkpt lat="46.69643" lon="7.29941">
        <ele>991.55</ele>
        <time>2020-06-12T12:57:16.545Z</time>
      </trkpt>
      <trkpt lat="46.69637" lon="7.29948">
        <ele>990.39</ele>
        <time>2020-06-12T12:57:18.212Z</time>
      </trkpt>
      <trkpt lat="46.69634" lon="7.29955">
        <ele>989.37</ele>
        <time>2020-06-12T12:57:19.440Z</time>
      </trkpt>
      <trkpt lat="46.6963" lon="7.29965">
        <ele>988.42</ele>
        <time>2020-06-12T12:57:21.162Z</time>
      </trkpt>
      <trkpt lat="46.69628" lon="7.29972">
        <ele>987.7</ele>
        <time>2020-06-12T12:57:22.290Z</time>
      </trkpt>
      <trkpt lat="46.69627" lon="7.29979">
        <ele>987.14</ele>
        <time>2020-06-12T12:57:23.354Z</time>
      </trkpt>
      <trkpt lat="46.69627" lon="7.29986">
        <ele>986.44</ele>
        <time>2020-06-12T12:57:24.396Z</time>
      </trkpt>
      <trkpt lat="46.69628" lon="7.29992">
        <ele>986.14</ele>
        <time>2020-06-12T12:57:25.314Z</time>
      </trkpt>
      <trkpt lat="46.6963" lon="7.3">
        <ele>985.19</ele>
        <time>2020-06-12T12:57:26.581Z</time>
      </trkpt>
      <trkpt lat="46.69634" lon="7.30012">
        <ele>983.99</ele>
        <time>2020-06-12T12:57:28.566Z</time>
      </trkpt>
      <trkpt lat="46.69641" lon="7.30028">
        <ele>982.32</ele>
        <time>2020-06-12T12:57:31.389Z</time>
      </trkpt>
      <trkpt lat="46.69646" lon="7.30038">
        <ele>981.58</ele>
        <time>2020-06-12T12:57:33.230Z</time>
      </trkpt>
      <trkpt lat="46.6966" lon="7.3006">
        <ele>979</ele>
        <time>2020-06-12T12:57:37.695Z</time>
      </trkpt>
      <trkpt lat="46.69668" lon="7.30074">
        <ele>977.29</ele>
        <time>2020-06-12T12:57:40.406Z</time>
      </trkpt>
      <trkpt lat="46.69664" lon="7.30075">
        <ele>977.36</ele>
        <time>2020-06-12T12:57:45.066Z</time>
      </trkpt>
      <trkpt lat="46.6966" lon="7.30073">
        <ele>977.5</ele>
        <time>2020-06-12T12:57:50.933Z</time>
      </trkpt>
      <trkpt lat="46.69649" lon="7.30063">
        <ele>977.58</ele>
        <time>2020-06-12T12:58:04.217Z</time>
      </trkpt>
      <trkpt lat="46.69639" lon="7.30056">
        <ele>976.24</ele>
        <time>2020-06-12T12:58:06.623Z</time>
      </trkpt>
      <trkpt lat="46.69635" lon="7.30052">
        <ele>975.68</ele>
        <time>2020-06-12T12:58:07.675Z</time>
      </trkpt>
      <trkpt lat="46.69631" lon="7.3005">
        <ele>975.18</ele>
        <time>2020-06-12T12:58:08.593Z</time>
      </trkpt>
      <trkpt lat="46.69628" lon="7.30057">
        <ele>975.21</ele>
        <time>2020-06-12T12:58:14.345Z</time>
      </trkpt>
      <trkpt lat="46.69614" lon="7.30041">
        <ele>975.11</ele>
        <time>2020-06-12T12:58:30.179Z</time>
      </trkpt>
      <trkpt lat="46.69602" lon="7.30029">
        <ele>974.92</ele>
        <time>2020-06-12T12:58:35.050Z</time>
      </trkpt>
      <trkpt lat="46.696" lon="7.30033">
        <ele>974.6</ele>
        <time>2020-06-12T12:58:35.786Z</time>
      </trkpt>
      <trkpt lat="46.69591" lon="7.3004">
        <ele>973.1</ele>
        <time>2020-06-12T12:58:37.999Z</time>
      </trkpt>
      <trkpt lat="46.69589" lon="7.30042">
        <ele>971.69</ele>
        <time>2020-06-12T12:58:38.525Z</time>
      </trkpt>
      <trkpt lat="46.69589" lon="7.30045">
        <ele>971.08</ele>
        <time>2020-06-12T12:58:38.971Z</time>
      </trkpt>
      <trkpt lat="46.69593" lon="7.30057">
        <ele>967.96</ele>
        <time>2020-06-12T12:58:40.956Z</time>
      </trkpt>
      <trkpt lat="46.69592" lon="7.30061">
        <ele>966.67</ele>
        <time>2020-06-12T12:58:41.590Z</time>
      </trkpt>
      <trkpt lat="46.6959" lon="7.30059">
        <ele>965.45</ele>
        <time>2020-06-12T12:58:42.116Z</time>
      </trkpt>
      <trkpt lat="46.69587" lon="7.30057">
        <ele>964.66</ele>
        <time>2020-06-12T12:58:42.831Z</time>
      </trkpt>
      <trkpt lat="46.69582" lon="7.30047">
        <ele>965.34</ele>
        <time>2020-06-12T12:59:00.707Z</time>
      </trkpt>
      <trkpt lat="46.6958" lon="7.30042">
        <ele>965.57</ele>
        <time>2020-06-12T12:59:07.787Z</time>
      </trkpt>
      <trkpt lat="46.69575" lon="7.30035">
        <ele>966.12</ele>
        <time>2020-06-12T12:59:22.294Z</time>
      </trkpt>
      <trkpt lat="46.6957" lon="7.30026">
        <ele>967.48</ele>
        <time>2020-06-12T12:59:51.918Z</time>
      </trkpt>
      <trkpt lat="46.69568" lon="7.30022">
        <ele>967.77</ele>
        <time>2020-06-12T12:59:59.392Z</time>
      </trkpt>
      <trkpt lat="46.69568" lon="7.30021">
        <ele>967.77</ele>
        <time>2020-06-12T13:00:00.055Z</time>
      </trkpt>
      <trkpt lat="46.69567" lon="7.3002">
        <ele>968.06</ele>
        <time>2020-06-12T13:00:04.577Z</time>
      </trkpt>
      <trkpt lat="46.69561" lon="7.3001">
        <ele>969.5</ele>
        <time>2020-06-12T13:00:38.559Z</time>
      </trkpt>
      <trkpt lat="46.6955" lon="7.29987">
        <ele>970</ele>
        <time>2020-06-12T13:01:02.965Z</time>
      </trkpt>
      <trkpt lat="46.69516" lon="7.29943">
        <ele>970.92</ele>
        <time>2020-06-12T13:01:56.918Z</time>
      </trkpt>
      <trkpt lat="46.69506" lon="7.29932">
        <ele>972.1</ele>
        <time>2020-06-12T13:02:26.728Z</time>
      </trkpt>
      <trkpt lat="46.695" lon="7.29926">
        <ele>972.18</ele>
        <time>2020-06-12T13:02:34.550Z</time>
      </trkpt>
      <trkpt lat="46.69495" lon="7.29922">
        <ele>971.87</ele>
        <time>2020-06-12T13:02:35.800Z</time>
      </trkpt>
      <trkpt lat="46.69493" lon="7.29921">
        <ele>971.82</ele>
        <time>2020-06-12T13:02:36.423Z</time>
      </trkpt>
      <trkpt lat="46.69481" lon="7.2992">
        <ele>972.5</ele>
        <time>2020-06-12T13:02:57.657Z</time>
      </trkpt>
      <trkpt lat="46.69476" lon="7.29919">
        <ele>972.09</ele>
        <time>2020-06-12T13:02:58.752Z</time>
      </trkpt>
      <trkpt lat="46.69464" lon="7.29911">
        <ele>971.55</ele>
        <time>2020-06-12T13:03:02.009Z</time>
      </trkpt>
      <trkpt lat="46.69447" lon="7.29897">
        <ele>972.42</ele>
        <time>2020-06-12T13:03:33.880Z</time>
      </trkpt>
      <trkpt lat="46.69431" lon="7.29883">
        <ele>973.46</ele>
        <time>2020-06-12T13:04:06.657Z</time>
      </trkpt>
      <trkpt lat="46.69417" lon="7.2987">
        <ele>974.28</ele>
        <time>2020-06-12T13:04:34.607Z</time>
      </trkpt>
      <trkpt lat="46.69397" lon="7.29857">
        <ele>974.96</ele>
        <time>2020-06-12T13:05:04.194Z</time>
      </trkpt>
      <trkpt lat="46.69384" lon="7.29849">
        <ele>975.58</ele>
        <time>2020-06-12T13:05:27.025Z</time>
      </trkpt>
      <trkpt lat="46.69362" lon="7.2984">
        <ele>976.77</ele>
        <time>2020-06-12T13:06:06.186Z</time>
      </trkpt>
      <trkpt lat="46.69333" lon="7.29834">
        <ele>977.5</ele>
        <time>2020-06-12T13:06:42.882Z</time>
      </trkpt>
      <trkpt lat="46.69342" lon="7.29809">
        <ele>994.1</ele>
        <time>2020-06-12T13:07:55.260Z</time>
      </trkpt>
      <trkpt lat="46.69275" lon="7.2973">
        <ele>998.5</ele>
        <time>2020-06-12T13:10:22.727Z</time>
      </trkpt>
    </trkseg>
  </trk>
</gpx>